     2.11           OBSERVATION DATA    G (GPS)             RINEX VERSION / TYPE
teqc 2010Oct21 OPUS Account 20111025 18:17:58UTC            PGM / RUN BY / DATE
N2277258                                                    MARKER NAME
1114                                                        MARKER NUMBER
CSMIDDLETON NGS                                             OBSERVER / AGENCY
4619K01307 TRIMBLE NETR5 4.41                               REC # / TYPE / VERS
12668873 TRM41249.00 NONE                                   ANT # / TYPE
  -741503.7067 -5462707.8500  3197295.8662                  APPROX POSITION XYZ
        1.9990        0.0000        0.0000                  ANTENNA: DELTA H/E/N
     1     1                                                WAVELENGTH FACT L1/2
     5    L1    L2    C1    P1    P2                        # / TYPES OF OBSERV
    15                                                      LEAP SECONDS
  2011     7    26     0     0    0.0000000     GPS         TIME OF FIRST OBS
                                                            END OF HEADER
 11  7 26  0  0  0.0000000  0  8G28G10G17G09G04G20G27G02
 113876366.73348  88734923.93445  21669943.3284                   21669952.4614
 125563627.08146  97841744.41543  23893924.7814                   23893938.9304
 111766906.516 8                  21268520.617
 117062173.82047  91217367.79145  22276197.6884                   22276207.8244
 105030208.88648  81841853.72046  19986561.5704                   19986570.7114
 126655237.36346  98692291.19043  24101647.5314                   24101658.1454
 118022328.27347  91965508.66845  22458898.8524                   22458909.4574
 118859776.24547  92618092.81845  22618245.5164                   22618254.2034
 11  7 26  0  0 30.0000000  0  8G28G10G17G09G04G20G27G02
 113921082.71748  88769767.51045  21678452.6094                   21678461.8984
 125469292.52846  97768237.26243  23875973.7504                   23875987.2664
 111796413.837 8                  21274135.828
 117024074.56947  91187680.06445  22268947.5164                   22268957.9024
 105004994.97148  81822206.52346  19981763.2584                   19981773.0394
 126680731.76247  98712157.00143  24106499.2814                   24106508.6684
 118003751.68547  91951033.40845  22455364.1094                   22455374.2774
 118774870.53447  92551932.63445  22602089.0634                   22602097.7624
 11  7 26  0  1  0.0000000  0  8G28G10G17G09G04G20G27G02
 113966167.47048  88804898.44645  21687031.6884                   21687040.6914
 125374946.55046  97694721.20143  23858019.8754                   23858034.4844
 111826026.226 8                  21279770.320
 116986596.03547  91158476.02645  22261815.8444                   22261825.8324
 104980355.45048  81803006.91446  19977074.4844                   19977083.9414
 126706729.71946  98732415.18543  24111446.4844                   24111456.8014
 117985665.87547  91936940.57345  22451922.5864                   22451932.5434
 118690229.25247  92485978.49845  22585981.5314                   22585990.7304
 11  7 26  0  1 30.0000000  0  8G28G10G17G09G04G20G27G02
 114011620.62748  88840316.43845  21695681.8364                   21695690.4534
 125280591.71546  97621198.26643  23840063.9844                   23840078.8874
 111855742.362 8                  21285425.500
 116949739.17247  91129756.39645  22254801.9384                   22254812.3094
 104956289.91948  81784254.57346  19972495.2424                   19972504.3794
 126733231.04746  98753065.50943  24116489.7344                   24116499.0824
 117968070.84347  91923230.16345  22448573.9614                   22448584.3284
 118605853.37547  92420231.18045  22569925.5394                   22569934.1134
 11  7 26  0  2  0.0000000  0  8G28G10G17G09G04G20G27G02
 114057443.36848  88876022.41345  21704401.2504                   21704409.9344
 125186231.53746  97547671.18143  23822108.1094                   23822122.2304
 111885562.160 8                  21291099.633
 116913504.97447  91101521.96745  22247906.5314                   22247916.8754
 104932798.61448  81765949.68046  19968024.9384                   19968034.2504
 126760235.33146  98774107.76843  24121627.8834                   24121637.6134
 117950966.86347  91909902.39145  22445319.3364                   22445329.1644
 118521744.51547  92354691.91745  22553920.1644                   22553928.9964
 11  7 26  0  2 30.0000000  0  8G28G10G17G09G04G20G27G02
 114103634.77247  88912015.64745  21713191.1954                   21713200.2974
 125091868.80546  97474142.01843  23804151.1564                   23804164.9774
 111915485.218 8                  21296794.391
 116877894.67847  91073773.70845  22241130.2344                   22241140.6094
 104909881.83248  81748092.46346  19963664.0474                   19963673.0164
 126787742.38246  98795541.82643  24126862.8054                   24126872.6254
 117934354.49847  91896957.69945  22442157.9384                   22442168.1764
 118437904.40747  92289362.08445  22537965.6174                   22537974.4884
 11  7 26  0  3  0.0000000  0  8G28G10G17G09G04G20G27G02
 114150195.30448  88948296.52945  21722051.4694                   21722060.2624
 124997506.70146  97400613.39043  23786194.7194                   23786208.3364
 111945511.153 8                  21302507.633
 116842909.40447  91046512.47845  22234472.8134                   22234482.4024
 104887539.76448  81730683.07446  19959412.5314                   19959421.6054
 126815752.01046  98817367.56743  24132193.2034                   24132201.5394
 117918233.83847  91884396.14245  22439090.4614                   22439100.6524
 118354334.44547  92224242.74745  22522063.1094                   22522071.7074
 11  7 26  0  3 30.0000000  0  8G28G10G17G09G04G20G27G02
 114197125.08448  88984865.14145  21730982.1254                   21730991.2704
 124903148.04847  97327087.41144  23768238.4144                   23768251.9304
 111975638.972 8                  21308241.023
 116808549.62847  91019738.64845  22227934.7194                   22227944.4064
 104865771.80048  81713721.02746  19955270.0474                   19955279.5204
 126844263.68946  98839584.47443  24137618.1484                   24137628.3984
 117902604.74947  91872217.62545  22436116.2424                   22436126.6294
 118271035.77147  92159334.82445  22506211.2974                   22506220.4144
 11  7 26  0  4  0.0000000  0  8G28G10G17G09G04G20G27G02
 114244424.63848  89021721.89145  21739982.7424                   21739992.0234
 124808795.85347  97253566.44744  23750284.1174                   23750297.1564
 112005868.577 7                  21313993.578
 116774816.60647  90993453.20145  22221514.9924                   22221525.6764
 104844578.33648  81697206.64746  19951237.0314                   19951246.4924
 126873277.15846  98862192.39743  24143139.9384                   24143148.8324
 117887467.59947  91860422.44445  22433235.6954                   22433245.8094
 118188010.20547  92094639.69545  22490411.9694                   22490420.5434
 11  7 26  0  4 30.0000000  0  8G28G10G17G09G04G20G27G02
 114292094.14348  89058866.90945  21749054.0554                   21749062.7624
 124714453.45247  97180053.14044  23732331.6644                   23732344.2074
 112036199.738 8                  21319765.281
 116741711.47247  90967657.01944  22215215.4144                   22215226.0514
 104823959.72048  81681140.20546  19947313.5704                   19947323.1334
 126902792.05846  98885191.02743  24148755.7584                   24148764.9734
 117872822.75347  91849010.86245  22430448.9614                   22430459.0594
 118105259.34947  92030158.62645  22474665.1954                   22474674.0474
 11  7 26  0  5  0.0000000  0  8G28G10G17G09G04G20G27G02
 114340134.18648  89096300.64745  21758195.5704                   21758204.5634
 124620123.86146  97106549.80244  23714380.5314                   23714393.3054
 112066631.773 8                  21325556.141
 116709235.22447  90942350.86744  22209035.1564                   22209045.1954
 104803915.71748  81665521.51346  19943499.5394                   19943508.7504
 126932807.94546  98908580.02843  24154467.6724                   24154476.9104
 117858670.39247  91837983.02745  22427755.8134                   22427765.9574
 118022784.41147  91965892.56345  22458970.6484                   22458979.2154
 11  7 26  0  5 30.0000000  0  8G28G10G17G09G04G20G27G02
 114388544.55348  89134022.96945  21767407.8984                   21767416.4104
 124525810.13347  97033058.81543  23696432.5084                   23696445.7114
 112097164.682 8                  21331366.555
 116677388.67447  90917535.41344  22202975.1174                   22202985.5044
 104784446.44448  81650350.67646  19939794.5084                   19939803.6684
 126963324.59046  98932359.25343  24160274.4454                   24160284.8364
 117845010.73747  91827339.12745  22425156.3134                   22425166.4454
 117940587.00447  91901842.75145  22443329.1024                   22443337.0864
 11  7 26  0  6  0.0000000  0  8G28G10G17G09G04G20G27G02
 114437325.28748  89172033.89945  21776690.3834                   21776699.2194
 124431515.25247  96959582.47543  23678489.4924                   23678501.8094
 112127797.317 8                  21337195.688
 116646172.58247  90893211.21244  22197035.1804                   22197045.2704
 104765551.64748  81635627.48046  19936198.6484                   19936208.1254
 126994341.21246  98956527.98543  24166177.4064                   24166187.1334
 117831843.55648  91817078.96645  22422650.9454                   22422661.2154
 117858668.54047  91838010.29145  22427739.8054                   22427748.8484
 11  7 26  0  6 30.0000000  0  8G28G10G17G09G04G20G27G02
 114486476.31448  89210333.37445  21786043.5944                   21786053.2234
 124337242.18147  96886123.15743  23660549.6804                   23660561.9494
 112158529.185 8                  21343043.531
 116615587.46447  90869378.68344  22191214.8444                   22191225.0474
 104747230.76848  81621351.48746  19932712.6334                   19932721.7074
 127025857.53946  98981086.16642  24172174.6564                   24172184.2234
 117819168.91547  91807202.60445  22420238.9774                   22420249.5354
 117777029.98647  91774395.94545  22412204.6094                   22412212.9574
 11  7 26  0  7  0.0000000  0  8G28G10G17G09G04G20G27G02
 114535998.28148  89248921.88745  21795467.9144                   21795476.9614
 124242994.23746  96812683.39043  23642614.7814                   23642628.1134
 112189360.515 8                  21348910.727
 116585634.72847  90846038.93544  22185514.8134                   22185524.8634
 104729484.44048  81607523.20646  19929335.3914                   19929344.7664
 127057872.96946  99006033.24843  24178266.7274                   24178276.3714
 117806987.25947  91797710.38445  22417920.7504                   22417931.1374
 117695673.32347  91711001.22945  22396723.1094                   22396731.0634
 11  7 26  0  7 30.0000000  0  8G28G10G17G09G04G20G27G02
 114585891.05848  89287799.32545  21804962.3674                   21804970.9384
 124148774.63446  96739265.68643  23624685.0314                   23624697.8094
 112220290.884 8                  21354796.938
 116556314.99847  90823192.41244  22179935.3594                   22179945.2344
 104712312.42648  81594142.43246  19926067.9384                   19926077.1724
 127090387.17046  99031369.01043  24184453.4844                   24184464.4384
 117795298.54947  91788602.26645  22415696.6724                   22415706.8204
 117614600.01047  91647827.31145  22381295.3674                   22381303.6914
 11  7 26  0  8  0.0000000  0  8G28G10G17G09G04G20G27G02
 114636154.69148  89326965.75645  21814526.6804                   21814535.5124
 124054586.11046  96665872.28343  23606760.3284                   23606773.9534
 112251319.686 8                  21360701.102
 116527628.99447  90800839.70944  22174476.8754                   22174486.8364
 104695714.45848  81581208.98146  19922909.0554                   19922918.8324
 127123399.81446  99057093.17843  24190736.4384                   24190746.2154
 117784102.72547  91779878.21445  22413566.5394                   22413576.3794
 117533811.19548  91584875.07245  22365921.5634                   22365930.1174
 11  7 26  0  8 30.0000000  0  8G28G10G17G09G04G20G27G02
 114686789.28248  89366421.25045  21824162.2424                   21824170.8324
 123960432.14746  96592505.73943  23588844.0864                   23588857.4184
 112282446.755 8                  21366624.383
 116499577.52147  90778981.44345  22169138.6724                   22169148.5904
 104679690.44848  81568722.76446  19919859.4694                   19919869.2424
 127156910.03746  99083205.06043  24197112.3364                   24197123.0634
 117773399.95347  91771538.37345  22411529.5864                   22411539.8444
 117453308.53348  91522145.82345  22350602.2274                   22350610.5984
 11  7 26  0  9  0.0000000  0  8G28G10G17G09G04G20G27G02
 114737794.76148  89406165.74145  21833868.5314                   21833877.3014
 123866315.65847  96519168.42443  23570933.9534                   23570946.8874
 112313671.349 8                  21372566.375
 116472160.97047  90757617.91044  22163921.3054                   22163931.3094
 104664239.96648  81556683.44146  19916919.8914                   19916929.0984
 127190917.43546  99109704.27443  24203584.1174                   24203594.6954
 117763190.09447  91763582.60845  22409586.6884                   22409597.2384
 117373093.08548  91459640.36445  22335338.2344                   22335345.9304
 11  7 26  0  9 30.0000000  0  8G28G10G17G09G04G20G27G02
 114789171.37848  89446199.41745  21843645.3984                   21843654.7854
 123772239.70347  96445862.71144  23553031.9304                   23553044.5634
 112344993.257 8                  21378526.766
 116445380.26447  90736749.83644  22158825.0474                   22158835.0864
 104649362.92648  81545090.96546  19914088.5314                   19914097.7384
 127225421.27546  99136590.34543  24210149.2894                   24210159.9734
 117753473.18347  91756010.96645  22407737.8444                   22407747.3054
 117293166.40848  91397359.91945  22320128.0784                   22320136.8164
 11  7 26  0 10  0.0000000  0  8G28G10G17G09G04G20G27G02
 114840918.86048  89486522.08245  21853492.4224                   21853501.8714
 123678207.55447  96372591.09644  23535138.2114                   23535151.1954
 112376411.875 8                  21384505.727
 116419235.74647  90716377.50244  22153849.9774                   22153859.4774
 104635058.82848  81533944.93246  19911366.6484                   19911376.1954
 127260420.94146  99163862.82443  24216810.2894                   24216820.3204
 117744248.84547  91748823.14645  22405982.4304                   22405992.7344
 117213529.60248  91335305.35545  22304973.9534                   22304982.4694
 11  7 26  0 10 30.0000000  0  8G28G10G17G09G04G20G27G02
 114893037.60848  89527134.04545  21863410.0084                   21863419.5434
 123584222.29747  96299355.99944  23517253.4064                   23517265.6484
 112407927.345 8                  21390502.977
 116393728.40747  90696501.65245  22148996.1174                   22149006.2194
 104621327.63748  81523245.31546  19908753.6724                   19908763.0164
 127295915.75946  99191521.11443  24223564.7894                   24223575.5124
 117735517.42747  91742019.43245  22404321.2274                   22404331.5084
 117134184.50447  91273478.09545  22289874.7194                   22289883.0594
 11  7 26  0 11  0.0000000  0  8G28G10G17G09G04G20G27G02
 114945527.30648  89568035.06045  21873398.8524                   21873407.7934
 123490286.99347  96226159.87044  23499377.9454                   23499389.9884
 112439538.815 8                  21396517.898
 116368858.42547  90677122.44945  22144263.4534                   22144273.4774
 104608168.91248  81512991.78046  19906249.8204                   19906259.1524
 127331905.09245  99219564.72942  24230412.5554                   24230423.3404
 117727278.88247  91735599.75945  22402753.1174                   22402763.2584
 117055132.12748  91211878.92445  22274831.5084                   22274839.9144
 11  7 26  0 11 30.0000000  0  8G28G10G17G09G04G20G27G02
 114998388.08448  89609225.22245  21883458.0084                   21883467.3914
 123396404.92147  96153005.19644  23481513.0784                   23481525.1684
 112471246.286 8                  21402551.852
 116344626.57847  90658240.47545  22139652.1884                   22139662.7584
 104595582.34048  81503184.07446  19903854.5164                   19903863.8674
 127368388.27046  99247993.13642  24237355.0164                   24237365.7974
 117719533.04547  91729564.02245  22401279.2274                   22401289.7234
 116976373.79548  91150508.89345  22259844.4844                   22259853.1024
 11  7 26  0 12  0.0000000  0  8G28G10G17G09G04G20G27G02
 115051619.71248  89650704.35645  21893587.4384                   21893596.8444
 123302579.29846  96079894.51044  23463658.1954                   23463670.3674
 112503049.041 7                  21408604.047
 116321033.35247  90639856.13945  22135162.7814                   22135172.8404
 104583567.73048  81493822.03846  19901568.1954                   19901577.4734
 127405364.66346  99276805.89043  24244392.2584                   24244402.7624
 117712279.57247  91723911.97445  22399898.5704                   22399908.9414
 116897910.99948  91089369.12845  22244913.2814                   22244921.5554
 11  7 26  0 12 30.0000000  0  8G28G10G17G09G04G20G27G02
 115105222.25347  89692472.50245  21903787.4304                   21903796.9884
 123208813.00646  96006830.07544  23445814.5864                   23445827.2114
 112534947.068 8                  21414673.906
 116298079.08147  90621969.65845  22130794.8284                   22130804.8594
 104572124.40848  81484905.17846  19899390.8204                   19899400.2344
 127442833.67445  99306002.49543  24251521.6954                   24251532.9494
 117705518.24247  91718643.40745  22398612.0164                   22398622.1604
 116819744.80848  91028460.50345  22230038.5084                   22230047.1214
 11  7 26  0 13  0.0000000  0  8G28G10G17G09G04G20G27G02
 115159195.65648  89734529.62545  21914058.8984                   21914068.4384
 123115109.72946  95933814.72144  23427983.6024                   23427995.9184
 112566939.934 8                  21420761.977
 116275764.40647  90604581.57345  22126548.5784                   22126558.8404
 104561252.25148  81476433.37546  19897321.6174                   19897330.8954
 127480794.27246  99335582.11843  24258746.4774                   24258757.3134
 117699248.95647  91713758.25145  22397419.3364                   22397429.4774
 116741876.71447  90967784.13845  22215220.8834                   22215229.4184
 11  7 26  0 13 30.0000000  0  8G28G10G17G09G04G20G27G02
 115213540.24748  89776876.00145  21924400.0394                   21924409.2424
 123021472.33246  95860850.68343  23410164.8284                   23410177.3914
 112599027.635 8                  21426868.070
 116254090.09447  90587692.47545  22122424.3754                   22122434.0084
 104550951.05748  81468406.48246  19895361.3134                   19895371.3954
 127519245.87846  99365544.41343  24266063.4844                   24266073.7734
 117693471.64347  91709256.44545  22396319.8754                   22396329.8914
 116664308.00747  90907341.07745  22200459.9774                   22200468.3014
 11  7 26  0 14  0.0000000  0  8G28G10G17G09G04G20G27G02
 115268255.51848  89819511.20945  21934812.1484                   21934821.4844
 122927903.89146  95787940.40243  23392359.3984                   23392372.0084
 112631209.720 8                  21432992.578
 116233055.97647  90571302.22845  22118421.1024                   22118431.1484
 104541220.00948  81460823.87146  19893509.6334                   19893519.4384
 127558187.96446  99395888.90243  24273473.1334                   24273484.0164
 117688185.88547  91705137.68845  22395313.8364                   22395323.7154
 116587039.87947  90847132.21745  22185756.2034                   22185764.3874
 11  7 26  0 14 30.0000000  0  8G28G10G17G09G04G20G27G02
 115323341.41547  89862435.22045  21945294.5394                   21945303.9884
 122834407.82146  95715086.47643  23374566.5784                   23374578.8594
 112663485.841 8                  21439134.109
 116212662.86447  90555411.46345  22114540.7344                   22114550.5864
 104532058.69048  81453685.19646  19891766.2194                   19891775.7774
 127597619.27646  99426614.53243  24280976.6644                   24280987.8134
 117683391.56847  91701401.87445  22394401.4844                   22394411.6914
 116510073.75448  90787158.68845  22171109.7814                   22171117.8444
 11  7 26  0 15  0.0000000  0  8G28G10G17G09G04G20G27G02
 115378797.80647  89905647.91345  21955847.9924                   21955856.8714
 122740987.00946  95642291.20543  23356789.5704                   23356800.9494
 112695855.660 8                  21445294.188
 116192910.58647  90540020.04345  22110782.1564                   22110792.0554
 104523466.38348  81446989.91146  19890131.5474                   19890140.5554
 127637539.01346  99457720.82842  24288573.9304                   24288583.9614
 117679088.29747  91698048.68345  22393582.3524                   22393592.8674
 116433410.83548  90727421.41245  22156521.6254                   22156529.4964
 11  7 26  0 15 30.0000000  0  8G28G10G17G09G04G20G27G02
 115434624.28947  89949149.00545  21966471.5634                   21966480.3714
 122647644.76446  95569557.15143  23339027.2584                   23339039.9804
 112728319.004 8                  21451471.203
 116173799.72347  90525128.43345  22107145.4924                   22107155.0514
 104515442.99648  81440737.93946  19888604.5234                   19888613.7624
 127677946.70946  99489207.35243  24296263.0314                   24296273.1604
 117675276.01447  91695078.08245  22392857.2584                   22392867.2544
 116357052.51647  90667921.49945  22141990.7424                   22141998.9494
 11  7 26  0 16  0.0000000  0  8G28G10G17G09G04G20G27G02
 115490821.22047  89992938.76245  21977165.2344                   21977174.8364
 122554384.46447  95496886.90544  23321279.8834                   23321292.8874
 112760875.607 8                  21457666.750
 116155330.81647  90510737.05545  22103631.0864                   22103641.5044
 104507988.07148  81434928.92546  19887185.7584                   19887194.9264
 127718841.33346  99521073.19743  24304046.5314                   24304055.7154
 117671954.35847  91692489.79545  22392225.2974                   22392235.3984
 116281000.03847  90608659.90045  22127518.7344                   22127526.3204
 11  7 26  0 16 30.0000000  0  8G28G10G17G09G04G20G27G02
 115547388.35347  90037017.00345  21987929.5164                   21987938.2664
 122461209.22647  95424282.97144  23303549.7424                   23303560.8204
 112793525.259 8                  21463879.867
 116137504.01747  90496846.03045  22100238.6254                   22100249.0944
 104501100.70848  81429562.16246  19885875.3594                   19885884.2814
 127760221.80746  99553317.76643  24311919.9844                   24311929.9844
 117669122.63647  91690283.27245  22391686.2584                   22391696.5394
 116205254.37347  90549637.38245  22113104.5704                   22113112.9494
 11  7 26  0 17  0.0000000  0  8G28G10G17G09G04G20G27G02
 115604325.48547  90081383.55245  21998764.5634                   21998773.4224
 122368122.29647  95351747.89444  23285835.4614                   23285847.8554
 112826267.425 8                  21470110.336
 116120319.53047  90483455.50245  22096968.6884                   22096978.8054
 104494780.52848  81424637.37346  19884672.5164                   19884681.5204
 127802087.32646  99585940.20743  24319886.1024                   24319897.0664
 117666780.77447  91688458.46145  22391240.6024                   22391250.9024
 116129816.86547  90490854.98645  22098749.6484                   22098757.6174
 11  7 26  0 17 30.0000000  0  8G28G10G17G09G04G20G27G02
 115661632.02447  90126037.95245  22009669.6254                   22009678.4224
 122275126.77147  95279284.02044  23268138.9454                   23268152.2504
 112859102.006 8                  21476358.797
 116103777.37747  90470565.50645  22093821.1254                   22093830.9024
 104489026.68448  81420153.86746  19883577.3444                   19883587.0984
 127844437.00746  99618939.93343  24327945.6024                   24327955.0204
 117664928.46847  91687015.11945  22390888.3204                   22390898.2934
 116054688.59548  90432313.54345  22084452.5234                   22084460.7344
 11  7 26  0 18  0.0000000  0  8G28G10G17G09G04G20G27G02
 115719308.04447  90170980.25545  22020645.1484                   22020654.0314
 122182226.01947  95206893.91444  23250460.4924                   23250472.2584
 112892028.858 8                  21482624.484
 116087877.50347  90458175.99845  22090795.1484                   22090805.0514
 104483838.73248  81416111.32146  19882590.2894                   19882599.8054
 127887270.09546  99652316.37943  24336095.8984                   24336107.2774
 117663565.43147  91685953.02145  22390628.7194                   22390638.6884
 115979870.96348  90374014.16345  22070215.3284                   22070223.6844
 11  7 26  0 18 30.0000000  0  8G28G10G17G09G04G20G27G02
 115777353.24647  90216210.23945  22031690.7894                   22031699.7894
 122089423.26046  95134580.17744  23232800.3754                   23232811.3754
 112925047.792 7                  21488907.734
 116072620.09447  90446287.14045  22087891.6884                   22087902.0044
 104479215.82548  81412509.06046  19881710.7734                   19881720.2544
 127930585.32646  99686068.48843  24344338.0554                   24344349.1724
 117662691.14647  91685271.77545  22390462.2734                   22390472.4064
 115905364.90548  90315957.57145  22056037.2894                   22056045.2074
 11  7 26  0 19  0.0000000  0  8G28G10G17G09G04G20G27G02
 115835767.55847  90261727.84545  22042806.5004                   22042815.3674
 121996721.64747  95062345.28844  23215159.7734                   23215171.6134
 112958158.482 8                  21495208.633
 116058005.32647  90434899.02945  22085110.4924                   22085120.6804
 104475157.12148  81409346.43446  19880938.2664                   19880947.6914
 127974381.62846  99720195.42643  24352673.0704                   24352682.5864
 117662305.03547  91684970.91445  22390388.8754                   22390399.3204
 115831171.78048  90258144.82045  22041918.6174                   22041926.5554
 11  7 26  0 19 30.0000000  0  8G28G10G17G09G04G20G27G02
 115894550.84947  90307532.96845  22053992.6804                   22054001.4924
 121904124.65346  94990191.90644  23197538.9774                   23197551.6994
 112991360.772 7                  21501526.578
 116044033.58847  90424011.99845  22082452.1484                   22082461.9574
 104471662.53448  81406623.37846  19880273.3134                   19880282.7974
 128018658.08646  99754696.57343  24361098.1644                   24361108.7814
 117662406.95547  91685050.33045  22390408.2114                   22390418.4224
 115757292.98647  90200576.98845  22027859.8444                   22027868.3204
 11  7 26  0 20  0.0000000  0  8G28G10G17G09G04G20G27G02
 115953702.28047  90353624.94345  22065248.6174                   22065258.0554
 121811635.11246  94918122.25844  23179938.9924                   23179951.1374
 113024654.068 7                  21507862.625
 116030704.43547  90413625.68145  22079915.2734                   22079925.2234
 104468730.66248  81404338.80246  19879715.3594                   19879724.6294
 128063413.90646  99789571.19943  24369615.5394                   24369625.7464
 117662996.00247  91685509.32745  22390520.2664                   22390531.0274
 115683729.10748  90143254.55545  22013861.1254                   22013868.7424
 11  7 26  0 20 30.0000000  0  9G28G10G17G12G09G04G20G27G02
 116013222.41547  90400004.21345  22076574.9224                   22076584.8754
 121719256.99946  94846139.48644  23162359.3524                   23162371.1454
 113058038.850 7                  21514215.281
 129527697.34717                  24648311.328
 116018018.56347  90403740.62645  22077501.3284                   22077511.5314
 104466361.62848  81402492.79346  19879264.5314                   19879274.0204
 128108648.34046  99824818.83943  24378223.4224                   24378233.6844
 117664072.46247  91686348.12545  22390725.1094                   22390735.5904
 115610482.17948  90086179.09245  21999922.5474                   21999930.2584
 11  7 26  0 21  0.0000000  0  9G28G10G17G12G09G04G20G27G02
 116073111.44647  90446670.92545  22087971.4844                   22087981.4184
 121626994.14146  94774246.49944  23144801.9774                   23144814.7424
 113091515.811 7                  21520585.805
 129430828.873 6                  24629877.078
 116005976.33047  90394357.11545  22075209.2344                   22075219.5474
 104464555.01548  81401085.03546  19878920.8204                   19878930.2734
 128154360.70946  99860438.85543  24386922.1884                   24386931.6454
 117665636.17447  91687566.58945  22391022.9924                   22391032.9534
 115537553.70348  90029351.77245  21986044.7114                   21986053.0164
 11  7 26  0 21 30.0000000  0  9G28G10G17G12G09G04G20G27G02
 116133367.95147  90493623.98745  22099438.1254                   22099447.6684
 121534848.56246  94702444.88044  23127268.0004                   23127279.7304
 113125083.235 8                  21526973.156
 129333939.126 7                  24611439.656
 115994576.58747  90385474.24745  22073040.4614                   22073050.2774
 104463308.88748  81400114.02346  19878683.7664                   19878693.0634
 128200548.76346  99896429.57843  24395710.8594                   24395721.0164
 117667685.40747  91689163.37945  22391412.7504                   22391423.2234
 115464943.88647  89972772.75545  21972227.7734                   21972235.5084
 11  7 26  0 22  0.0000000  0  9G28G10G17G12G09G04G20G27G02
 116193991.65947  90540863.18745  22110974.3054                   22110983.7894
 121442823.64047  94630737.24344  23109755.8134                   23109768.1914
 113158741.281 7                  21533378.367
 129237029.467 6                  24592998.094
 115983819.43547  90377092.09945  22070993.2274                   22071003.5744
 104462622.86448  81399579.45446  19878553.2424                   19878562.5434
 128247211.92446  99932790.43543  24404590.7194                   24404601.9184
 117670219.97047  91691138.34945  22391895.3524                   22391905.4534
 115392653.73148  89916442.83045  21958471.1724                   21958479.1214
 11  7 26  0 22 30.0000000  0  9G28G10G17G12G09G04G20G27G02
 116254981.92947  90588388.00245  22122580.5004                   22122589.8164
 121350922.58846  94559126.14544  23092267.4844                   23092279.0784
 113192489.487 7                  21539800.008
 129140101.494 7                  24574553.313
 115973704.78847  90369210.58345  22069068.4144                   22069078.6524
 104462495.63348  81399480.30046  19878529.0944                   19878538.2424
 128294348.82246  99969520.49142  24413560.3984                   24413570.6764
 117673239.02647  91693490.84245  22392469.7194                   22392480.0044
 115320684.24748  89860362.77145  21944775.5784                   21944783.9104
 11  7 26  0 23  0.0000000  0  9G28G10G17G12G09G04G20G27G02
 116316338.67547  90636198.37845  22134256.1884                   22134265.9774
 121259148.62846  94487614.07944  23074803.1024                   23074814.0904
 113226327.729 7                  21546239.438
 129043157.370 7                  24556105.711
 115964232.14947  90361829.33845  22067265.9844                   22067276.1024
 104462926.34348  81399815.92046  19878610.8134                   19878620.3754
 128341957.90446 100006618.49542  24422619.7814                   24422630.4414
 117676741.71147  91696220.18745  22393135.9844                   22393146.6094
 115249036.50048  89804533.41345  21931141.8204                   21931149.7384
 11  7 26  0 23 30.0000000  0  9G28G10G17G12G09G04G20G27G02
 116378061.75647  90684294.21145  22146002.2504                   22146011.1884
 121167505.24947  94416203.78944  23057364.2734                   23057376.8914
 113260256.238 8                  21552696.008
 128946198.645 7                  24537655.414
 115955401.95747  90354948.70645  22065585.2344                   22065595.5594
 104463914.77848  81400586.12546  19878799.0784                   19878808.4304
 128390038.49646 100044083.90342  24431769.7114                   24431780.0664
 117680727.97947  91699326.34945  22393894.8284                   22393905.0354
 115177711.99748  89748955.93745  21917569.1174                   21917577.4384
 11  7 26  0 24  0.0000000  0  9G28G10G17G12G09G04G20G27G02
 116440150.39547  90732674.88445  22157817.1414                   22157826.9224
 121075995.47847  94344897.56644  23039950.8054                   23039962.8284
 113294274.661 7                  21559169.445
 128849226.583 7                  24519201.883
 115947213.45247  90348568.07645  22064027.6174                   22064037.3524
 104465459.48648  81401789.79146  19879093.0004                   19879102.4024
 128438589.67145 100081915.93342  24441007.6334                   24441019.0084
 117685196.95447  91702808.63845  22394745.3674                   22394755.9064
 115106711.33048  89693630.79845  21904057.7584                   21904066.1954
 11  7 26  0 24 30.0000000  0  9G28G10G17G12G09G04G20G27G02
 116502604.94347  90781340.68745  22169702.3134                   22169711.1414
 120984623.40547  94273698.64644  23022562.8914                   23022575.0664
 113328383.410 7                  21565660.227
 128752243.615 6                  24500747.117
 115939666.86547  90342687.63645  22062591.0084                   22062601.1954
 104467560.18948  81403426.70246  19879492.7734                   19879502.0784
 128487610.447 5                  24450337.516
 117690148.34547  91706666.83445  22395687.3134                   22395697.4884
 115036036.46248  89638559.52545  21890608.8834                   21890616.8714
 11  7 26  0 25  0.0000000  0  9G28G10G17G12G09G04G20G27G02
 116565423.61247  90830290.22545  22181656.2734                   22181664.9024
 120893391.25347  94202608.72244  23005201.8524                   23005213.6484
 113362580.859 7                  21572168.055
 128655250.398 6                  24482289.250
 115932760.80148  90337306.28945  22061276.9304                   22061287.2704
 104470214.47248  81405494.98346  19879997.6724                   19880007.1414
 128537098.240 5                  24459753.547
 117695580.38647  91710899.57245  22396721.3204                   22396731.6804
 114965687.10547  89583741.88846  21877222.1094                   21877229.9574
 11  7 26  0 25 30.0000000  0  9G28G10G17G12G09G04G20G27G02
 116628606.90847  90879523.88045  22193679.7424                   22193688.9384
 120802303.16547  94131631.09444  22987868.2894                   22987879.9414
 113396868.261 7                  21578692.656
 128558249.863 6                  24463830.656
 115926496.08247  90332424.69245  22060085.0084                   22060094.9694
 104473422.89948  81407995.06146  19880608.3204                   19880617.5514
 128587052.89755 100197573.49252  24469259.8204                   24469271.6644
 117701493.36247  91715507.05145  22397846.1024                   22397856.3914
 114895665.13748  89529179.36945  21863897.0554                   21863905.0044
 11  7 26  0 26  0.0000000  0  9G28G10G17G12G09G04G20G27G02
 116692154.12747  90929041.11845  22205772.1644                   22205781.9494
 120711361.75647  94060767.76744  22970562.4224                   22970574.0784
 113431244.877 7                  21585234.102
 128461242.480 6                  24445370.766
 115920872.02747  90328042.32945  22059014.6724                   22059024.9264
 104477183.48348  81410925.39846  19881324.1564                   19881333.1414
 128637472.71545 100236861.66942  24478855.2114                   24478866.3324
 117707886.17347  91720488.43545  22399062.9774                   22399073.2154
 114825971.30848  89474872.52245  21850634.6254                   21850642.7274
 11  7 26  0 26 30.0000000  0  9G28G10G17G12G09G04G20G27G02
 116756065.01947  90978841.73245  22217934.2114                   22217943.7854
 120620570.62347  93990021.52944  22953285.3594                   22953297.3914
 113465710.855 7                  21591792.594
 128364230.401 6                  24426908.883
 115915888.38147  90324158.96445  22058066.0634                   22058076.0904
 104481495.87748  81414285.71846  19882144.7034                   19882153.8594
 128688356.89246 100276511.56842  24488538.9144                   24488548.3484
 117714758.14947  91725843.19945  22400370.7194                   22400380.6914
 114756606.60848  89420822.15446  21837434.9774                   21837442.7814
 11  7 26  0 27  0.0000000  0  9G28G10G17G12G09G04G20G27G02
 116820338.80047  91028925.11945  22230164.7734                   22230174.5784
 120529933.18547  93919395.05844  22936037.6884                   22936049.9144
 113500265.953 7                  21598368.477
 128267215.308 6                  24408448.250
 115911544.38847  90320774.02945  22057239.6174                   22057249.8324
 104486358.60148  81418074.86946  19883070.0474                   19883078.7384
 128739703.61546 100316522.04442  24498308.9224                   24498318.6374
 117722108.24047  91731570.50645  22401769.5634                   22401779.5004
 114687571.97048  89367028.97745  21824298.3754                   21824305.9344
 11  7 26  0 27 30.0000000  0  9G28G10G17G12G09G04G20G27G02
 116884975.24247  91079291.11345  22242464.9064                   22242474.1094
 120439452.58647  93848890.80344  22918819.5004                   22918832.3914
 113534910.094 8                  21604961.336
 128170199.155 6                  24389987.195
 115907839.74747  90317887.28645  22056534.6414                   22056544.8794
 104491770.79748  81422292.18046  19884099.7974                   19884109.0164
 128791511.75946 100356891.98643  24508168.1254                   24508177.8364
 117729935.96047  91737669.99645  22403258.7344                   22403268.9884
 114618868.80547  89313494.08546  21811224.4384                   21811232.0164
 11  7 26  0 28  0.0000000  0  9G28G10G17G12G09G04G20G27G02
 116949973.67147  91129939.17045  22254833.7664                   22254842.9184
 120349132.25547  93778511.45044  22901632.5554                   22901644.6804
 113569643.051 8                  21611570.500
 128073183.684 6                  24371525.539
 115904773.81647  90315498.25445  22055951.1334                   22055960.8444
 104497731.42948  81426936.85146  19885234.1174                   19885243.5824
 128843779.99246 100397620.49743  24518114.9844                   24518124.6604
 117738240.56047  91744141.08645  22404839.0704                   22404849.4534
 114550497.85848  89260218.07846  21798213.6884                   21798221.4454
 11  7 26  0 28 30.0000000  0  9G28G10G17G12G09G04G20G27G02
 117015333.86647  91180869.12245  22267271.6724                   22267280.4654
 120258975.49247  93708259.55444  22884475.7814                   22884488.1884
 113604465.195 7                  21618197.164
 127976170.856 6                  24353064.297
 115902346.62847  90313606.92445  22055489.0084                   22055499.5004
 104504239.63548  81432008.18646  19886472.3754                   19886481.4964
 128896507.18846 100438706.63943  24528148.1644                   24528157.8834
 117747021.28347  91750983.18945  22406509.9774                   22406520.4344
 114482460.09948  89207201.69846  21785266.6884                   21785274.3364
 11  7 26  0 29  0.0000000  0  9G28G10G17G12G09G04G20G27G02
 117081055.00447  91232080.30545  22279777.8204                   22279787.4064
 120168985.58347  93638137.66744  22867351.4304                   22867363.3754
 113639376.184 8                  21624840.500
 127879162.079 6                  24334603.461
 115900557.42647  90312212.72445  22055149.1254                   22055158.5864
 104511293.81448  81437504.96946  19887814.7664                   19887823.4344
 128949691.74946 100480149.11743  24538268.9454                   24538277.8954
 117756277.01847  91758195.42645  22408271.3134                   22408281.6134
 114414756.38948  89154445.61146  21772382.7814                   21772390.4964
 11  7 26  0 29 30.0000000  0  9G28G10G17G12G09G04G20G27G02
 117147136.57647  91283572.34745  22292352.5704                   22292362.9964
 120079165.99147  93568148.48244  22850259.0314                   22850271.0004
 113674375.944 8                  21631500.594
 127782159.302 6                  24316144.961
 115899405.71947  90311315.28745  22054929.3524                   22054939.8404
 104518893.17948  81443426.57246  19889260.8524                   19889270.1134
 129003332.42346 100521947.06943  24548476.4064                   24548486.4654
 117766007.03747  91765777.25545  22410122.6884                   22410133.1804
 114347387.85947  89101950.70546  21759563.6334                   21759570.9264
 11  7 26  0 30  0.0000000  0  9G28G10G17G12G09G04G20G27G02
 117213577.97047  91335344.79945  22304996.2664                   22305006.6024
 119989519.98647  93498294.55744  22833200.1644                   22833211.6294
 113709464.504 7                  21638177.891
 127685164.334 6                  24297686.969
 115898890.97747  90310914.17245  22054832.0474                   22054841.9414
 104527036.51448  81449772.04846  19890810.4694                   19890819.2774
 129057427.87446 100564099.35143  24558769.7664                   24558781.2544
 117776210.44547  91773727.94345  22412064.4064                   22412074.6564
 114280355.35847  89049717.64746  21746806.8914                   21746815.0434
 11  7 26  0 30 30.0000000  0  9G28G10G17G12G09G04G20G27G02
 117280379.03747  91387397.54445  22317708.1484                   22317718.6294
 119900051.03947  93428578.59144  22816174.2664                   22816185.4964
 113744641.893 8                  21644871.734
 127588178.995 7                  24279231.797
 115899012.81047  90311009.10045  22054854.9304                   22054865.4064
 104535722.89748  81456540.67946  19892463.5234                   19892472.5394
 129111976.57046 100606604.81543  24569150.3054                   24569161.1254
 117786886.44247  91782046.89545  22414096.2114                   22414106.8204
 114213659.82448  88997747.15446  21734115.3444                   21734123.7114
 11  7 26  0 31  0.0000000  0  9G28G10G17G12G09G04G20G27G02
 117347539.63047  91439730.43845  22330488.7814                   22330499.2034
 119810762.89447  93359003.52144  22799183.8984                   22799195.4344
 113779908.905 8                  21651582.641
 127491205.609 6                  24260777.828
 115899770.88347  90311599.78045  22054999.2734                   22055009.3484
 104544951.67748  81463731.95446  19894219.6174                   19894228.9064
 129166977.88346 100649462.99543  24579617.7194                   24579626.7274
 117798034.62847  91790733.78345  22416217.9534                   22416228.0664
 114147303.05747  88946040.64546  21721488.1174                   21721496.0004
 11  7 26  0 31 30.0000000  0  8G28G10G17G12G09G04G27G02
 117415059.05647  91492342.92445  22343337.4534                   22343347.3524
 119721659.04447  93289572.07144  22782227.8524                   22782238.5634
 113815265.323 8                  21658310.961
 127394246.224 6                  24242327.141
 115901164.70947  90312685.86445  22055264.5234                   22055274.0314
 104554721.53448  81471344.84946  19896078.6024                   19896087.8594
 117809654.19548  91799787.99845  22418429.1644                   22418438.7464
 114081285.81648  88894598.70746  21708925.2504                   21708933.1024
 11  7 26  0 32  0.0000000  0  8G28G10G17G12G09G04G27G02
 117482935.95247  91545233.96145  22356253.7424                   22356263.6764
 119632741.96047  93220286.12144  22765307.1334                   22765318.5084
 113850710.287 8                  21665055.469
 127297301.755 6                  24223879.391
 115903192.58447  90314266.02145  22055650.4304                   22055660.5514
 104565030.45148  81479377.79346  19898040.5784                   19898049.6914
 117821743.23447  91809208.02645  22420729.6254                   22420739.8204
 114015607.91947  88843421.18046  21696427.0944                   21696434.7814
 11  7 26  0 32 30.0000000  0  8G28G10G17G12G09G04G27G02
 117551169.49147  91598402.88145  22369237.5314                   22369247.6684
 119544014.81547  93151148.14344  22748423.2344                   22748433.3164
 113886243.463 8                  21671817.938
 127200373.823 6                  24205435.063
 115905853.63447  90316339.56445  22056157.0394                   22056166.8524
 104575876.94748  81487829.62746  19900104.6024                   19900113.4104
 117834300.65947  91818993.02545  22423119.1724                   22423129.3594
 113950270.26748  88792508.79846  21683994.0314                   21684001.8484
 11  7 26  0 33  0.0000000  0  8G28G10G17G12G09G04G27G02
 117619759.09647  91651849.27445  22382289.8674                   22382299.1054
 119455480.69947  93082160.58944  22731575.7814                   22731586.4184
 113921865.212 8                  21678596.375
 127103464.371 6                  24186993.000
 115909147.26247  90318906.02245  22056783.2274                   22056793.6334
 104587259.80148  81496699.39846  19902270.5704                   19902279.5354
 117847325.48747  91829142.24345  22425597.3984                   22425607.9344
 113885273.89648  88741862.34546  21671625.4454                   21671633.0594
 11  7 26  0 33 30.0000000  0  8G28G10G17G12G09G04G27G02
 117688704.11747  91705572.62144  22395410.0394                   22395419.0164
 119367143.18747  93013326.24744  22714764.8054                   22714776.2624
 113957575.301 8                  21685391.563
 127006575.692 6                  24168556.172
 115913072.71147  90321964.80945  22057530.5164                   22057540.2774
 104599177.94848  81505986.28246  19904538.3444                   19904547.5704
 117860816.79447  91839654.94245  22428164.4144                   22428174.9734
 113820619.58948  88691482.44246  21659321.7274                   21659329.7424
 11  7 26  0 34  0.0000000  0  8G28G10G17G12G09G04G27G02
 117758003.94747  91759572.44844  22408597.1644                   22408606.1334
 119279006.07147  92944648.07044  22697993.1884                   22698004.3914
 113993373.820 8                  21692203.891
 126909709.224 6                  24150122.992
 115917629.14847  90325515.27545  22058397.7734                   22058407.9414
 104611630.10248  81515689.28646  19906908.2114                   19906916.9734
 117874773.52447  91850530.30245  22430820.9304                   22430831.0274
 113756308.19648  88641369.73546  21647084.1414                   21647092.1094
 11  7 26  0 34 30.0000000  0  8G28G10G17G12G09G04G27G02
 117827657.79247  91813848.13244  22421851.9694                   22421861.3754
 119191072.42847  92876128.44644  22681259.8834                   22681270.5314
 114029261.405 8                  21699033.633
 126812867.194 6                  24131694.375
 115922815.92247  90329556.91845  22059384.4924                   22059394.6724
 104624615.10348  81525807.49146  19909379.0864                   19909388.0274
 117889194.74547  91861767.61645  22433564.9224                   22433575.0354
 113692340.95648  88591525.19546  21634911.1414                   21634919.1024
 11  7 26  0 35  0.0000000  0  8G28G10G17G12G09G04G27G02
 117897664.81247  91868399.00144  22435173.9224                   22435184.2464
 119103345.59947  92807769.95844  22664566.0164                   22664577.2664
 114065237.187 8                  21705879.219
 126716051.178 6                  24113271.359
 115928631.62647  90334088.63845  22060491.2664                   22060501.6644
 104638131.10548  81536339.46646  19911950.9304                   19911960.1604
 117904079.11547  91873365.81545  22436397.3914                   22436407.7504
 113628717.94347  88541948.89746  21622804.1254                   21622811.8404
 11  7 26  0 35 30.0000000  0  8G28G10G17G12G09G04G27G02
 117968024.33347  91923224.55645  22448562.9144                   22448573.1134
 119015828.74747  92739575.09344  22647911.7114                   22647922.9184
 114101301.139 8                  21712741.570
 126619263.013 6                  24094853.094
 115935075.32347  90339109.69745  22061717.3364                   22061727.5044
 104652176.60648  81547284.03246  19914624.0944                   19914633.0744
 117919425.48648  91885323.99945  22439317.5474                   22439327.8404
 113565440.15148  88492641.58546  21610762.9224                   21610770.5084
 11  7 26  0 36  0.0000000  0  8G28G10G17G12G09G04G27G02
 118038735.97847  91978324.48944  22462019.3204                   22462029.4844
 118928525.29647  92671546.52544  22631298.8134                   22631309.7774
 114137453.737 8                  21719621.445
 126522504.632 6                  24076440.289
 115942146.49047  90344619.70745  22063063.1024                   22063073.1844
 104666750.64848  81558640.44946  19917397.0634                   19917406.1684
 117935232.78247  91897641.35945  22442325.7584                   22442335.8404
 113502508.25248  88443603.81346  21598787.3984                   21598794.8204
 11  7 26  0 36 30.0000000  0  8G28G10G17G12G09G04G27G02
 118109798.61347  92033697.92044  22475541.5474                   22475551.9924
 118841438.49447  92603686.75145  22614726.3054                   22614737.4024
 114173694.966 8                  21726518.203
 126425778.208 6                  24058033.781
 115949844.28847  90350617.99745  22064527.6644                   22064538.0864
 104681851.80948  81570407.60846  19920270.4384                   19920280.2154
 117951499.93447  91910317.04245  22445421.5084                   22445431.6844
 113439923.39048  88394836.45046  21586877.6644                   21586885.5744
 11  7 26  0 37  0.0000000  0  8G28G10G17G12G09G04G27G02
 118181211.37447  92089344.18944  22489131.0634                   22489141.3874
 118754571.98747  92535998.65845  22598196.4454                   22598207.4304
 114210025.008 7                  21733430.953
 126329085.831 7                  24039634.641
 115958167.69447  90357103.78545  22066111.7734                   22066121.6914
 104697478.79248  81582584.48846  19923244.5004                   19923253.5944
 117968225.72947  91923350.11145  22448604.2424                   22448614.2854
 113377686.53748  88346340.26146  21575034.1884                   21575042.0514
 11  7 26  0 37 30.0000000  0  8G28G10G17G12G09G04G27G02
 118252973.70447  92145262.82144  22502787.4224                   22502796.8554
 118667928.90147  92468484.66145  22581708.4924                   22581720.1724
 114246443.707 8                  21740361.664
 126232429.031 7                  24021240.688
 115967115.14447  90364075.83445  22067814.5314                   22067824.1484
 104713629.72848  81595169.64446  19926317.8674                   19926326.9924
 117985408.78347  91936739.48145  22451873.8984                   22451884.3554
 113315797.92247  88298115.44146  21563257.3834                   21563264.8634
 11  7 26  0 38  0.0000000  0  8G28G10G17G12G09G04G27G02
 118325084.72647  92201453.16145  22516509.7504                   22516519.1334
 118581513.00847  92401147.69845  22565264.2584                   22565275.5044
 114282951.149 8                  21747308.820
 126135809.860 7                  24002854.789
 115976685.92947  90371533.59945  22069635.5314                   22069645.5634
 104730303.46448  81608162.17046  19929490.4924                   19929499.5514
 118003048.17847  91950484.44645  22455230.3364                   22455240.4104
 113254258.73448  88250162.88446  21551546.7034                   21551553.9304
 11  7 26  0 38 30.0000000  0  8G28G10G17G12G09G04G27G02
 118397543.82347  92257914.70345  22530298.8914                   22530308.3554
 118495326.97847  92333989.84144  22548863.2974                   22548874.7734
 114319547.541 7                  21754272.859
 126039230.423 7                  23984476.094
 115986879.07447  90379476.33245  22071574.8984                   22071585.2934
 104747498.58148  81621560.97646  19932762.7734                   19932771.8404
 118021142.64847  91964584.00445  22458673.6484                   22458683.9104
 113193069.13948  88202482.75146  21539902.7194                   21539910.8244
 11  7 26  0 39  0.0000000  0  8G28G10G17G12G09G04G27G02
 118470350.12347  92314646.80944  22544153.4064                   22544163.1724
 118409374.36247  92267013.86044  22532507.3914                   22532517.4654
 114356232.682 8                  21761253.750
 125942692.281 7                  23966105.500
 115997693.19647  90387902.92345  22073633.3204                   22073642.7894
 104765213.22548  81635364.60046  19936133.9384                   19936142.8634
 118039690.78547  91979037.08544  22462203.2504                   22462213.9064
 113132229.84648  88155075.57646  21528325.1254                   21528332.6724
 11  7 26  0 39 30.0000000  0  8G28G10G17G12G09G04G27G02
 118543502.72247  92371648.76144  22558073.4614                   22558083.8364
 118323658.85547  92200222.62244  22516195.8444                   22516206.1914
 114393007.097 8                  21768251.875
 125846198.074 7                  23947743.375
 116009127.45147  90396812.73845  22075809.1254                   22075818.7074
 104783446.56148  81649572.39746  19939603.5314                   19939612.3204
 118058691.64747  91993842.93645  22465819.2034                   22465829.8164
 113071742.43648  88107942.59746  21516814.7734                   21516822.2304
 11  7 26  0 40  0.0000000  0  8G28G10G17G12G09G04G27G02
 118617000.65647  92428919.82844  22572059.5634                   22572069.7074
 118238183.36947  92133618.41944  22499930.5004                   22499941.2194
 114429870.621 8                  21775266.820
 125749749.695 7                  23929389.773
 116021180.46247  90406204.70445  22078102.4384                   22078112.4694
 104802196.74648  81664182.93246  19943171.4304                   19943180.5824
 118078143.75747  92009000.39445  22469520.8594                   22469531.3094
 113011606.84048  88061083.74846  21505371.4064                   21505378.4804
 11  7 26  0 40 30.0000000  0  8G28G10G17G12G09G04G27G02
 118690843.29947  92486459.48145  22586111.4454                   22586122.4964
 118152951.60847  92067204.15244  22483711.7584                   22483722.3204
 114466823.466 8                  21782298.430
 125653348.810 7                  23911045.078
 116033851.04047  90416077.89945  22080513.5864                   22080523.6374
 104821462.25248  81679195.01946  19946837.8594                   19946846.8204
 118098045.91247  92024508.54545  22473307.7114                   22473318.3594
 112951824.18448  88014499.92346  21493994.9924                   21494002.6334
 11  7 26  0 41  0.0000000  0  8G28G10G17G12G09G04G27G02
 118765029.68447  92544266.98444  22600228.2894                   22600239.5744
 118067966.79547  92000982.29945  22467538.9774                   22467550.5434
 114503865.605 8                  21789347.352
 125556997.444 7                  23892709.445
 116047138.17947  90426431.52845  22083042.1484                   22083052.2664
 104841241.50648  81694607.42446  19950601.3594                   19950610.4774
 118118396.97047  92040366.48645  22477180.8524                   22477191.3324
 112892395.11148  87968191.61346  21482685.8054                   21482693.6644
 11  7 26  0 41 30.0000000  0  8G28G10G17G12G09G04G27G02
 118839558.91147  92602341.62544  22614410.6724                   22614421.0594
 117983232.20347  91934955.44045  22451414.6484                   22451425.4694
 114540997.227 8                  21796413.313
 125460697.769 7                  23874384.344
 116061040.36147  90437264.40845  22085687.6564                   22085697.8914
 104861532.97448  81710418.95046  19954462.8444                   19954472.2154
 118139195.24347  92056572.90945  22481138.9384                   22481148.9344
 112833319.90748  87922159.04246  21471443.9534                   21471451.8094
 11  7 26  0 42  0.0000000  0  8G28G10G17G12G09G04G27G02
 118914430.02347  92660682.65544  22628658.7274                   22628668.4384
 117898751.16747  91869126.14544  22435338.1564                   22435348.5594
 114578218.476 8                  21803496.508
 125364451.676 6                  23856069.398
 116075556.45247  90448575.64645  22088449.9534                   22088459.8834
 104882335.02448  81726628.33546  19958421.4924                   19958430.9614
 118160439.36447  92073126.75545  22485181.0004                   22485191.1454
 112774599.08548  87876402.60546  21460270.1094                   21460277.4384
 11  7 26  0 42 30.0000000  0  8G28G10G17G12G09G04G27G02
 118989641.96147  92719289.24544  22642971.3984                   22642981.5124
 117814527.27347  91803497.20544  22419310.6254                   22419321.1134
 114615529.630 8                  21810596.461
 125268261.385 6                  23837764.922
 116090685.08147  90460364.19045  22091328.8834                   22091339.0594
 104903646.03248  81743234.31746  19962476.6804                   19962485.8444
 118182127.84147  92090026.85145  22489308.5864                   22489318.9024
 112716233.99948  87830923.36946  21449163.6884                   21449170.8914
 11  7 26  0 43  0.0000000  0  8G28G10G17G12G09G04G27G02
 119065193.86547  92778160.78644  22657349.1884                   22657359.0514
 117730563.44047  91738070.93544  22403332.8284                   22403343.4064
 114652930.251 8                  21817713.508
 125172128.726 6                  23819471.008
 116106424.59847  90472628.75045  22094323.9774                   22094333.9264
 104925464.18248  81760235.46746  19966628.5704                   19966637.6804
 118204259.38247  92107272.18445  22493520.1644                   22493530.5004
 112658224.63848  87785721.30646  21438124.8984                   21438132.2814
 11  7 26  0 43 30.0000000  0  8G28G10G17G12G09G04G27G02
 119141084.67847  92837296.43244  22671790.3834                   22671800.4804
 117646863.26147  91672850.12444  22387405.5704                   22387416.1604
 114690420.784 8                  21824847.664
 125076055.813 7                  23801189.883
 116122773.82347  90485368.40545  22097435.2734                   22097445.2194
 104947787.93348  81777630.59746  19970876.6414                   19970885.8324
 118226832.61247  92124861.68945  22497815.7034                   22497825.8404
 112600571.52548  87740796.84446  21427153.8914                   21427161.2304
 11  7 26  0 44  0.0000000  0  8G28G10G17G12G09G04G27G02
 119217313.41347  92896695.38544  22686296.1954                   22686306.9924
 117563429.94347  91607837.25945  22371528.6334                   22371539.2774
 114728001.044 8                  21831998.773
 124980044.583 6                  23782919.391
 116139731.22947  90498581.94845  22100661.9614                   22100672.2934
 104970615.38148  81795418.21146  19975220.6644                   19975229.7734
 118249845.84047  92142794.05845  22502194.6954                   22502205.0594
 112543275.34148  87696150.50346  21416250.3984                   21416258.1724
 11  7 26  0 44 30.0000000  0  8G28G10G17G12G09G04G27G02
 119293879.26447  92956357.01444  22700865.8674                   22700875.9774
 117480266.63747  91543034.78345  22355702.9844                   22355713.8834
 114765671.358 8                  21839167.648
 124884097.093 7                  23764660.992
 116157295.35847  90512268.26545  22104004.5704                   22104014.6024
 104993945.04848  81813597.15746  19979660.1804                   19979669.3204
 118273297.66447  92161068.19245  22506657.5164                   22506668.0904
 112486336.52948  87651782.62546  21405415.5234                   21405422.9344
 11  7 26  0 45  0.0000000  0  8G28G10G17G12G09G04G27G02
 119370781.28347  93016280.58944  22715500.3754                   22715509.3324
 117397376.93447  91478445.49645  22339929.5314                   22339940.5234
 114803432.302 8                  21846353.586
 124788215.734 7                  23746415.461
 116175464.98747  90526426.40945  22107461.7344                   22107472.4614
 105017775.62148  81832166.42846  19984194.8914                   19984204.1024
 118297187.15547  92179683.35545  22511204.2584                   22511214.0704
 112429756.24448  87607694.11146  21394648.8134                   21394656.2344
 11  7 26  0 45 30.0000000  0  8G28G10G17G12G09G04G27G02
 119448018.13547  93076465.05244  22730198.1024                   22730207.2234
 117314763.93547  91414071.82245  22324209.1024                   22324219.6484
 114841283.784 8                  21853556.203
 124692402.392 7                  23728183.156
 116194238.37147  90541054.99445  22111034.2114                   22111044.5124
 105042104.91848  81851124.30646  19988824.1644                   19988833.7704
 118321512.39247  92198638.06045  22515832.2034                   22515842.6024
 112373534.72647  87563885.16046  21383950.2894                   21383957.3484
 11  7 26  0 46  0.0000000  0  8G28G10G17G12G09G04G27G02
 119525589.11747  93136909.89644  22744958.6884                   22744969.2114
 117232431.05247  91349916.41545  22308541.2734                   22308552.0704
 114879226.103 7                  21860776.180
 124596659.287 7                  23709963.000
 116213614.22147  90556153.03745  22114721.9694                   22114731.9064
 105066931.69548  81870469.83446  19993548.7894                   19993558.0554
 118346272.11347  92217931.33845  22520544.4774                   22520555.0004
 112317672.61347  87520356.26446  21373319.7114                   21373327.2974
 11  7 26  0 46 30.0000000  0  8G28G10G17G12G09G04G27G02
 119603493.09347  93197614.21544  22759783.9844                   22759795.3094
 117150381.43447  91285981.74145  22292927.8364                   22292938.6524
 114917259.082 7                  21868013.422
 124500988.298 7                  23691757.422
 116233590.86347  90571719.22445  22118523.1954                   22118533.4104
 105092253.70048  81890201.26446  19998367.7504                   19998376.6214
 118371464.48647  92237561.73245  22525338.1564                   22525348.4224
 112262170.21147  87477107.66546  21362758.1094                   21362765.5784
 11  7 26  0 47  0.0000000  0  8G28G10G17G12G09G04G27G02
 119681729.00747  93258577.19844  22774670.9844                   22774682.6094
 117068618.41047  91222270.39445  22277368.4454                   22277379.3554
 114955382.720 7                  21875268.328
 124405391.542 6                  23673566.102
 116254166.60147  90587752.24945  22122438.3204                   22122448.3364
 105118069.21648  81910317.24546  20003280.1174                   20003289.4964
 118397087.81847  92257527.94545  22530214.3054                   22530224.9574
 112207027.77148  87434139.55146  21352264.6564                   21352272.1644
 11  7 26  0 47 30.0000000  0  8G28G10G17G12G09G04G27G02
 119760295.69747  93319797.91944  22789621.7584                   22789631.9804
 116987145.48047  91158785.09445  22261864.2194                   22261875.4734
 114993597.361 7                  21882540.086
 124309871.152 6                  23655388.852
 116275339.67547  90604250.71945  22126467.7814                   22126477.8634
 105144376.39648  81930816.34346  20008285.8984                   20008295.5744
 118423140.72647  92277828.89145  22535171.8594                   22535181.9964
 112152246.08648  87391452.55246  21341840.1644                   21341847.4414
 11  7 26  0 48  0.0000000  0  8G28G10G17G12G09G04G27G02
 119839191.99647  93381275.44044  22804634.9694                   22804646.2304
 116905966.34547  91095528.69745  22246416.8674                   22246427.3914
 115031903.600 7                  21889829.648
 124214429.418 6                  23637227.211
 116297108.92147  90621213.74745  22130610.4534                   22130620.0594
 105171173.98048  81951697.58246  20013385.2814                   20013394.9964
 118449622.11647  92298463.71344  22540211.4614                   22540221.4694
 112097825.91348  87349047.24246  21331484.1804                   21331491.6844
 11  7 26  0 48 30.0000000  0  8G28G10G17G12G09G04G27G02
 119918417.00047  93443009.08444  22819711.2894                   22819723.1684
 116825083.89047  91032503.46845  22231025.7424                   22231035.7774
 115070301.454 7                  21897136.938
 124119068.431 7                  23619080.078
 116319472.78147  90638640.09545  22134866.1804                   22134876.4064
 105198460.07248  81972959.48746  20018577.8444                   20018587.2194
 118476529.85947  92319430.76545  22545331.8444                   22545342.0234
 112043767.46248  87306923.81146  21321197.3204                   21321204.4734
 11  7 26  0 49  0.0000000  0  8G28G10G17G12G09G04G27G02
 119997969.44147  93504997.90844  22834849.7114                   22834862.1174
 116744501.32047  90969711.91145  22215690.8674                   22215701.2974
 115108790.807 7                  21904461.094
 124023790.239 6                  23600949.289
 116342429.15247  90656528.16745  22139234.3594                   22139244.7464
 105226232.46048  81994600.32346  20023862.9924                   20023872.2624
 118503862.22647  92340728.68545  22550532.9844                   22550543.4614
 111990070.95048  87265082.40446  21310979.0864                   21310986.4454
 11  7 26  0 49 30.0000000  0  8G28G10G17G12G09G04G27G02
 120077848.39647  93567241.16444  22850050.0474                   22850061.6294
 116664221.91847  90907156.60145  22200414.2814                   22200424.9884
 115147372.315 7                  21911803.016
 123928597.178 6                  23582834.852
 116365976.53147  90674876.76045  22143715.8674                   22143725.4264
 105254489.69548  82016618.95746  20029240.2034                   20029249.0474
 118531617.85347  92362356.43245  22555814.2344                   22555824.9304
 111936737.21548  87223523.70046  21300830.1644                   21300837.4224
 11  7 26  0 50  0.0000000  0  8G28G10G17G12G09G04G27G02
 120158052.66747  93629737.92044  22865313.0634                   22865323.3594
 116584248.95947  90844840.06945  22185196.1884                   22185206.2304
 115186046.054 7                  21919162.438
 123833491.238 7                  23564736.367
 116390112.91447  90693684.32345  22148308.0944                   22148318.5634
 105283229.67748  82039013.77146  20034709.3674                   20034718.2894
 118559794.78647  92384312.45344  22561176.3914                   22561187.0084
 111883766.64848  87182247.97146  21290749.9144                   21290757.1994
 11  7 26  0 50 30.0000000  0  8G28G10G17G12G09G04G27G02
 120238581.12647  93692487.27744  22880637.0394                   22880647.0824
 116504585.96447  90782765.07245  22170036.4534                   22170046.8204
 115224811.994 7                  21926539.031
 123738474.993 6                  23546655.320
 116414837.05747  90712949.88545  22153013.3914                   22153023.0704
 105312450.98848  82061783.64746  20040269.7504                   20040279.0554
 118588391.75747  92406595.77345  22566618.3444                   22566628.7464
 111831159.83048  87141255.70146  21280739.3524                   21280746.3134
 11  7 26  0 51  0.0000000  0  8G28G10G17G12G09G04G27G02
 120319432.41047  93755488.16144  22896022.2814                   22896033.6604
 116425235.77447  90720933.81545  22154936.4844                   22154946.5314
 115263670.546 7                  21933933.781
 123643550.042 7                  23528592.063
 116440146.81747  90732671.76945  22157829.3754                   22157839.4574
 105342151.18848  82084926.68746  20045921.5164                   20045930.7814
 118617406.75747  92429204.83745  22572139.7114                   22572150.1374
 111778916.61648  87100546.76546  21270797.9304                   21270805.4144
 11  7 26  0 51 30.0000000  0  8G28G10G17G12G09G04G27G02
 120400605.30847  93818739.67644  22911468.5084                   22911480.5164
 116346201.84047  90659348.98245  22139897.1484                   22139907.0234
 115302621.662 7                  21941346.414
 123548718.467 7                  23510546.625
 116466039.98147  90752848.25245  22162756.5554                   22162766.6804
 105372328.15648  82108441.23346  20051663.9694                   20051673.2704
 118646837.90647  92452138.17445  22577740.4924                   22577750.8674
 111727037.21848  87060121.31346  21260924.8754                   21260932.3674
 11  7 26  0 52  0.0000000  0  8G28G10G17G12G09G04G27G02
 120482098.74347  93882240.98944  22926976.9384                   22926988.1914
 116267487.60747  90598013.27145  22124918.0314                   22124928.2464
 115341665.908 7                  21948775.578
 123453983.044 7                  23492518.781
 116492515.24447  90773478.31645  22167795.1414                   22167805.2424
 105402980.80148  82132326.43946  20057496.8834                   20057506.2304
 118676684.04747  92475394.87945  22583419.8054                   22583430.5434
 111675522.64748  87019980.15446  21251122.1564                   21251129.8324
 11  7 26  0 52 30.0000000  0  8G28G10G17G12G09G04G27G02
 120563911.73047  93945991.28344  22942545.7424                   22942555.1994
 116189096.16847  90536929.11045  22110000.8284                   22110010.8914
 115380803.299 8                  21956223.445
 123359345.883 7                  23474510.531
 116519570.57047  90794560.39745  22172943.2894                   22172953.3874
 105434107.01748  82156580.66946  20063419.9064                   20063429.2934
 118706943.09147  92498973.32445  22589178.0474                   22589188.3164
 111624373.33448  86980123.61346  21241389.0314                   21241396.1254
 11  7 26  0 53  0.0000000  0  8G28G10G17G12G09G04G27G02
 120646042.52047  94009989.18944  22958174.2584                   22958185.6094
 116111030.62447  90476098.89945  22095144.8984                   22095155.7584
 115420034.051 8                  21963688.695
 123264808.914 7                  23456520.023
 116547204.03447  90816092.95945  22178201.3524                   22178211.9104
 105465704.45248  82181202.07546  20069432.7974                   20069441.8954
 118737613.16447  92522872.03845  22595013.9614                   22595024.5204
 111573588.84548  86940551.34046  21231724.5554                   21231732.1214
 11  7 26  0 53 30.0000000  0  8G28G10G17G12G09G04G27G02
 120728490.15247  94074234.04144  22973863.9694                   22973875.2344
 116033294.54647  90415525.42545  22080352.1094                   22080363.2384
 115459358.443 7                  21971172.133
 123170374.234 7                  23438549.586
 116575413.67047  90838074.48245  22183569.6724                   22183580.0984
 105497771.18448  82206189.16046  20075534.7274                   20075543.7814
 118768692.62147  92547089.77645  22600928.1644                   22600939.2194
 111523170.00948  86901263.99446  21222130.3754                   21222137.4614
 11  7 26  0 54  0.0000000  0  8G28G10G17G12G09G04G27G02
 120811253.49047  94138724.87144  22989614.0784                   22989625.1484
 115955890.72947  90355210.85245  22065622.8364                   22065633.2704
 115498776.950 7                  21978673.313
 123076044.420 7                  23420599.445
 116604197.60247  90860503.49545  22189047.3674                   22189057.4884
 105530305.59848  82231540.67446  20081725.8834                   20081734.8444
 118800179.73147  92571625.14745  22606920.9774                   22606931.2194
 111473117.23748  86862261.88846  21212605.9144                   21212612.4734
 11  7 26  0 54 30.0000000  0  8G28G10G17G12G09G04G27G02
 120894331.25447  94203460.67244  23005422.7734                   23005433.6024
 115878823.00747  90295158.16845  22050957.3914                   22050967.4694
 115538289.895 7                  21986192.109
 122981821.642 7                  23402669.359
 116633554.08847  90883378.68445  22194633.6334                   22194643.9844
 105563305.88948  82257255.19946  20088005.5784                   20088014.3444
 118832072.87747  92596476.92544  22612989.2584                   22612999.6414
 111423430.98348  86823545.36746  21203150.3364                   21203157.6524
 11  7 26  0 55  0.0000000  0  8G28G10G17G12G09G04G27G02
 120977722.44847  94268440.71444  23021291.5394                   23021302.6764
 115802094.37047  90235369.71245  22036355.8834                   22036366.6884
 115577897.402 7                  21993729.070
 122887707.980 7                  23384759.961
 116663480.87747  90906698.23945  22200328.3674                   22200338.7894
 105596770.08848  82283331.21146  20094373.5394                   20094383.0124
 118864370.10447  92621643.56745  22619135.7344                   22619146.2934
 111374111.26548  86785114.46446  21193765.3444                   21193772.6454
 11  7 26  0 55 30.0000000  0  8G28G10G17G12G09G04G27G02
 121061425.10047  94333663.46244  23037219.7194                   23037231.1524
 115725707.87947  90175847.85245  22021820.2344                   22021830.7664
 115617599.453 7                  22001284.406
 122793705.707 7                  23366871.688
 116693975.88747  90930460.56645  22206131.9224                   22206141.8134
 105630695.60948  82309766.68446  20100829.5234                   20100838.7154
 118897069.19147  92647123.33645  22625357.8594                   22625368.3914
 111325157.76748  86746968.92946  21184449.8524                   21184457.1724
 11  7 26  0 56  0.0000000  0  8G28G10G17G12G09G04G27G02
 121145438.31947  94399128.25444  23053207.1094                   23053218.4924
 115649666.88447  90116595.23345  22007350.2114                   22007361.0124
 115657396.632 7                  22008857.430
 122699817.494 7                  23349005.195
 116725037.45247  90954664.36045  22212042.1564                   22212053.0944
 105665081.18348  82336560.64646  20107373.0394                   20107382.0354
 118930168.87547  92672915.27744  22631656.8134                   22631666.8134
 111276571.95448  86709109.89246  21175204.1644                   21175211.2894
 11  7 26  0 56 30.0000000  0  8G28G10G17G12G09G04G27G02
 121229760.94347  94464834.10344  23069253.2504                   23069264.6174
 115573974.53147  90057614.25645  21992946.2504                   21992956.8444
 115697289.119 7                  22016448.563
 122606045.176 7                  23331160.695
 116756663.14847  90979307.72945  22218060.5084                   22218070.7894
 105699924.30348  82363711.12546  20114003.2034                   20114012.4614
 118963667.01547  92699017.68545  22638030.9534                   22638041.9344
 111228353.66348  86671537.21946  21166028.6334                   21166035.9574
 11  7 26  0 57  0.0000000  0  8G28G10G17G12G09G04G27G02
 121314391.34647  94530779.78144  23085358.2424                   23085369.6214
 115498634.16347  89998907.55545  21978609.1954                   21978619.9884
 115737277.268 7                  22024058.367
 122512391.118 7                  23313338.992
 116788850.84047  91004389.01845  22224185.4304                   22224195.9844
 105735223.06248  82391216.64346  20120720.4534                   20120729.4144
 118997561.72147  92725429.12744  22644481.0784                   22644491.3594
 111180502.83648  86634250.89446  21156923.1724                   21156930.1214
 11  7 26  0 57 30.0000000  0  9G28G10G17G12G09G05G04G27G02
 121399328.22547  94596964.29144  23101521.6174                   23101531.5744
 115423648.87247  89940477.51945  21964340.2584                   21964350.3284
 115777361.260 7                  22031686.211
 122418857.439 7                  23295540.445
 116821598.56647  91029906.69845  22230417.4534                   22230427.4144
 129571131.91315                  24656569.281
 105770975.48848  82419075.67046  20127523.8054                   20127532.7424
 119031851.09047  92752148.07745  22651006.4224                   22651016.7344
 111133020.01148  86597251.31546  21147887.0314                   21147894.5354
 11  7 26  0 58  0.0000000  0  9G28G10G17G12G09G05G04G27G02
 121484570.10247  94663386.43744  23117742.8204                   23117753.3404
 115349021.44447  89882326.34045  21950139.3524                   21950149.6214
 115817541.110 7                  22039331.828
 122325446.477 7                  23277765.148
 116854903.80547  91055858.80645  22236754.9064                   22236765.3094
 129466068.207 6                  24636575.945
 105807179.29448  82447286.41946  20134413.1724                   20134422.1334
 119066532.99147  92779172.90644  22657605.6884                   22657616.2504
 111085904.98748  86560538.33246  21138921.4534                   21138928.5554
 11  7 26  0 58 30.0000000  0  9G28G10G17G12G09G05G04G27G02
 121570115.72747  94730045.30444  23134021.5314                   23134032.3244
 115274755.39547  89824456.75145  21936006.7814                   21936017.2194
 115857817.441 7                  22046996.453
 122232160.598 7                  23260013.047
 116888764.43747  91082243.65945  22243198.6564                   22243208.7854
 129360922.127 6                  24616568.195
 105843832.54748  82475847.38046  20141388.0634                   20141397.3244
 119101605.52247  92806502.12844  22664279.7034                   22664290.3524
 111039158.02748  86524112.16446  21130025.9694                   21130033.0634
 11  7 26  0 59  0.0000000  0  9G28G10G17G12G09G05G04G27G02
 121655964.01447  94796940.00743  23150357.2894                   23150367.8914
 115200853.87247  89766871.20845  21921943.6024                   21921953.6994
 115898190.909 7                  22054679.297
 122139002.217 7                  23242285.039
 116923179.10047  91109060.23845  22249747.9694                   22249757.8594
 129255696.516 6                  24596544.039
 105880933.72248  82504757.37846  20148448.5004                   20148457.2734
 119137067.06947  92834134.45044  22671028.3914                   22671037.9414
 110992779.87748  86487973.36546  21121200.3594                   21121207.6524
 11  7 26  0 59 30.0000000  0  9G28G10G17G12G09G05G04G27G02
 121742113.47946  94864069.40043  23166751.0164                   23166761.1914
 115127320.39547  89709572.45245  21907950.8524                   21907960.7854
 115938661.454 7                  22062380.094
 122045973.710 7                  23224582.414
 116958144.95447  91136306.31845  22256401.8674                   22256411.7624
 129150393.926 6                  24576505.109
 105918480.51348  82534014.61646  20155593.5704                   20155602.4414
 119172915.44147  92862068.21144  22677849.6414                   22677860.5084
 110946770.43348  86452121.87346  21112444.8594                   21112452.1604
 11  7 26  1  0  0.0000000  0  9G28G10G17G12G09G05G04G27G02
 121828562.87747  94931432.46443  23183202.6024                   23183211.8984
 115054157.66347  89652562.58645  21894028.1254                   21894037.9344
 115979229.322 7                  22070100.078
 121953077.159 7                  23206904.914
 116993659.80347  91163980.18345  22263159.7584                   22263170.2464
 129045016.663 7                  24556453.133
 105956470.45848  82563617.17546  20162822.7034                   20162831.0864
 119209148.71947  92890301.89144  22684745.2504                   22684755.8484
 110901129.75948  86416557.74046  21103759.8134                   21103766.9884
 11  7 26  1  0 30.0000000  0  9G28G10G17G12G09G05G04G27G02
 121915310.49947  94999027.90043  23199709.9774                   23199720.4734
 114981369.27747  89595844.39945  21880176.7664                   21880186.7774
 116019895.074 7                  22077838.961
 121860314.985 7                  23189252.750
 117029721.47747  91192080.12945  22270022.3594                   22270032.5474
 128939567.835 6                  24536385.867
 105994901.84348  82593563.70646  20170135.4534                   20170144.6134
 119245764.90547  92918833.94744  22691712.8914                   22691723.3984
 110855858.18148  86381281.20846  21095144.9304                   21095152.1174
 11  7 26  1  1  0.0000000  0  9G28G10G17G12G09G05G04G27G02
 122002354.99247  95066854.67544  23216274.3444                   23216285.5554
 114908958.45247  89539420.43245  21866397.6024                   21866407.6484
 116060658.963 7                  22085595.625
 121767690.078 7                  23171626.609
 117066328.05747  91220604.70545  22276988.2504                   22276998.6254
 128834049.352 6                  24516306.211
 106033772.80148  82623852.75846  20177532.5864                   20177541.9804
 119282762.16247  92947662.92944  22698752.9774                   22698763.5354
 110810956.06448  86346292.57646  21086600.2664                   21086607.6914
 11  7 26  1  1 30.0000000  0  9G28G10G17G12G09G05G04G27G02
 122089695.04647  95134911.76244  23232893.5164                   23232905.1134
 114836927.99947  89483292.86845  21852690.0944                   21852700.7074
 116101521.505 7                  22093371.898
 121675204.005 7                  23154026.953
 117103477.07447  91249551.95745  22284057.5554                   22284068.1414
 128728464.000 6                  24496213.539
 106073080.72148  82654482.30146  20185012.4774                   20185022.0984
 119320138.36847  92976787.18745  22705865.9924                   22705876.3554
 110766423.15648  86311591.64146  21078125.7034                   21078132.9344
 11  7 26  1  2  0.0000000  0  9G28G10G17G12G09G05G04G27G02
 122177329.35247  95203198.09544  23249570.1884                   23249582.5824
 114765281.16047  89427464.22045  21839056.2894                   21839066.7624
 116142483.011 7                  22101166.258
 121582859.435 7                  23136453.883
 117141166.06647  91278919.95945  22291229.5084                   22291239.3404
 128622814.561 6                  24476109.516
 106112823.83648  82685450.95746  20192575.5394                   20192584.5864
 119357891.61847  93006205.27245  22713049.8914                   22713059.7624
 110722259.92447  86277178.77146  21069722.0474                   21069729.1254
 11  7 26  1  2 30.0000000  0  9G28G10G17G12G09G05G04G27G02
 122265256.28746  95271712.45344  23266302.4694                   23266313.5434
 114694020.93147  89371936.85345  21825496.4534                   21825506.2194
 116183543.624 7                  22108979.492
 121490658.597 7                  23118908.055
 117179392.79547  91308706.97645  22298503.8444                   22298514.2274
 128517103.705 6                  24455992.633
 106152999.95348  82716757.02046  20200220.8444                   20200229.7934
 119396019.95547  93035915.60045  22720305.6334                   22720316.0514
 110678466.19248  86243053.81846  21061388.1724                   21061395.2074
 11  7 26  1  3  0.0000000  0  9G28G10G17G12G09G05G04G27G02
 122353474.52747  95340453.81044  23283089.7344                   23283100.6454
 114623150.71347  89316713.37645  21812010.1804                   21812020.0594
 116224703.547 7                  22116811.977
 121398604.324 7                  23101391.953
 117218154.65247  91338911.00645  22305880.2664                   22305890.1684
 128411334.042 6                  24435864.625
 106193606.98148  82748398.85946  20207948.0004                   20207957.0784
 119434521.04147  93065916.40044  22727632.0314                   22727642.5824
 110635042.28047  86209217.05046  21053124.9304                   21053132.0234
 11  7 26  1  3 30.0000000  0  9G28G10G17G12G09G05G04G27G02
 122441982.43447  95409420.90744  23299932.2344                   23299944.2384
 114552673.39647  89261796.06745  21798598.3594                   21798608.5394
 116265963.449 7                  22124663.961
 121306698.491 7                  23083902.586
 117257449.45847  91369530.30645  22313357.7734                   22313367.4224
 128305508.011 5                  24415726.227
 106234642.70348  82780374.74446  20215756.7344                   20215766.0234
 119473393.06247  93096206.25044  22735029.2894                   22735039.8164
 110591988.19248  86175668.45446  21044931.9144                   21044939.1684
 11  7 26  1  4  0.0000000  0  9G28G10G17G12G09G05G04G27G02
 122530778.60747  95478612.65944  23316830.6254                   23316841.3754
 114482592.15847  89207187.39245  21785262.1884                   21785272.6024
 116307323.710 7                  22132534.031
 121214943.569 7                  23066442.117
 117297274.84847  91400563.04245  22320936.0704                   22320946.1334
 128199628.510 6                  24395577.633
 106276105.10248  82812683.09946  20223647.2664                   20223656.0594
 119512633.82147  93126783.41545  22742496.2664                   22742507.1094
 110549304.10948  86142408.17846  21036809.1174                   21036816.6134
 11  7 26  1  4 30.0000000  0  9G28G10G17G12G09G05G04G27G02
 122619861.37747  95548027.69343  23333781.8594                   23333793.6484
 114412909.65347  89152889.43545  21772002.3284                   21772012.6454
 116348784.852 8                  22140424.000
 121123341.666 7                  23049011.125
 117337628.13747  91432007.15445  22328615.3914                   22328625.6524
 128093697.879 6                  24375420.008
 106317991.78248  82845322.06346  20231617.9304                   20231626.7034
 119552240.68947  93157645.87744  22750033.0634                   22750044.0864
 110506989.81348  86109436.04946  21028757.3754                   21028764.2384
 11  7 26  1  5  0.0000000  0  9G28G10G17G12G09G05G04G27G02
 122709229.11046  95617664.78643  23350787.3834                   23350799.5044
 114343629.04747  89098904.64445  21758818.0944                   21758829.0394
 116390346.298 7                  22148332.594
 121031895.361 7                  23031609.258
 117378506.85947  91463860.67045  22336394.1954                   22336404.0204
 127987718.884 6                  24355252.570
 106360300.39048  82878289.80346  20239668.6724                   20239677.7774
 119592211.85147  93188792.21545  22757640.0084                   22757650.0634
 110465045.02348  86076751.84746  21020775.3134                   21020782.3134
 11  7 26  1  5 30.0000000  0  9G28G10G17G12G09G05G04G27G02
 122798880.81446  95687523.15843  23367847.7734                   23367859.2274
 114274753.64947  89045235.59745  21745711.9384                   21745721.9804
 116432008.772 7                  22156261.539
 120940607.092 7                  23014237.648
 117419908.65247  91496121.78745  22344272.1414                   22344282.6524
 127881694.210 6                  24335076.758
 106403029.04248  82911584.84646  20247799.6484                   20247808.8914
 119632545.34247  93220220.86645  22765314.7194                   22765326.0164
 110423470.38148  86044356.05746  21012863.7034                   21012870.9024
 11  7 26  1  6  0.0000000  0  9G28G10G17G12G09G05G04G27G02
 122888814.74946  95757601.39943  23384961.8284                   23384973.0984
 114206286.47847  88991884.63445  21732682.7734                   21732692.9574
 116473773.031 7                  22164209.023
 120849479.295 7                  22996896.891
 117461831.26047  91528788.74245  22352250.0634                   22352260.5004
 127775626.851 6                  24314893.008
 106446175.82448  82945205.70346  20256010.2734                   20256019.7114
 119673239.09747  93251930.27144  22773058.5864                   22773069.4454
 110382265.94848  86012248.76046  21005023.2194                   21005030.0274
 11  7 26  1  6 30.0000000  0  9G28G10G17G12G09G05G04G27G02
 122979028.57147  95827897.82943  23402129.3284                   23402140.6954
 114138230.14347  88938853.80145  21719732.0314                   21719742.1724
 116515639.277 7                  22172175.625
 120758514.107 7                  22979586.563
 117504271.74047  91561859.22245  22360326.4774                   22360336.6134
 127669518.782 6                  24294700.797
 106489737.76148  82979150.07446  20264299.7894                   20264309.1684
 119714290.46247  93283918.31244  22780870.7344                   22780880.8554
 110341430.94048  85980429.31446  20997252.4694                   20997259.4384
 11  7 26  1  7  0.0000000  0  9G28G10G17G12G09G05G04G27G02
 123069521.43347  95898411.72943  23419349.4304                   23419360.8634
 114070587.71047  88886145.48545  21706860.2974                   21706870.2114
 116557607.853 7                  22180161.844
 120667714.276 7                  22962307.813
 117547227.96747  91595331.58545  22368500.1804                   22368510.9414
 127563372.995 7                  24274502.477
 106533713.25848  83013416.69846  20272668.0314                   20272677.1724
 119755697.74647  93316183.69544  22788750.2894                   22788760.5044
 110300965.99748  85948898.23446  20989552.1094                   20989559.0704
 11  7 26  1  7 30.0000000  0  9G28G10G17G12G09G05G04G27G02
 123160291.57446  95969141.63743  23436622.8134                   23436633.7424
 114003362.38647  88833762.18445  21694067.6804                   21694077.8634
 116599679.090 7                  22188167.781
 120577082.164 7                  22945061.039
 117590696.93047  91629203.49945  22376772.3984                   22376783.0594
 127457192.156 6                  24254296.836
 106578099.79248  83048003.61346  20281114.5944                   20281123.4454
 119797458.45047  93348724.49744  22796696.7584                   22796707.9144
 110260870.90348  85917655.34846  20981921.9454                   20981929.0984
 11  7 26  1  8  0.0000000  0  9G28G10G17G12G09G05G04G27G02
 123251337.50046  96040086.48943  23453948.6484                   23453959.5394
 113936557.15047  88781706.22545  21681354.9614                   21681364.9454
 116641853.773 7                  22196193.563
 120486619.873 7                  22927846.070
 117634676.27747  91663473.10845  22385141.4224                   22385151.7894
 127350978.852 6                  24234084.367
 106622895.31948  83082909.22346  20289638.7504                   20289648.0634
 119839570.43047  93381539.00544  22804710.6174                   22804721.2734
 110221145.61548  85886700.62146  20974362.3364                   20974369.5664
 11  7 26  1  8 30.0000000  0  9G28G10G17G12G09G05G04G27G02
 123342657.71846  96111244.97644  23471325.9844                   23471337.8054
 113870175.15647  88729980.06045  21668722.9454                   21668733.3554
 116684131.671 7                  22204238.523
 120396330.147 7                  22910664.922
 117679163.69347  91698138.62245  22393607.2664                   22393617.5314
 127244736.106 6                  24213866.484
 106668097.54548  83118131.75446  20298240.5784                   20298250.0354
 119882031.74647  93414625.70545  22812790.5314                   22812801.2424
 110181790.05648  85856033.99446  20966873.5314                   20966880.5084
 11  7 26  1  9  0.0000000  0  9G28G10G17G12G09G05G04G27G02
 123434250.87347  96182616.17144  23488755.6484                   23488767.1684
 113804219.39447  88678586.02245  21656172.0784                   21656181.7894
 116726513.493 8                  22212303.961
 120306215.522 7                  22893516.727
 117724156.42847  91733197.89645  22402169.5084                   22402179.3014
 127138466.622 6                  24193642.711
 106713704.61448  83153669.75346  20306919.1254                   20306928.5784
 119924840.31947  93447983.02444  22820937.3204                   22820948.2384
 110142804.53148  85825655.70146  20959454.6884                   20959462.0434
 11  7 26  1  9 30.0000000  0  9G28G10G17G12G09G05G04G27G02
 123526114.82247  96254198.36844  23506237.3914                   23506248.4574
 113738692.64347  88627526.27145  21643702.5164                   21643712.5784
 116768999.609 8                  22220388.453
 120216278.350 7                  22876402.078
 117769651.68747  91768648.73945  22410826.4614                   22410836.8594
 127032172.849 6                  24173416.484
 106759713.89248  83189521.15246  20315674.4844                   20315683.7274
 119967993.63847  93481608.96944  22829148.5704                   22829160.1174
 110104188.59848  85795565.38246  20952105.9144                   20952113.4454
 11  7 26  1 10  0.0000000  0  9G28G10G17G12G09G05G04G27G02
 123618248.32447  96325990.61344  23523769.9064                   23523780.8444
 113673597.69247  88576802.99845  21631315.6174                   21631325.1094
 116811590.388 8                  22228493.641
 120126520.912 7                  22859321.492
 117815646.73647  91804489.04745  22419578.7504                   22419589.3754
 126925857.739 6                  24153185.180
 106806123.27448  83225684.31446  20324506.0554                   20324514.9144
 120011489.31846  93515501.67144  22837425.8444                   22837435.7304
 110065942.35748  85765763.14846  20944828.5704                   20944835.6254
 11  7 26  1 10 30.0000000  0  9G28G10G17G12G09G05G04G27G02
 123710649.39146  96397991.32643  23541352.3914                   23541364.5904
 113608937.56147  88526418.54245  21619010.6024                   21619020.7234
 116854286.231 8                  22236618.234
 120036945.801 7                  22842276.445
 117862138.78247  91840716.59445  22428426.5944                   22428436.5944
 126819524.155 6                  24132950.344
 106852930.38848  83262157.40246  20333412.7114                   20333422.1724
 120055325.10447  93549659.41344  22845767.4384                   22845778.3324
 110028065.62448  85736248.84446  20937620.3834                   20937627.7274
 11  7 26  1 11  0.0000000  0  9G28G10G17G12G09G05G04G27G02
 123803316.25446  96470199.17343  23558986.3984                   23558998.7624
 113544715.22447  88476375.22145  21606789.4774                   21606799.9264
 116897087.911 8                  22244762.859
 119947555.363 7                  22825266.031
 117909125.47647  91877329.61944  22437367.0704                   22437377.8164
 126713174.663 7                  24112713.727
 106900133.12248  83298938.75246  20342395.4304                   20342404.5434
 120099498.88847  93584080.52244  22854173.4144                   22854184.3714
 109990558.36947  85707022.44946  20930483.1334                   20930490.5044
 11  7 26  1 11 30.0000000  0  9G28G10G17G12G09G05G04G27G02
 123896247.74846  96542613.15743  23576670.8914                   23576682.6254
 113480933.58047  88426675.29945  21594651.8284                   21594662.0944
 116939995.319 8                  22252927.828
 119858351.964 7                  22808290.758
 117956604.18347  91914326.00645  22446402.1724                   22446412.4304
 126606811.569 7                  24092472.961
 106947729.21848  83336026.62046  20351452.3674                   20351461.5784
 120144008.27046  93618763.12744  22862643.1334                   22862653.7194
 109953420.15948  85678083.61946  20923416.2034                   20923422.8284
 11  7 26  1 12  0.0000000  0  9G28G10G17G12G09G05G04G27G02
 123989442.42846  96615232.23143  23594406.0164                   23594417.7734
 113417595.63547  88377321.10345  21582599.3984                   21582609.1954
 116983008.948 8                  22261112.969
 119769338.216 7                  22791352.109
 118004572.20247  91951703.68145  22455530.4534                   22455540.9024
 126500438.005 7                  24072230.148
 106995716.49848  83373419.30046  20360584.4774                   20360593.3674
 120188850.92247  93653705.43244  22871176.3444                   22871187.5744
 109916651.19248  85649432.51146  20916418.7344                   20916425.8594
 11  7 26  1 12 30.0000000  0  9G28G10G17G12G09G05G04G27G02
 124082898.18546  96688054.81343  23612188.8054                   23612201.6334
 113354704.22447  88328314.86445  21570631.0314                   21570641.6684
 117026129.597 7                  22269318.930
 119680516.578 7                  22774449.844
 118053026.39547  91989460.20245  22464750.6564                   22464761.4654
 126394056.561 7                  24051986.102
 107044092.42048  83411114.82446  20369790.0704                   20369799.1844
 120234024.53646  93688905.61744  22879772.5234                   22879784.1334
 109880251.21248  85621068.92146  20909492.5554                   20909499.1254
 11  7 26  1 13  0.0000000  0  9G28G10G17G12G09G05G04G27G02
 124176613.20046  96761079.35243  23630022.9064                   23630035.1134
 113292262.23547  88279658.81545  21558748.9694                   21558759.1374
 117069357.491 8                  22277544.867
 119591889.517 7                  22757584.344
 118101964.37247  92027593.67044  22474063.1724                   22474073.7424
 126287670.335 7                  24031741.414
 107092854.91348  83449111.56646  20379069.1414                   20379078.3754
 120279526.77747  93724361.87644  22888431.9064                   22888442.1644
 109844220.04248  85592992.70646  20902635.9924                   20902642.5164
 11  7 26  1 13 30.0000000  0  9G28G10G17G12G09G05G04G27G02
 124270586.15046  96834304.94343  23647906.2034                   23647916.9494
 113230273.04347  88231355.59945  21546953.0164                   21546963.0474
 117112693.124 7                  22285791.469
 119503459.750 7                  22740756.406
 118151383.69247  92066102.21844  22483467.4844                   22483477.5904
 126181282.165 7                  24011496.375
 107142002.03648  83487408.01946  20388421.6094                   20388431.0394
 120325355.63946  93760072.64844  22897152.8364                   22897163.4264
 109808557.96047  85565204.09546  20895849.6804                   20895856.6294
 11  7 26  1 14  0.0000000  0  9G28G10G17G12G09G05G04G27G02
 124364815.10346  96907729.99143  23665836.6884                   23665848.0124
 113168738.77447  88183406.86445  21535243.5234                   21535253.6764
 117156136.848 8                  22294058.406
 119415229.460 7                  22723966.891
 118201280.88747  92104983.14044  22492962.7734                   22492972.9534
 126074894.433 6                  23991250.719
 107191530.98948  83526001.99746  20397846.4844                   20397855.9304
 120371508.53747  93796035.90844  22905935.3134                   22905946.4064
 109773264.24748  85537702.52846  20889133.5314                   20889140.3874
 11  7 26  1 14 30.0000000  0  9G28G10G17G12G09G05G04G27G02
 124459298.49246  96981353.31443  23683817.1174                   23683827.3594
 113107662.26547  88135814.83045  21523621.2584                   21523630.5394
 117199689.011 8                  22302346.508
 119327201.198 7                  22707215.461
 118251653.34947  92144234.40144  22502548.6644                   22502558.3284
 125968510.082 6                  23971005.914
 107241439.75648  83564891.93246  20407343.9064                   20407353.1334
 120417983.36247  93832250.01544  22914779.5784                   22914789.6454
 109738338.91848  85510488.02046  20882487.1174                   20882494.5474
 11  7 26  1 15  0.0000000  0  9G28G10G17G12G09G05G04G27G02
 124554034.43447  97055173.47143  23701845.4224                   23701855.3204
 113047046.29747  88088581.65545  21512085.9534                   21512095.9224
 117243350.188 7                  22310654.625
 119239377.411 7                  22690503.039
 118302498.28847  92183853.81144  22512224.0164                   22512234.0554
 125862131.872 6                  23950762.969
 107291725.79448  83604075.83846  20416912.9304                   20416922.2234
 120464777.77947  93868713.16444  22923683.9534                   22923694.5944
 109703781.58648  85483560.26646  20875911.3054                   20875918.1914
 11  7 26  1 15 30.0000000  0  9G28G10G17G12G09G05G04G27G02
 124649021.41747  97129189.21743  23719920.6804                   23719930.8674
 112986894.01447  88041709.79645  21500639.3054                   21500649.0664
 117287120.979 7                  22318983.758
 119151760.746 7                  22673829.938
 118353813.12647  92223839.38344  22521989.0864                   22521998.6764
 125755762.848 7                  23930521.359
 107342387.18948  83643552.23846  20426553.5704                   20426563.6334
 120511889.32347  93905423.42444  22932649.0474                   22932659.7154
 109669592.61648  85456919.55246  20869405.5554                   20869412.3834
 11  7 26  1 16  0.0000000  0  9G28G10G17G12G09G05G04G27G02
 124744257.82646  97203399.34643  23738043.5704                   23738053.6724
 112927208.35047  87995201.54345  21489281.4224                   21489291.2384
 117331001.727 7                  22327333.625
 119064353.816 7                  22657197.758
 118405595.17147  92264189.03144  22531842.3524                   22531852.6804
 125649405.610 7                  23910282.148
 107393421.92348  83683319.55146  20436265.4384                   20436274.6174
 120559315.68947  93942378.99144  22941673.7424                   22941684.4344
 109635771.65048  85430565.58046  20862969.4144                   20862976.0204
 11  7 26  1 16 30.0000000  0  9G28G10G17G12G09G05G04G27G02
 124839741.52646  97277802.12643  23756213.0784                   23756224.9264
 112867991.73747  87949058.79945  21478013.1024                   21478022.9144
 117374992.504 7                  22335704.805
 118977158.828 7                  22640604.422
 118457841.19947  92304900.19344  22541784.6334                   22541794.6644
 125543062.888 7                  23890046.203
 107444826.95648  83723375.40646  20446047.3594                   20446056.7854
 120607054.31747  93979577.87344  22950758.0004                   22950769.0984
 109602317.95147  85404497.79546  20856603.3914                   20856610.4414
 11  7 26  1 17  0.0000000  0  9G28G10G17G12G09G05G04G27G02
 124935470.64846  97352396.14843  23774429.2584                   23774440.8754
 112809246.44147  87903283.31845  21466834.0004                   21466843.6094
 117419093.880 7                  22344097.250
 118890178.193 7                  22624052.820
 118510547.91047  92345970.32244  22551814.9384                   22551825.0084
 125436737.347 7                  23869813.625
 107496599.95048  83763717.99046  20455899.5864                   20455908.5394
 120655102.33847  94017017.85544  22959901.6024                   22959912.5004
 109569231.06148  85378715.81746  20850307.0394                   20850313.6254
 11  7 26  1 17 30.0000000  0  9G28G10G17G12G09G05G04G27G02
 125031443.53646  97427180.09943  23792691.8914                   23792704.2894
 112750975.68247  87857877.59645  21455745.7344                   21455754.8954
 117463306.636 7                  22352511.086
 118803414.786 7                  22607542.195
 118563712.84647  92387397.54944  22561931.5944                   22561941.7194
 125330432.075 7                  23849583.586
 107548739.13648  83804345.91046  20465821.1024                   20465830.4384
 120703457.97847  94054697.52544  22969103.7734                   22969114.2664
 109536511.39747  85353219.98046  20844080.8444                   20844087.6914
 11  7 26  1 18  0.0000000  0  9G28G10G17G12G09G05G04G27G02
 125127658.69246  97502152.85343  23811002.0784                   23811013.5864
 112693182.08947  87812843.69445  21444747.3674                   21444757.5744
 117507630.903 7                  22360945.578
 118716870.769 7                  22591073.586
 118617332.88547  92429179.37544  22572134.8524                   22572144.8554
 125224149.789 7                  23829358.602
 107601241.70148  83845256.98146  20475812.1254                   20475821.3874
 120752118.44647  94092614.73244  22978362.7894                   22978374.1764
 109504158.20647  85328009.73046  20837924.1954                   20837931.2704
 11  7 26  1 18 30.0000000  0  9G28G10G17G12G09G05G04G27G02
 125224114.10746  97577312.75443  23829356.8984                   23829369.0984
 112635868.35247  87768183.70445  21433841.3204                   21433850.6884
 117552067.589 7                  22369401.125
 118630548.674 7                  22574646.727
 118671405.28347  92471313.67345  22582424.6564                   22582435.3984
 125117893.216 7                  23809138.102
 107654105.47748  83886449.52246  20485871.6414                   20485881.0634
 120801081.31447  94130767.57444  22987680.4304                   22987691.9574
 109472171.37548  85303084.96746  20831837.1884                   20831844.3094
 11  7 26  1 19  0.0000000  0  9G28G10G17G12G09G05G04G27G02
 125320807.95946  97652658.53743  23847756.8914                   23847769.6024
 112579037.26647  87723899.81945  21423026.6884                   21423036.0354
 117596616.556 7                  22377878.578
 118544451.356 7                  22558262.961
 118725927.08647  92513798.18644  22592800.2034                   22592810.4534
 125011665.312 7                  23788923.648
 107707328.39748  83927921.91446  20495999.5004                   20496008.8364
 120850344.52347  94169154.46444  22997054.7034                   22997065.8914
 109440550.62547  85278445.46546  20825819.7344                   20825826.9804
 11  7 26  1 19 30.0000000  0  9G28G10G17G12G09G05G04G27G02
 125417738.52147  97728188.74843  23866203.4924                   23866214.8914
 112522691.27747  87679993.92445  21412304.1954                   21412314.0274
 117641278.766 7                  22386377.188
 118458581.218 7                  22541921.930
 118780895.52947  92556630.69644  22603260.3204                   22603269.8874
 124905469.065 6                  23768714.680
 107760908.19548  83969672.39246  20506195.7974                   20506204.8954
 120899905.63047  94207773.46644  23006486.5314                   23006496.9804
 109409295.86548  85254091.15646  20819872.1254                   20819879.2034
 11  7 26  1 20  0.0000000  0  9G28G10G17G12G09G05G04G27G02
 125514904.03947  97803902.07443  23884693.3914                   23884704.4654
 112466833.51247  87636468.46045  21401674.5704                   21401684.2734
 117686054.492 7                  22394898.688
 118372940.882 7                  22525625.547
 118836307.62847  92599808.92445  22613804.2114                   22613814.5944
 124799307.117 6                  23748512.336
 107814842.42648  84011699.05846  20516458.8134                   20516468.3524
 120949762.02147  94246622.57544  23015973.3134                   23015984.6334
 109378406.77548  85230021.76946  20813994.1564                   20814001.0944
 11  7 26  1 20 30.0000000  0  9G28G10G17G12G09G05G04G27G02
 125612302.88146  97879797.20043  23903227.2504                   23903238.1804
 112411466.41147  87593325.32945  21391138.4454                   21391148.7344
 117730944.239 7                  22403440.859
 118287532.817 7                  22509372.445
 118892160.44147  92643330.56945  22624433.3524                   22624443.7074
 124693182.462 7                  23728317.273
 107869128.89848  84054000.19646  20526789.4454                   20526798.9804
 120999911.15647  94285699.78844  23025517.2274                   23025527.5704
 109347883.01848  85206237.04046  20808185.6804                   20808192.4184
 11  7 26  1 21  0.0000000  0  9G28G10G17G12G09G05G04G27G02
 125709932.68046  97955872.38043  23921805.9534                   23921816.2384
 112356592.06447  87550566.16045  21380696.4454                   21380706.1414
 117775948.318 7                  22412004.703
 118202359.099 7                  22493164.422
 118948450.52447  92687192.92944  22635144.4924                   22635155.0984
 124587097.548 7                  23708130.398
 107923764.73448  84096573.57146  20537186.2734                   20537195.5554
 121050350.20146  94325002.90944  23035114.7114                   23035125.7464
 109317723.41447  85182736.08246  20802446.5084                   20802453.3594
 11  7 26  1 21 30.0000000  0  9G28G10G17G12G09G05G04G27G02
 125807791.92946  98032126.27243  23940428.0944                   23940438.8714
 112302213.54947  87508193.34645  21370348.4064                   21370357.9694
 117821067.322 7                  22420590.484
 118117422.706 7                  22477001.844
 119005174.67647  92731393.52945  22645938.9774                   22645949.0514
 124481055.398 7                  23687950.398
 107978747.68248  84139417.42446  20547649.0394                   20547658.7074
 121101076.93647  94364530.20444  23044767.6804                   23044778.9344
 109287928.26948  85159519.11046  20796776.5314                   20796783.7344
 11  7 26  1 22  0.0000000  0  9G28G10G17G12G09G05G04G27G02
 125905878.79546  98108557.54243  23959092.8594                   23959104.5314
 112248333.36347  87466208.84245  21360095.2194                   21360104.9344
 117866301.725 7                  22429198.141
 118032726.281 7                  22460884.492
 119062330.35347  92775930.38144  22656815.7894                   22656826.0594
 124375059.161 7                  23667779.359
 108034076.02848  84182530.40846  20558177.6024                   20558187.4304
 121152089.13547  94404279.94244  23054475.3204                   23054486.5004
 109258497.28248  85136585.88646  20791176.3674                   20791183.0314
 11  7 26  1 22 30.0000000  0  9G28G10G17G12G09G05G04G27G02
 126004191.08446  98185164.44443  23977800.3674                   23977813.1804
 112194953.64147  87424614.30845  21349937.8364                   21349947.5434
 117911651.884 7                  22437827.938
 117948272.142 7                  22444813.555
 119119914.32547  92820800.97444  22667773.7114                   22667783.7074
 124269111.438 7                  23647619.273
 108089746.84048  84225910.26146  20568771.6094                   20568781.0234
 121203384.12147  94444250.03344  23064236.6724                   23064247.4614
 109229429.98948  85113936.06646  20785644.8524                   20785651.8674
 11  7 26  1 23  0.0000000  0  9G28G10G17G12G09G05G04G27G02
 126102727.31446  98261945.81842  23996551.4144                   23996563.8794
 112142077.20948  87383411.94645  21339875.7274                   21339885.5514
 117957118.521 7                  22446480.016
 117864062.954 7                  22428788.953
 119177923.72447  92866003.04644  22678812.5394                   22678822.4454
 124163215.153 7                  23627467.547
 108145758.13848  84269555.42446  20579430.1954                   20579439.3134
 121254959.54547  94484438.64544  23074050.8054                   23074061.7234
 109200726.16648  85091569.48846  20780182.6484                   20780189.2034
 11  7 26  1 23 30.0000000  0  9G28G10G17G12G09G05G04G27G02
 126201485.31946  98338900.01143  24015344.0004                   24015356.7974
 112089706.72947  87342603.83145  21329909.6414                   21329919.3794
 118002702.016 8                  22455154.406
 117780101.019 7                  22412811.836
 119236355.05547  92911533.90344  22689931.2734                   22689941.7934
 124057372.942 7                  23607326.117
 108202107.29548  84313463.86146  20590152.9304                   20590162.9024
 121306812.54447  94524843.57544  23083918.5554                   23083929.1024
 109172384.84347  85069485.36546  20774789.6254                   20774796.5434
 11  7 26  1 24  0.0000000  0  9G28G10G17G12G09G05G04G27G02
 126300463.52646  98416025.84143  24034179.8984                   24034192.0204
 112037845.08347  87302192.22245  21320040.6174                   21320050.5784
 118048402.716 7                  22463850.828
 117696389.317 7                  22396882.141
 119295205.96147  92957391.71744  22701130.2814                   22701140.3914
 123951588.029 7                  23587195.938
 108258792.35048  84357634.02346  20600939.9534                   20600949.4414
 121358940.94447  94565463.06644  23093838.5864                   23093849.5634
 109144406.21248  85047683.86546  20769465.2034                   20769472.3834
 11  7 26  1 24 30.0000000  0  9G28G10G17G12G09G05G04G27G02
 126399659.83546  98493321.57943  24053056.5554                   24053068.6414
 111986494.34848  87262178.71145  21310268.7274                   21310278.6884
 118094221.400 8                  22472570.039
 117612930.251 7                  22380999.984
 119354473.32147  93003574.00645  22712408.6884                   22712419.0354
 123845863.413 7                  23567076.625
 108315810.90948  84402064.07246  20611790.4304                   20611799.3954
 121411342.02547  94606295.05944  23103809.6024                   23103820.1454
 109116789.85848  85026164.64946  20764209.8054                   20764216.7544
 11  7 26  1 25  0.0000000  0  9G28G10G17G12G09G05G04G27G02
 126499072.48646  98570785.91543  24071973.5784                   24071986.4264
 111935656.98947  87222565.23145  21300595.0084                   21300604.3594
 118140158.455 7                  22481311.086
 117529726.370 7                  22365166.641
 119414153.65747  93050078.13045  22723765.3524                   22723776.1374
 123740201.820 7                  23546970.133
 108373160.40948  84446751.99546  20622703.2274                   20622712.5314
 121464012.99347  94647337.34644  23113832.4224                   23113843.5314
 109089535.28548  85004927.34446  20759023.5784                   20759030.0314
 11  7 26  1 25 30.0000000  0  9G28G10G17G12G09G05G04G27G02
 126598699.52446  98648417.34743  24090932.1644                   24090944.7384
 111885335.22247  87183353.51445  21291018.6174                   21291028.4384
 118186214.515 7                  22490075.539
 117446779.937 7                  22349382.656
 119474243.81747  93096901.59444  22735199.7274                   22735210.3524
 123634605.919 6                  23526874.555
 108430838.58748  84491696.02346  20633679.1334                   20633688.7194
 121516951.39347  94688588.02344  23123906.1484                   23123917.5904
 109062641.81348  84983971.40846  20753906.0084                   20753912.9344
 11  7 26  1 26  0.0000000  0  9G28G10G17G12G09G05G04G27G02
 126698539.02646  98726214.24943  24109931.2194                   24109943.9694
 111835531.96148  87144545.83945  21281541.7664                   21281550.7774
 118232389.605 7                  22498862.789
 117364094.028 7                  22333648.195
 119534740.92247  93144042.14645  22746712.3984                   22746722.5394
 123529078.892 7                  23506794.047
 108488843.18948  84536894.41046  20644717.1564                   20644726.2194
 121570155.02647  94730045.38544  23134030.7194                   23134041.4534
 109036109.11548  84963296.59446  20748856.8984                   20748863.9184
 11  7 26  1 26 30.0000000  0  9G28G10G17G12G09G05G04G27G02
 126798589.02846  98804175.25143  24128970.1024                   24128982.5704
 111786249.31748  87106143.83745  21272163.4774                   21272172.7544
 118278684.340 7                  22507671.930
 117281671.095 7                  22317963.906
 119595641.58247  93191497.15345  22758301.2344                   22758311.8134
 123423623.608 7                  23486726.906
 108547171.80648  84582345.28546  20655816.7734                   20655825.4804
 121623620.99847  94771707.15444  23144205.1254                   23144215.9184
 109009936.73248  84942902.53746  20743876.3204                   20743883.4384
 11  7 26  1 27  0.0000000  0  9G28G10G17G12G09G05G04G27G02
 126898847.61446  98882298.71642  24148048.5944                   24148061.1914
 111737489.68648  87068149.36945  21262884.4844                   21262894.0664
 118325099.555 7                  22516504.344
 117199513.348 7                  22302329.172
 119656942.82347  93239264.30745  22769967.0864                   22769977.3594
 123318242.994 7                  23466672.805
 108605822.19648  84628046.88846  20666977.4144                   20666986.5824
 121677347.08847  94813571.60344  23154428.8204                   23154440.2274
 108984124.16448  84922788.86946  20738964.5864                   20738971.4414
 11  7 26  1 27 30.0000000  0  9G28G10G17G12G09G05G04G27G02
 126999312.84145  98960583.33442  24167166.0314                   24167178.6254
 111689255.14648  87030564.05645  21253705.7424                   21253715.2814
 118371635.618 7                  22525360.000
 117117623.353 7                  22286745.734
 119718641.59947  93287341.21544  22781707.4224                   22781717.9654
 123212939.727 7                  23446634.461
 108664791.82648  84673997.25146  20678199.1884                   20678208.8524
 121731330.38047  94855636.47344  23164701.1334                   23164712.3714
 108958670.91448  84902955.18746  20734120.8834                   20734127.8954
 11  7 26  1 28  0.0000000  0  9G28G10G17G12G09G05G04G27G02
 127099983.07245  99039027.57942  24186322.3134                   24186336.3054
 111641548.89048  86993390.40145  21244627.4304                   21244636.7894
 118418293.212 7                  22534238.992
 117036004.100 7                  22271214.359
 119780734.60447  93335725.34445  22793523.2974                   22793534.5164
 123107717.061 7                  23426611.273
 108724078.70848  84720194.82146  20689480.9064                   20689489.9924
 121785568.58447  94897899.95044  23175022.6564                   23175033.7194
 108933576.72948  84883401.29346  20729345.8204                   20729352.4884
 11  7 26  1 28 30.0000000  0  9G28G10G17G12G09G05G04G27G02
 127200856.00445  99117629.73742  24205518.5084                   24205532.0594
 111594372.62548  86956629.73445  21235650.3754                   21235659.8594
 118465072.968 7                  22543140.734
 116954658.114 7                  22255734.883
 119843218.46747  93384414.01244  22805414.0474                   22805424.6524
 123002577.747 7                  23406603.563
 108783680.15548  84766637.50346  20700822.4534                   20700831.6724
 121840058.82147  94940359.84244  23185391.5944                   23185402.9574
 108908840.68847  84864126.47846  20724638.3674                   20724645.3284
 11  7 26  1 29  0.0000000  0  9G28G10G17G12G09G05G04G27G02
 127301929.78145  99196388.48042  24224753.4144                   24224766.2154
 111547728.86648  86920284.00345  21226774.1724                   21226783.7464
 118511974.660 7                  22552065.656
 116873588.004 7                  22240307.727
 119906090.14447  93433404.88044  22817378.0864                   22817388.8714
 122897524.665 7                  23386612.406
 108843593.85248  84813323.49446  20712224.0004                   20712233.3754
 121894798.54847  94983014.08944  23195808.5394                   23195819.5044
 108884462.61448  84845130.58846  20719999.3524                   20720006.3754
 11  7 26  1 29 30.0000000  0  9G28G10G17G12G09G05G04G27G02
 127403202.19946  99275301.98443  24244024.7974                   24244037.6844
 111501619.62848  86884354.78645  21217999.9144                   21218009.5204
 118558998.769 7                  22561014.047
 116792795.869 7                  22224933.242
 119969346.37847  93482695.41944  22829415.7664                   22829426.0204
 122792560.584 7                  23366638.922
 108903817.51548  84860251.03346  20723684.0554                   20723693.3634
 121949784.99847  95025860.63944  23206272.0394                   23206282.9654
 108860441.78248  84826413.06546  20715428.3444                   20715435.0004
 11  7 26  1 30  0.0000000  0  9G28G10G17G12G09G05G04G27G02
 127504671.61346  99354369.05943  24263333.5554                   24263346.4264
 111456047.32548  86848843.94846  21209327.7584                   21209337.0944
 118606146.288 7                  22569985.922
 116712284.401 7                  22209613.117
 120032983.96247  93532283.10844  22841524.8444                   22841535.3674
 122687688.702 7                  23346681.547
 108964348.75748  84907418.23046  20735202.7504                   20735211.7584
 122005015.75347  95068897.52944  23216782.3754                   23216793.2274
 108836777.71548  84807973.53646  20710925.0314                   20710932.2704
 11  7 26  1 30 30.0000000  0  9G28G10G17G12G09G05G04G27G02
 127606335.80546  99433587.84043  24282680.2584                   24282692.1414
 111411013.97948  86813753.07945  21200758.1484                   21200767.1564
 118653417.393 7                  22578981.453
 116632056.125 7                  22194345.797
 120096999.53347  93582165.35144  22853706.7504                   22853717.3324
 122582911.149 7                  23326742.953
 109025184.81948  84954822.96346  20746779.1954                   20746788.7774
 122060487.81447  95112122.44644  23227338.2194                   23227348.9574
 108813469.38248  84789811.20146  20706490.0164                   20706496.5744
 11  7 26  1 31  0.0000000  0  9G28G10G17G12G09G05G04G27G02
 127708192.74446  99512956.86743  24302062.8134                   24302074.7504
 111366522.06448  86779084.09645  21192291.3754                   21192301.0084
 118700812.963 7                  22588001.016
 116552113.900 7                  22179133.180
 120161390.19047  93632339.84444  22865960.5084                   22865970.7464
 122478231.599 7                  23306823.102
 109086324.02848  85002463.89746  20758414.0394                   20758423.6174
 122116198.89047  95155533.61344  23237939.6414                   23237950.5944
 108790516.72248  84771926.02546  20702121.9844                   20702129.1134
 11  7 26  1 31 30.0000000  0  9G28G10G17G12G09G05G04G27G02
 127810240.24046  99592474.37643  24321481.8134                   24321493.6724
 111322573.34548  86744838.39945  21183928.5004                   21183937.3134
 118748333.478 7                  22597043.344
 116472459.912 7                  22163975.641
 120226152.48347  93682803.95444  22878284.4064                   22878294.2854
 122373652.992 7                  23286922.414
 109147763.61848  85050338.89646  20770105.1804                   20770114.3364
 122172146.35647  95199128.95844  23248586.8524                   23248597.3524
 108767919.06248  84754317.47146  20697821.7584                   20697828.8014
 11  7 26  1 32  0.0000000  0  8G10G17G12G09G05G04G27G02
 111279171.77048  86711019.04446  21175669.2274                   21175678.6414
 118795980.907 7                  22606110.234
 116393098.466 7                  22148873.539
 120291284.59546  93733556.22444  22890678.0234                   22890688.6414
 122269179.582 7                  23267041.688
 109209502.88848  85098447.42846  20781853.8134                   20781863.1764
 122228328.81647  95242907.44744  23259277.3204                   23259288.1134
 108745677.33648  84736986.29146  20693589.5784                   20693596.4494
 11  7 26  1 32 30.0000000  0  8G10G17G12G09G05G04G27G02
 111236318.31548  86677626.79046  21167514.3054                   21167523.4344
 118843753.981 7                  22615201.609
 116314030.966 7                  22133827.508
 120356782.05447  93784593.19644  22903141.7344                   22903152.4844
 122164813.238 7                  23247180.789
 109271538.34248  85146786.74646  20793658.9304                   20793668.7424
 122284742.67447  95286866.21144  23270013.2814                   23270023.6724
 108723789.81947  84719931.11346  20689424.4534                   20689430.9024
 11  7 26  1 33  0.0000000  0  8G10G17G12G09G05G04G27G02
 111194014.57348  86644662.88845  21159464.2274                   21159473.7344
 118891653.199 7                  22624316.375
 116235259.302 7                  22118837.570
 120422641.39347  93835912.12744  22915674.8834                   22915684.7274
 122060556.444 7                  23227341.664
 109333867.15048  85195354.65146  20805519.7114                   20805528.9224
 122341384.62147  95331002.72044  23280791.9304                   23280802.4454
 108702255.18048  84703150.88846  20685326.5554                   20685333.2934
 11  7 26  1 33 30.0000000  0  8G10G17G12G09G05G04G27G02
 111152262.87848  86612129.14445  21151518.7814                   21151528.3284
 118939679.489 7                  22633455.922
 116156786.434 7                  22103904.844
 120488859.27746  93887510.45944  22928275.4844                   22928286.1764
 121956412.082 7                  23207523.859
 109396487.09448  85244149.42446  20817435.7504                   20817445.1374
 122398252.15547  95375315.01844  23291613.2344                   23291624.5704
 108681073.36748  84686645.58146  20681295.8524                   20681302.6804
 11  7 26  1 34  0.0000000  0  8G10G17G12G09G05G04G27G02
 111111065.38948  86580027.25945  21143679.4774                   21143688.8714
 118987832.990 7                  22642619.125
 116078614.956 7                  22089028.883
 120555432.44047  93939385.63044  22940944.2814                   22940954.1414
 121852383.036 7                  23187726.938
 109459395.79248  85293169.19146  20829407.3444                   20829416.6644
 122455342.75047  95419801.12244  23302477.5234                   23302488.1804
 108660243.49747  84670414.52346  20677331.5704                   20677338.8164
 11  7 26  1 34 30.0000000  0  8G10G17G12G09G05G04G27G02
 111070424.23748  86548358.87445  21135945.8914                   21135955.0824
 119036114.295 7                  22651807.109
 116000747.206 7                  22074211.320
 120622357.54847  93991535.03444  22953679.6804                   22953689.2774
 121748472.485 7                  23167953.492
 109522590.86248  85342412.10446  20841432.5864                   20841442.1214
 122512653.68847  95464458.95144  23313383.3914                   23313394.1524
 108639764.79847  84654457.11946  20673434.7194                   20673441.5274
 11  7 26  1 35  0.0000000  0  8G10G17G12G09G05G04G27G02
 111030340.99448  86517125.22246  21128318.2274                   21128327.6724
 119084523.738 7                  22661018.688
 115923185.761 7                  22059451.914
 120689631.37947  94043956.16544  22966480.8134                   22966491.9454
 121644683.294 7                  23148203.344
 109586070.15948  85391876.48546  20853512.5234                   20853521.7304
 122570182.33747  95509286.38544  23324330.5784                   23324341.0314
 108619636.60648  84638772.83146  20669604.6334                   20669611.4304
 11  7 26  1 35 30.0000000  0  8G10G17G12G09G05G04G27G02
 110990818.21648  86486328.30746  21120797.2814                   21120806.2034
 119133062.236 7                  22670255.531
 115845933.457 7                  22044750.945
 120757250.73147  94096646.55744  22979348.4384                   22979359.5004
 121541018.234 7                  23128476.094
 109649831.27848  85441560.46446  20865645.7504                   20865655.2934
 122627925.89847  95554281.31744  23335318.7344                   23335330.0594
 108599858.58848  84623361.41346  20665841.0084                   20665847.4694
 11  7 26  1 36  0.0000000  0  8G10G17G12G09G05G04G27G02
 110951857.96248  86455969.71646  21113383.3054                   21113392.2664
 119181730.429 7                  22679516.563
 115768992.737 7                  22030110.016
 120825212.49147  94149603.71344  22992281.4924                   22992292.1844
 121437480.897 7                  23108773.445
 109713872.12548  85491462.42246  20877832.4694                   20877841.7974
 122685881.85247  95599441.73444  23346347.3674                   23346358.4494
 108580430.31248  84608222.52646  20662144.0864                   20662150.5784
 11  7 26  1 36 30.0000000  0  8G10G17G12G09G05G04G27G02
 110913461.96248  86426050.80445  21106076.6644                   21106085.7114
 119230528.729 7                  22688802.688
 115692366.193 7                  22015528.352
 120893513.10047  94202824.92444  23005278.7504                   23005289.0864
 121334073.812 7                  23089096.047
 109778190.28148  85541580.45946  20890071.8674                   20890081.1334
 122744047.47247  95644765.52444  23357416.0944                   23357427.5204
 108561350.95348  84593355.49646  20658513.1174                   20658520.0864
 11  7 26  1 37  0.0000000  0  8G10G17G12G09G05G04G27G02
 110875631.96748  86396572.92446  21098877.9224                   21098886.9144
 119279457.328 7                  22698113.281
 115616056.320 7                  22001006.820
 120962149.10946  94256307.49944  23018340.1564                   23018350.2274
 121230800.013 7                  23069443.266
 109842783.27148  85591912.66446  20902363.5704                   20902372.6454
 122802420.11747  95690250.61944  23368524.1644                   23368535.3164
 108542619.57948  84578759.64546  20654948.6564                   20654955.6414
 11  7 26  1 37 30.0000000  0  8G10G17G12G09G05G04G27G02
 110838370.28348  86367537.88146  21091786.9534                   21091796.0314
 119328517.222 7                  22707449.234
 115540065.814 7                  21986546.164
 121031117.48547  94310049.05444  23031463.6954                   23031474.5944
 121127662.845 7                  23049816.836
 109907649.21048  85642457.55246  20914706.8204                   20914716.3244
 122860997.27947  95735895.11444  23379671.0084                   23379682.5164
 108524235.98647  84564434.78546  20651450.2344                   20651456.9574
 11  7 26  1 38  0.0000000  0  8G10G17G12G09G05G04G27G02
 110801678.25448  86338946.72146  21084804.8674                   21084814.1644
 119377708.148 7                  22716809.648
 115464397.135 7                  21972147.023
 121100414.60347  94364046.74144  23044651.2274                   23044661.1174
 121024664.798 7                  23030217.227
 109972785.26148  85693212.90946  20927102.1024                   20927111.2974
 122919775.72947  95781696.44344  23390856.1024                   23390867.8164
 108506198.73548  84550379.78446  20648017.9384                   20648024.5904
 11  7 26  1 38 30.0000000  0  8G10G17G12G09G05G04G27G02
 110765558.37648  86310801.39146  21077931.7114                   21077941.0554
 119427031.484 7                  22726195.625
 115389052.940 7                  21957809.117
 121170037.43347  94418298.25144  23057899.5314                   23057910.3554
 120921809.160 7                  23010643.609
 110038189.46548  85744177.22246  20939547.9304                   20939557.2194
 122978753.21746  95827652.86244  23402079.0784                   23402090.4384
 108488507.94048  84536594.77346  20644651.5554                   20644658.0664
 11  7 26  1 39  0.0000000  0  8G10G17G12G09G05G04G27G02
 110730012.69148  86283103.48646  21071167.0234                   21071176.5434
 119476487.759 7                  22735606.109
 115314035.991 7                  21943534.250
 121239982.72647  94472801.03644  23071210.2734                   23071220.6214
 120819098.885 7                  22991098.094
 110103859.86848  85795348.94446  20952044.5554                   20952054.2424
 123037927.21747  95873762.42944  23413339.4064                   23413351.5554
 108471162.93248  84523079.20546  20641350.6804                   20641357.2034
 11  7 26  1 39 30.0000000  0  8G10G17G12G09G05G04G27G02
 110695042.14648  86255853.74346  21064512.3914                   21064521.9494
 119526076.879 7                  22745043.109
 115239348.248 7                  21929321.445
 121310246.52647  94527552.00344  23084580.2274                   23084591.4614
 120716536.505 7                  22971581.773
 110169793.16248  85846725.52346  20964591.2114                   20964600.7154
 123097294.31946  95920022.43844  23424636.5164                   23424648.3094
 108454162.02148  84509831.78146  20638115.4694                   20638122.4384
 11  7 26  1 40  0.0000000  0  8G10G17G12G09G05G04G27G02
 110660649.26548  86229054.12846  21057967.8204                   21057976.8014
 119575799.728 7                  22754505.508
 115164992.891 7                  21915172.070
 121380825.88247  94582548.85644  23098011.2734                   23098022.1604
 120614125.253 7                  22952092.961
 110235987.68148  85898305.65846  20977188.0554                   20977197.1334
 123156852.19746  95966431.09544  23435970.3754                   23435982.3754
 108437505.16948  84496852.44946  20634946.0164                   20634952.6804
 11  7 26  1 40 30.0000000  0  8G10G17G12G09G05G04G27G02
 110626835.86448  86202706.05145  21051533.3284                   21051542.2274
 119625656.948 7                  22763992.289
 115090972.204 7                  21901086.391
 121451717.60047  94637789.10544  23111501.6094                   23111512.4414
 120511868.360 7                  22932634.242
 110302441.24648  85950087.63646  20989833.4384                   20989842.6254
 123216598.30646  96012986.44244  23447339.5704                   23447351.3524
 108421191.78748  84484140.74846  20631842.0394                   20631848.2274
 11  7 26  1 41  0.0000000  0  8G10G17G12G09G05G04G27G02
 110593603.18648  86176810.49246  21045209.2974                   21045218.4614
 119675648.712 7                  22773505.836
 115017288.717 7                  21887065.039
 121522917.90847  94693269.83244  23125050.8914                   23125061.3674
 120409768.448 7                  22913204.914
 110369151.11148  86002069.32246  21002527.8754                   21002537.2074
 123276529.48146  96059685.98444  23458744.2504                   23458755.8794
 108405220.57448  84471695.66446  20628802.2504                   20628808.8524
 11  7 26  1 41 30.0000000  0  8G10G17G12G09G05G04G27G02
 110560953.08148  86151368.87645  21038995.9064                   21039004.8954
 119725775.665 7                  22783044.859
 114943944.887 7                  21873108.047
 121594423.58847  94748988.50944  23138657.5234                   23138668.4614
 120307828.724 7                  22893806.602
 110436115.38248  86054249.24946  21015270.9224                   21015280.1094
 123336643.27946  96106527.85744  23470183.6414                   23470194.9574
 108389591.04948  84459516.83746  20625828.0084                   20625834.9694
 11  7 26  1 42  0.0000000  0  8G10G17G12G09G05G04G27G02
 110528887.48047  86126382.72146  21032894.4144                   21032903.2194
 119776038.493 7                  22792609.789
 114870943.533 7                  21859216.656
 121666231.58547  94804942.75444  23152322.2814                   23152333.3914
 120206052.185 7                  22874439.023
 110503331.83648  86106625.69146  21028061.2584                   21028071.0864
 123396937.31446  96153510.16444  23481657.6334                   23481668.6334
 108374302.93048  84447604.05346  20622919.0234                   20622925.8674
 11  7 26  1 42 30.0000000  0  8G10G17G12G09G05G04G27G02
 110497408.14248  86101853.41146  21026903.7424                   21026912.7894
 119826437.550 7                  22802200.328
 114798287.113 7                  21845390.125
 121738338.42747  94861129.86044  23166043.4774                   23166055.0434
 120104441.664 7                  22855103.281
 110570797.93048  86159196.62946  21040900.0084                   21040909.2854
 123457408.29046  96200630.34643  23493164.4064                   23493175.5474
 108359355.00548  84435956.32946  20620074.3524                   20620081.0594
 11  7 26  1 43  0.0000000  0  8G10G17G12G09G05G04G27G02
 110466516.53348  86077782.06746  21021025.5944                   21021034.6724
 119876973.437 7                  22811816.109
 114725977.981 7                  21831630.484
 121810740.60747  94917547.11444  23179822.0554                   23179832.5164
 120003000.181 7                  22835798.898
 110638511.47148  86211960.38746  21053785.6334                   21053795.0864
 123518053.58747  96247886.35644  23504705.2504                   23504717.0864
 108344746.33948  84424572.98146  20617294.3594                   20617300.9964
 11  7 26  1 43 30.0000000  0  8G10G17G12G09G05G04G27G02
 110436214.09148  86054169.82146  21015259.1024                   21015268.3444
 119927646.699 7                  22821459.664
 114654018.715 7                  21817937.141
 121883434.72747  94974191.85044  23193655.2114                   23193665.5664
 119901730.643 7                  22816527.773
 110706470.09448  86264915.12846  21066717.8204                   21066727.1484
 123578870.53246  96295276.13644  23516278.3204                   23516290.3014
 108330476.48548  84413453.65546  20614579.1024                   20614585.8054
 11  7 26  1 44  0.0000000  0  8G10G17G12G09G05G04G27G02
 110406502.85748  86031018.25046  21009605.1254                   21009614.1844
 119978457.837 7                  22831128.797
 114582411.952 7                  21804310.711
 121956417.50047  95031061.51444  23207542.5704                   23207554.2274
 119800636.333 7                  22797290.234
 110774671.65448  86318059.16246  21079696.0864                   21079705.3324
 123639856.32947  96342797.53044  23527883.2974                   23527894.6994
 108316544.48148  84402597.58546  20611927.6564                   20611934.3794
 11  7 26  1 44 30.0000000  0  8G10G17G12G09G05G04G27G02
 110377384.04648  86008328.31046  21004064.0394                   21004072.7774
 120029407.263 7                  22840824.617
 114511160.282 7                  21790752.273
 122029685.34047  95088153.31644  23221485.5784                   23221496.7344
 119699719.567 7                  22778086.078
 110843113.85948  86371390.72946  21092720.1024                   21092729.5514
 123701008.13447  96390448.21344  23539520.7894                   23539532.0664
 108302949.45848  84392004.09046  20609340.3284                   20609347.3594
 11  7 26  1 45  0.0000000  0  8G10G17G12G09G05G04G27G02
 110348858.96048  85986101.01346  20998636.0084                   20998644.9344
 120080495.740 7                  22850546.742
 114440265.743 7                  21777261.336
 122103234.32447  95145464.17144  23235481.6804                   23235492.3284
 119598983.662 7                  22758916.539
 110911794.07548  86424907.74746  21105789.5784                   21105799.3284
 123762322.93847  96438225.94844  23551188.1414                   23551199.7704
 108289690.23648  84381672.24946  20606817.4304                   20606824.6094
 11  7 26  1 45 30.0000000  0  8G10G17G12G09G05G04G27G02
 110320929.63048  85964337.94346  20993321.1414                   20993330.4104
 120131723.499 7                  22860294.461
 114369731.457 7                  21763838.859
 122177061.85147  95202992.08044  23249530.1564                   23249541.2664
 119498431.930 7                  22739782.328
 110980710.61648  86478608.92446  21118904.0704                   21118913.6764
 123823798.66147  96486129.07644  23562887.1094                   23562898.2664
 108276766.70848  84371601.98846  20604358.1564                   20604364.7734
 11  7 26  1 46  0.0000000  0  8G10G17G12G09G05G04G27G02
 110293597.25948  85943040.03645  20988119.9224                   20988129.0474
 120183091.026 7                  22870069.375
 114299559.801 8                  21750485.906
 122251164.50647  95260734.35944  23263631.6334                   23263643.0164
 119398067.269 7                  22720683.633
 111049861.23648  86532492.49346  21132062.9064                   21132072.5664
 123885432.41346  96534155.34244  23574615.2974                   23574626.1764
 108264177.83448  84361792.49946  20601962.9924                   20601969.3634
 11  7 26  1 46 30.0000000  0  8G10G17G12G09G05G04G27G02
 110266863.52248  85922208.60346  20983032.5944                   20983041.5274
 120234598.934 7                  22879870.719
 114229753.064 7                  21737201.719
 122325538.61547  95318688.17844  23277785.1024                   23277796.1294
 119297892.457 7                  22701621.094
 111119243.51948  86586556.60346  21145265.7974                   21145275.7464
 123947221.38247  96582302.55144  23586373.4924                   23586385.0124
 108251922.68748  84352243.04846  20599630.5784                   20599637.1804
 11  7 26  1 47  0.0000000  0  8G10G17G12G09G05G04G27G02
 110240729.56548  85901844.52946  20978059.3134                   20978068.1254
 120286247.942 7                  22889698.953
 114160313.951 7                  21723988.125
 122400180.61847  95376850.73944  23291988.8134                   23291999.5824
 119197910.578 7                  22682595.047
 111188855.02648  86640799.31346  21158512.5944                   21158522.1094
 124009162.54047  96630568.36844  23598160.4774                   23598171.8204
 108240000.50948  84342953.07346  20597361.5234                   20597368.6914
 11  7 26  1 47 30.0000000  0  9G25G10G17G12G09G05G04G27G02
 129536714.14517                  24650025.844
 110215197.18048  85881949.21246  20973200.4844                   20973209.5864
 120338038.550 7                  22899554.711
 114091244.854 7                  21710844.969
 122475087.29047  95435219.52944  23306242.6254                   23306254.2584
 119098124.814 7                  22663606.422
 111258693.69148  86695219.04946  21171802.0554                   21171811.5164
 124071253.51747  96678950.89943  23609976.1024                   23609987.4224
 108228410.44248  84333921.88846  20595156.1414                   20595163.2234
 11  7 26  1 48  0.0000000  0  9G25G10G17G12G09G05G04G27G02
 129433404.433 7                  24630366.430
 110190267.70748  85862523.69046  20968456.9384                   20968466.1484
 120389971.458 6                  22909436.891
 114022548.484 7                  21697772.336
 122550255.43447  95493792.07744  23320547.2504                   23320557.7114
 118998537.849 7                  22644655.570
 111328757.59848  86749814.29946  21185135.3364                   21185144.8014
 124133491.40647  96727447.90843  23621819.6804                   23621830.6764
 108217151.68648  84325148.85046  20593013.8594                   20593020.6374
 11  7 26  1 48 30.0000000  0  9G25G10G17G12G09G05G04G27G02
 129330203.733 7                  24610728.438
 110165942.39948  85843568.94346  20963827.5864                   20963837.1564
 120442046.651 6                  22919346.438
 113954227.257 7                  21684771.039
 122625681.48047  95552565.56244  23334900.5394                   23334910.9534
 118899152.733 7                  22625743.125
 111399044.43248  86804583.24446  21198510.2974                   21198519.5124
 124195873.59646  96776057.40543  23633690.9694                   23633702.2544
 108206223.43548  84316633.33646  20590934.2344                   20590940.8094
 11  7 26  1 49  0.0000000  0  9G25G10G17G12G09G05G04G27G02
 129227114.307 7                  24591110.547
 110142222.44948  85825085.90146  20959313.7114                   20959323.2584
 120494264.820 6                  22929282.859
 113886283.765 7                  21671841.438
 122701361.91347  95611537.28444  23349301.4694                   23349312.0354
 118799972.471 7                  22606869.883
 111469551.58448  86859523.88446  21211927.3914                   21211936.7274
 124258397.08447  96824776.97743  23645588.7344                   23645599.5824
 108195624.65648  84308374.57246  20588917.4614                   20588923.8364
 11  7 26  1 49 30.0000000  0  9G25G10G17G12G09G05G04G27G02
 129124138.375 7                  24571514.797
 110119108.90148  85807075.38246  20954915.2894                   20954924.9384
 120546626.448 6                  22939247.703
 113818719.612 7                  21658984.547
 122777293.12447  95670704.42044  23363751.2194                   23363761.6454
 118701000.158 7                  22588035.500
 111540276.77048  86914634.42746  21225386.0634                   21225395.1294
 124321058.67146  96873604.14043  23657512.8834                   23657523.8554
 108185354.15548  84300371.61446  20586963.1334                   20586969.3594
 11  7 26  1 50  0.0000000  0  9G25G10G17G12G09G05G04G27G02
 129021278.618 7                  24551941.406
 110096603.15148  85789538.46846  20950632.7274                   20950642.0084
 120599132.114 6                  22949239.211
 113751537.830 7                  21646200.430
 122853471.84347  95730064.43444  23378247.5554                   23378257.7384
 118602238.422 7                  22569242.094
 111611218.06748  86969913.35945  21238885.6564                   21238894.9534
 124383855.80446  96922536.93343  23669461.8444                   23669473.6334
 108175411.21248  84292623.90746  20585071.0474                   20585077.4454
 11  7 26  1 50 30.0000000  0  9G25G10G17G12G09G05G04G27G02
 128918537.779 7                  24532390.852
 110074706.94848  85772476.52846  20946466.0634                   20946474.7664
 120651782.279 6                  22959258.383
 113684741.514 7                  21633489.898
 122929894.73147  95789614.68044  23392789.9614                   23392800.6684
 118503690.349 7                  22550488.570
 111682373.29548  87025359.01546  21252426.0864                   21252435.2274
 124446786.12547  96971573.51243  23681436.7894                   23681449.3914
 108165795.28347  84285131.00446  20583240.8204                   20583247.2854
 11  7 26  1 51  0.0000000  0  9G25G10G17G12G09G05G04G27G02
 128815918.098 6                  24512862.133
 110053421.19448  85755890.26146  20942415.5864                   20942424.3484
 120704577.390 6                  22969304.500
 113618332.255 7                  21620852.414
 123006558.22747  95849352.43344  23407378.8204                   23407389.2504
 118405359.136 7                  22531776.805
 111753740.29848  87080969.66846  21266006.8594                   21266015.9614
 124509846.69746  97020711.58243  23693437.0864                   23693449.7624
 108156505.24448  84277892.02146  20581473.1414                   20581479.8794
 11  7 26  1 51 30.0000000  0  9G25G10G17G12G09G05G04G27G02
 128713422.149 6                  24493357.578
 110032747.38148  85739780.83846  20938481.3364                   20938490.3594
 120757518.161 6                  22979379.164
 113552312.761 7                  21608289.094
 123083458.95647  95909275.04644  23422012.6954                   23422023.4064
 118307247.725 7                  22513106.727
 111825316.77748  87136743.57046  21279627.2974                   21279636.5084
 124573034.94146  97069949.10143  23705461.1724                   23705473.5434
 108147540.49348  84270906.51346  20579767.0234                   20579773.6214
 11  7 26  1 52  0.0000000  0  9G25G10G17G12G09G05G04G27G02
 128611052.317 6                  24473877.664
 110012686.15448  85724148.73946  20934663.8594                   20934672.7774
 120810605.028 6                  22989481.250
 113486685.571 7                  21595800.633
 123160593.52047  95969379.86444  23436690.7734                   23436701.3984
 118209358.744 7                  22494479.078
 111897100.49148  87192678.94446  21293287.6954                   21293296.8164
 124636347.79646  97119283.73243  23717510.0864                   23717522.2624
 108138899.70648  84264173.45846  20578122.9694                   20578129.5864
 11  7 26  1 52 30.0000000  0  9G25G10G17G12G09G05G04G27G02
 128508811.042 6                  24454421.375
 109993238.81048  85708994.99446  20930962.9614                   20930972.3284
 120863838.136 7                  22999610.984
 113421453.054 7                  21583387.148
 123237958.54847  96029664.26244  23451412.8524                   23451423.6134
 118111695.530 7                  22475894.523
 111969089.16548  87248774.04046  21306986.1884                   21306995.4884
 124699782.56446  97168713.37943  23729580.6414                   23729592.8134
 108130581.96248  84257692.11546  20576540.0394                   20576546.3014
 11  7 26  1 53  0.0000000  0  9G25G10G17G12G09G05G04G27G02
 128406700.923 7                  24434990.711
 109974406.41348  85694320.42846  20927379.2814                   20927388.8054
 120917218.478 7                  23009769.234
 113356617.708 7                  21571049.234
 123315550.45447  96090125.44844  23466177.9924                   23466188.5944
 118014260.852 7                  22457352.852
 112041280.83748  87305027.32246  21320723.7814                   21320733.0944
 124763336.44446  97218235.82043  23741674.1254                   23741687.0204
 108122586.46348  84251461.88246  20575018.2194                   20575024.9924
 11  7 26  1 53 30.0000000  0  9G25G10G17G12G09G05G04G27G02
 128304724.205 6                  24415585.453
 109956190.19948  85680126.00246  20923913.1414                   20923921.8094
 120970746.233 7                  23019955.445
 113292181.660 7                  21558787.797
 123393365.73347  96150760.67344  23480986.0394                   23480997.2624
 117917057.545 7                  22438855.930
 112113672.96848  87361436.81546  21334499.8054                   21334509.0434
 124827006.31346  97267848.61543  23753791.0234                   23753802.9414
 108114911.78848  84245481.63446  20573558.0944                   20573564.5314
 11  7 26  1 54  0.0000000  0  9G25G10G17G12G09G05G04G27G02
 128202883.963 6                  24396205.445
 109938591.56048  85666412.81146  20920563.6174                   20920573.0124
 121024422.085 7                  23030169.734
 113228147.715 7                  21546602.391
 123471401.35947  96211567.63444  23495835.6564                   23495846.5554
 117820089.137 7                  22420403.211
 112186264.02148  87418001.29046  21348313.3914                   21348322.7894
 124890789.88646  97317550.06544  23765929.1094                   23765940.5824
 108107557.94048  84239751.37746  20572158.3834                   20572165.0824
 11  7 26  1 54 30.0000000  0  9G25G10G17G12G09G05G04G27G02
 128101182.450 6                  24376852.156
 109921611.43248  85653181.56546  20917332.7664                   20917341.7774
 121078246.532 7                  23040411.648
 113164518.332 7                  21534494.070
 123549653.72247  96272543.43344  23510726.6954                   23510737.8164
 117723358.369 7                  22401995.820
 112259051.76348  87474719.03446  21362164.6884                   21362173.5354
 124954684.45846  97367337.98144  23778087.7814                   23778099.0554
 108100523.74648  84234270.20346  20570819.8364                   20570826.3594
 11  7 26  1 55  0.0000000  0  9G25G10G17G12G09G05G04G27G02
 127999622.127 7                  24357525.836
 109905250.08948  85640432.49946  20914219.4694                   20914228.1214
 121132220.023 7                  23050682.453
 113101295.825 7                  21522463.047
 123628119.31647  96333685.39144  23525658.5704                   23525669.1914
 117626867.867 7                  22383634.164
 112332033.70348  87531588.09346  21376051.9614                   21376061.6134
 125018687.04346  97417210.04244  23790267.2504                   23790278.9104
 108093807.96048  84229037.14546  20569541.7974                   20569548.4534
 11  7 26  1 55 30.0000000  0  9G25G10G17G12G09G05G04G27G02
 127898205.673 7                  24338226.914
 109889508.98448  85628166.73746  20911223.6884                   20911232.5044
 121186343.121 7                  23060981.867
 113038482.393 7                  21510510.320
 123706794.56946  96394990.74544  23540629.5234                   23540641.0944
 117530621.053 7                  22365319.086
 112405207.90548  87588606.95546  21389976.8134                   21389985.9344
 125082794.82647  97467164.11943  23802466.0474                   23802477.7344
 108087409.87448  84224051.65446  20568324.2974                   20568330.7304
 11  7 26  1 56  0.0000000  0  9G25G10G17G12G09G05G04G27G02
 127796935.536 7                  24318955.656
 109874388.97048  85616384.93746  20908346.5784                   20908355.2464
 121240616.395 7                  23071309.969
 112976080.645 7                  21498635.578
 123785676.42746  96456457.06043  23555640.3204                   23555651.0904
 117434620.548 7                  22347050.695
 112478572.16048  87645773.90546  21403937.5084                   21403947.2934
 125147005.13847  97517198.07044  23814685.5554                   23814697.1604
 108081328.64048  84219313.04546  20567167.2034                   20567173.9344
 11  7 26  1 56 30.0000000  0  9G25G10G17G12G09G05G04G27G02
 127695814.229 7                  24299713.242
 109859890.77648  85605087.67646  20905587.5784                   20905597.0124
 121295039.924 7                  23081665.672
 112914092.763 7                  21486839.531
 123864761.27846  96518081.56444  23570689.9534                   23570700.7464
 117338869.243 7                  22328829.977
 112552124.11948  87703087.11645  21417933.9694                   21417943.1604
 125211315.14347  97567309.72044  23826922.8754                   23826934.4024
 108075562.75548  84214820.17246  20566070.2114                   20566076.7274
 11  7 26  1 57  0.0000000  0  9G25G10G17G12G09G05G04G27G02
 127594844.146 7                  24280498.758
 109846015.46148  85594275.76746  20902947.3444                   20902956.2464
 121349614.356 7                  23092051.586
 112852520.891 8                  21475123.039
 123944045.40046  96579861.33944  23585777.6254                   23585788.1564
 117243369.800 7                  22310656.563
 112625861.74247  87760545.00145  21431965.2734                   21431975.3484
 125275721.94947  97617496.79744  23839179.5004                   23839191.4574
 108070111.01948  84210572.08546  20565032.6954                   20565039.0514
 11  7 26  1 57 30.0000000  0  9G25G10G17G12G09G05G04G27G02
 127494028.027 7                  24261314.859
 109832763.83748  85583949.85246  20900425.8054                   20900434.6564
 121404340.204 7                  23102465.211
 112791367.742 8                  21463485.734
 124023525.41746  96641793.76244  23600901.5164                   23600913.0394
 117148125.666 7                  22292532.461
 112699782.96548  87818145.95145  21446032.1094                   21446041.6644
 125340222.94447  97667757.24344  23851453.6174                   23851465.2074
 108064972.94848  84206568.42846  20564054.9774                   20564061.3834
 11  7 26  1 58  0.0000000  0  9G25G10G17G12G09G05G04G27G02
 127393368.571 7                  24242160.555
 109820136.83448  85574110.64346  20898022.5234                   20898031.8244
 121459218.063 7                  23112907.563
 112730635.673 8                  21451928.664
 124103198.10547  96703876.31144  23616062.4534                   23616074.0554
 117053139.828 7                  22274457.313
 112773885.98448  87875888.55545  21460133.5634                   21460143.3094
 125404815.46546  97718089.02143  23863744.3984                   23863757.2154
 108060147.73048  84202808.54646  20563136.6804                   20563143.1724
 11  7 26  1 58 30.0000000  0  9G25G10G17G12G09G05G04G27G02
 127292868.099 7                  24223035.461
 109808135.01948  85564758.60446  20895738.9224                   20895747.7934
 121514248.159 7                  23123379.703
 112670326.912 8                  21440452.047
 124183060.01046  96766106.31044  23631260.0394                   23631271.4614
 116958415.075 7                  22256431.867
 112848168.37948  87933770.93445  21474269.2274                   21474278.6954
 125469496.47747  97768489.74944  23876053.5704                   23876064.8634
 108055633.92648  84199291.32146  20562277.6564                   20562284.1954
 11  7 26  1 59  0.0000000  0  9G25G10G17G12G09G05G04G27G02
 127192529.458 7                  24203940.797
 109796759.54348  85555894.61946  20893574.1884                   20893582.9844
 121569431.124 7                  23133880.570
 112610443.903 8                  21429056.906
 124263107.85747  96828481.18544  23646492.6094                   23646504.0084
 116863954.349 7                  22238456.672
 112922628.16348  87991791.54645  21488438.4144                   21488447.6174
 125534263.45046  97818957.44943  23888378.0004                   23888390.3714
 108051430.93548  84196016.27346  20561477.7664                   20561484.3554
 11  7 26  1 59 30.0000000  0  9G25G10G17G12G09G05G04G27G02
 127092355.151 7                  24184878.609
 109786010.95748  85547519.12746  20891528.5084                   20891537.4024
 121624767.450 7                  23144410.922
 112550988.983 8                  21417742.836
 124343338.19747  96890998.25444  23661760.7664                   23661771.1294
 116769760.747 7                  22220531.734
 112997263.41548  88049948.87945  21502640.8204                   21502650.1524
 125599113.61546  97869489.98343  23900719.0164                   23900730.5274
 108047537.82848  84192982.70146  20560736.9774                   20560743.4574
 11  7 26  2  0  0.0000000  0  9G25G10G17G12G09G05G04G27G02
 126992347.546 7                  24165848.367
 109775889.67948  85539632.43946  20889602.6174                   20889611.5474
 121680257.722 7                  23154970.555
 112491964.482 8                  21406511.117
 124423747.09647  96953654.50844  23677061.0164                   23677072.8364
 116675836.949 7                  22202658.594
 113072071.70448  88108241.04845  21516876.5234                   21516885.7894
 125664044.00246  97920085.01043  23913074.8594                   23913086.4064
 108043953.13048  84190189.44946  20560054.9064                   20560060.8914
 11  7 26  2  0 30.0000000  0  9G25G10G17G12G09G05G04G27G02
 126892509.479 7                  24146849.664
 109766396.74548  85532235.37746  20887795.8444                   20887805.2114
 121735902.164 7                  23165559.852
 112433372.376 8                  21395361.266
 124504331.65447  97016447.61144  23692396.8914                   23692407.7544
 116582186.069 7                  22184837.844
 113147051.23848  88166666.66045  21531144.7814                   21531154.3594
 125729051.91846  97970740.44943  23925444.5084                   23925457.0274
 108040676.25148  84187636.07346  20559431.4144                   20559437.2894
 11  7 26  2  1  0.0000000  0  9G25G10G17G12G09G05G04G27G02
 126792843.585 7                  24127883.320
 109757532.89148  85525328.48146  20886109.3444                   20886118.3134
 121791701.361 6                  23176177.617
 112375215.202 8                  21384294.477
 124585088.33247  97079374.83844  23707764.3834                   23707774.6604
 116488810.918 7                  22167068.539
 113222199.94948  88225224.10245  21545445.3674                   21545454.6294
 125794134.70846  98021454.20143  23937830.0634                   23937841.8874
 108037706.17848  84185321.74046  20558866.0864                   20558872.5434
 11  7 26  2  1 30.0000000  0  9G25G10G17G12G09G05G04G27G02
 126693352.174 6                  24108951.063
 109749298.23348  85518911.87646  20884542.5164                   20884551.6094
 121847655.823 7                  23186825.320
 112317495.103 8                  21373310.422
 124666013.62947  97142433.47744  23723163.6094                   23723174.5704
 116395714.494 7                  22149352.836
 113297515.57148  88283911.60745  21559777.2424                   21559786.9884
 125859289.37745  98072223.97642  23950227.9844                   23950240.1454
 108035041.71448  84183245.53346  20558359.0944                   20558365.4454
 11  7 26  2  2  0.0000000  0  9G25G10G17G12G09G05G04G27G02
 126594037.943 6                  24090051.563
 109741693.60348  85512986.19946  20883095.5864                   20883104.4924
 121903765.795 6                  23197502.961
 112260214.432 8                  21362410.203
 124747104.16847  97205620.88644  23738594.5704                   23738605.8244
 116302899.674 7                  22131690.820
 113372996.24348  88342727.71045  21574140.8134                   21574150.1024
 125924513.53545  98123047.90642  23962639.6094                   23962651.5864
 108032681.68148  84181406.54746  20557910.0634                   20557916.5314
 11  7 26  2  2 30.0000000  0  9G25G10G17G12G09G05G04G27G02
 126494903.276 6                  24071187.273
 109734719.16448  85507551.58446  20881768.1094                   20881776.9924
 121960031.800 7                  23208209.961
 112203375.364 8                  21351594.023
 124828356.25847  97268934.16044  23754055.9384                   23754067.8444
 116210368.741 7                  22114082.547
 113448639.57848  88401670.55245  21588535.6024                   21588544.5474
 125989803.99345  98173923.49642  23975064.9534                   23975076.3794
 108030624.76548  84179803.77746  20557518.6254                   20557525.1994
 11  7 26  2  3  0.0000000  0  9G25G10G17G12G09G05G04G27G02
 126395951.229 6                  24052356.789
 109728376.01348  85502608.88046  20880560.9144                   20880569.7074
 122016454.491 7                  23218947.000
 112146980.687 8                  21340862.711
 124909766.98247  97332371.02944  23769547.9304                   23769559.1054
 116118125.470 7                  22096529.430
 113524444.14148  88460739.03245  21602960.5164                   21602969.9414
 126055158.30345  98224848.80242  23987500.7664                   23987513.9694
 108028870.68848  84178436.99146  20557184.7114                   20557190.7814
 11  7 26  2  3 30.0000000  0  9G25G10G17G12G09G05G04G27G02
 126297184.204 6                  24033562.813
 109722664.38248  85498158.28346  20879473.9144                   20879482.6884
 122073034.336 6                  23229714.305
 112091032.287 8                  21330216.023
 124991332.58047  97395928.62044  23785069.5164                   23785081.5554
 116026172.493 7                  22079030.898
 113600407.40748  88519931.18145  21617415.7424                   21617424.9184
 126120573.56945  98275821.62242  23999949.3984                   23999962.4414
 108027418.09248  84177305.11046  20556908.3134                   20556914.7974
 11  7 26  2  4  0.0000000  0  9G25G10G17G12G09G05G04G27G02
 126198604.821 7                  24014803.734
 109717584.86247  85494200.23546  20878507.0634                   20878516.1024
 122129771.353 6                  23240510.781
 112035532.228 8                  21319655.016
 125073050.00047  97459604.49844  23800620.2814                   23800630.7774
 115934512.716 7                  22061588.602
 113676527.76348  88579245.72845  21631900.8674                   21631910.0394
 126186046.99045  98326839.83843  24012408.7034                   24012421.1684
 108026265.98948  84176407.36246  20556688.8594                   20556695.8014
 11  7 26  2  4 30.0000000  0  9G25G10G17G12G09G05G04G27G02
 126100215.619 7                  23996080.695
 109713137.62447  85490734.87246  20877661.5554                   20877669.9694
 122186666.252 7                  23251337.031
 111980482.921 8                  21309179.352
 125154915.33847  97523395.61544  23816198.5784                   23816210.0824
 115843148.881 7                  22044202.734
 113752802.76648  88638680.77445  21646415.3754                   21646424.6684
 126251575.84545  98377901.15043  24024878.3204                   24024890.7194
 108025412.93348  84175742.64746  20556526.8914                   20556533.2974
 11  7 26  2  5  0.0000000  0  9G25G10G17G12G09G05G04G27G02
 126002019.430 7                  23977394.883
 109709323.35848  85487762.73146  20876935.1644                   20876944.4344
 122243719.633 6                  23262194.367
 111925886.302 8                  21298789.609
 125236925.34747  97587299.48444  23831804.0944                   23831816.0944
 115752084.087 7                  22026873.422
 113829230.71548  88698234.99245  21660959.2664                   21660968.4454
 126317157.17656  98429003.41253  24037359.0234                   24037370.4804
 108024858.29048  84175310.47346  20556420.9924                   20556427.4694
 11  7 26  2  5 30.0000000  0  9G25G10G17G12G09G05G04G27G02
 125904018.786 7                  23958745.258
 109706142.46447  85485284.12746  20876330.3914                   20876339.0234
 122300931.814 6                  23273080.844
 111871744.861 8                  21288486.984
 125319076.81847  97651313.58643  23847438.4064                   23847448.3014
 115661321.022 7                  22009602.242
 113905809.72548  88757906.92545  21675531.8834                   21675541.2664
 126382788.44846  98480144.56343  24049848.5554                   24049860.2114
 108024601.07848  84175110.06046  20556372.1254                   20556378.4224
 11  7 26  2  6  0.0000000  0  9G25G10G17G12G09G05G04G27G02
 125806216.317 7                  23940134.359
 109703595.39847  85483299.41846  20875845.2274                   20875854.0234
 122358303.247 6                  23283998.648
 111818060.974 8                  21278271.406
 125401366.24247  97715435.18543  23863096.7194                   23863107.1844
 115570862.644 7                  21992388.219
 113982537.59748  88817694.85545  21690132.6094                   21690141.8444
 126448466.95746  98531322.52644  24062346.1024                   24062359.0474
 108024640.02048  84175140.42546  20556379.4694                   20556386.1294
 11  7 26  2  6 30.0000000  0  9G25G10G17G12G09G05G04G27G02
 125708614.564 7                  23921561.453
 109701681.94448  85481808.44446  20875481.2734                   20875489.8984
 122415834.264 6                  23294946.766
 111764836.200 8                  21268142.828
 125483790.20047  97779661.61443  23878781.8754                   23878792.6214
 115480711.728 7                  21975233.047
 114059412.24548  88877597.16545  21704761.6644                   21704770.5004
 126514189.86046  98582535.13443  24074852.9534                   24074865.5474
 108024973.92348  84175400.62546  20556443.0394                   20556449.8714
 11  7 26  2  7  0.0000000  0  9G25G10G17G12G09G05G04G27G02
 125611216.376 7                  23903027.500
 109700402.76547  85480811.71846  20875237.5474                   20875246.2034
 122473525.279 6                  23305923.719
 111712073.103 7                  21258102.281
 125566345.64646  97843990.50643  23894491.2974                   23894502.7234
 115390871.068 7                  21958137.000
 114136432.09048  88937612.61645  21719417.4144                   21719426.6174
 126579954.48846  98633780.20044  24087367.5554                   24087380.1954
 108025602.19947  84175890.19146  20556562.7504                   20556568.9024
 11  7 26  2  7 30.0000000  0  9G25G10G17G12G09G05G04G27G02
 125514024.316 7                  23884532.234
 109699758.14547  85480309.44546  20875115.0634                   20875123.3054
 122531376.894 6                  23316934.117
 111659773.826 8                  21248150.063
 125649028.77246  97908418.88143  23910225.6644                   23910236.2234
 115301343.630 7                  21941100.289
 114213594.72648  88997739.32545  21734101.1804                   21734110.7154
 126645758.14946  98685055.73744  24099890.0784                   24099902.4494
 108026523.41548  84176608.02246  20556738.1024                   20556744.3674
 11  7 26  2  8  0.0000000  0  9G25G10G17G12G09G05G04G27G02
 125417040.853 7                  23866076.930
 109699748.01947  85480301.57746  20875113.4454                   20875121.7274
 122589389.277 6                  23327972.750
 111607940.453 8                  21238285.969
 125731836.23046  97972944.12843  23925983.4924                   23925994.0514
 115212132.491 7                  21924123.859
 114290898.45648  89057975.98845  21748811.4614                   21748820.9614
 126711597.83746  98736359.30544  24112419.1254                   24112430.9534
 108027736.11048  84177552.97846  20556968.9844                   20556975.3984
 11  7 26  2  8 30.0000000  0  9G25G10G17G12G09G05G04G27G02
 125320268.923 7                  23847661.617
 109700373.01147  85480788.60046  20875231.8444                   20875240.9454
 122647562.949 6                  23339041.906
 111556575.350 7                  21228511.961
 125814764.78446  98037563.72043  23941763.4064                   23941775.0204
 115123240.163 8                  21907207.836
 114368341.42048  89118321.14345  21763548.8754                   21763558.0704
 126777471.23446  98787689.15344  24124954.2344                   24124966.2384
 108029239.88648  84178724.75946  20557254.7894                   20557261.1804
 11  7 26  2  9  0.0000000  0  9G25G10G17G12G09G05G04G27G02
 125223711.103 6                  23829286.148
 109701633.08048  85481770.49146  20875471.7114                   20875480.8714
 122705898.537 6                  23350143.984
 111505680.413 7                  21218826.836
 125897810.86346  98102274.89943  23957567.1564                   23957578.6524
 115034669.696 7                  21890353.758
 114445921.49848  89178773.15245  21778311.7424                   21778321.0824
 126843375.38746  98839043.00044  24137494.4384                   24137507.6994
 108031033.44048  84180122.33946  20557596.0314                   20557602.7934
 11  7 26  2  9 30.0000000  0  9G25G10G17G12G09G05G04G27G02
 125127369.930 7                  23810953.070
 109703528.41548  85483247.39246  20875832.0394                   20875841.1914
 122764396.362 6                  23361275.609
 111455257.523 8                  21209232.141
 125980971.48846  98167075.34343  23973391.1644                   23973403.3794
 114946423.754 7                  21873561.453
 114523636.88848  89239330.58945  21793100.7734                   21793109.8634
 126909307.70046  98890418.75244  24150042.3364                   24150054.0354
 108033116.04248  84181745.15946  20557992.6884                   20557998.6294
 11  7 26  2 10  0.0000000  0  9G25G10G17G12G09G05G04G27G02
 125031248.018 7                  23792662.258
 109706058.89947  85485219.20746  20876313.8914                   20876323.0204
 122823056.589 6                  23372437.852
 111405309.067 8                  21199726.930
 126064243.10346  98231962.25143  23989238.1174                   23989249.0204
 114858505.119 7                  21856830.852
 114601485.65248  89299991.97845  21807914.6024                   21807923.7114
 126975265.37946  98941814.30243  24162593.3524                   24162605.7114
 108035485.96148  84183591.87046  20558443.5394                   20558449.6214
 11  7 26  2 10 30.0000000  0  9G25G10G17G12G09G05G04G27G02
 124935348.083 7                  23774413.109
 109709224.77047  85487686.13445  20876916.6484                   20876925.3134
 122881879.634 7                  23383632.016
 111355836.599 8                  21190312.672
 126147622.15246  98296932.91743  24005104.6094                   24005116.1334
 114770916.740 7                  21840163.250
 114679466.01048  89360755.89445  21822754.1884                   21822763.0084
 127041245.71846  98993227.54343  24175148.6884                   24175161.2074
 108038142.23048  84185661.71746  20558948.4384                   20558955.5314
 11  7 26  2 11  0.0000000  0  9G25G10G17G12G09G05G04G27G02
 124839672.651 7                  23756206.664
 109713025.96047  85490648.11646  20877639.7734                   20877647.9534
 122940866.120 7                  23394856.961
 111306842.356 8                  21180989.203
 126231105.41947  98361984.78043  24020991.0394                   24021002.4104
 114683661.455 8                  21823559.219
 114757575.71048  89421620.59545  21837617.3754                   21837627.2344
 127107245.77546  99044656.10143  24187707.4614                   24187720.9574
 108041083.74548  84187953.83946  20559508.7504                   20559515.0234
 11  7 26  2 11 30.0000000  0  9G25G10G17G12G09G05G04G27G02
 124744224.606 7                  23738042.930
 109717462.50448  85494105.18946  20878484.0314                   20878492.4614
 123000016.473 7                  23406112.680
 111258328.906 8                  21171757.141
 126314689.77146  98427115.37943  24036896.6024                   24036907.8794
 114596741.990 7                  21807018.359
 114835813.10148  89482584.78545  21852505.9694                   21852515.4494
 127173262.92645  99096098.04643  24200270.8524                   24200283.5274
 108044309.81348  84190467.68446  20560122.5554                   20560128.8404
 11  7 26  2 12  0.0000000  0  9G25G10G17G12G09G05G04G27G02
 124649006.579 7                  23719923.398
 109722534.69447  85498057.56646  20879448.9924                   20879457.8164
 123059330.946 7                  23417399.922
 111210297.910 8                  21162617.477
 126398371.69447  98492322.07343  24052820.3594                   24052832.5744
 114510160.938 7                  21790542.438
 114914176.36748  89543647.06545  21867417.4144                   21867427.4384
 127239294.72045  99147551.33642  24212835.5944                   24212848.8364
 108047819.24047  84193202.32246  20560790.6414                   20560796.7664
 11  7 26  2 12 30.0000000  0  9G25G10G17G12G09G05G04G27G02
 124554021.247 7                  23701848.188
 109728242.53847  85502505.25646  20880535.5004                   20880544.4344
 123118809.948 6                  23428718.383
 111162751.403 8                  21153569.867
 126482147.92847  98557602.21544  24068762.8204                   24068773.9964
 114423921.034 7                  21774131.563
 114992663.75348  89604806.07645  21882352.9844                   21882363.0274
                                  24225401.7344                   24225417.0164
 108051610.76348  84196156.76746  20561511.9454                   20561518.4774
 11  7 26  2 13  0.0000000  0  9G25G10G17G12G09G05G04G27G02
 124459271.144 7                  23683817.836
 109734585.60347  85507447.92346  20881742.0474                   20881751.3594
 123178453.708 7                  23440068.164
 111115691.674 8                  21144614.250
 126566014.99947  98622953.14844  24084722.0314                   24084733.1954
 114338025.599 7                  21757786.484
 115071273.06748  89666060.08845  21897312.0864                   21897321.4654
                                  24237974.2504                   24237986.2384
 108055682.95448  84199329.92146  20562286.6954                   20562293.0784
 11  7 26  2 13 30.0000000  0  9G25G10G17G12G09G05G04G27G02
 124364758.898 7                  23665833.188
 109741563.76347  85512885.47746  20883070.1954                   20883079.0394
 123238262.573 7                  23451449.313
 111069120.382 8                  21135752.156
 126649969.62347  98688372.31944  24100698.2194                   24100710.0904
 114252477.050 7                  21741507.172
 115150002.43647  89727407.65345  21912293.6954                   21912303.2704
 127437450.23955  99301958.05252  24250543.4844                   24250557.1414
 108060034.81947  84202721.00946  20563114.7424                   20563121.2854
 11  7 26  2 14  0.0000000  0  9G25G10G17G12G09G05G04G27G02
 124270487.262 7                  23647893.695
 109749177.01447  85518817.90446  20884519.2664                   20884527.6374
 123298237.195 7                  23462861.930
 111023039.536 8                  21126983.586
 126734008.25847  98753856.93244  24116690.6414                   24116702.2624
 114167278.315 7                  21725293.750
 115228850.17947  89788847.44945  21927298.1334                   21927307.9264
 127503512.82955  99353435.40252  24263116.6804                   24263127.8524
 108064665.63848  84206329.46046  20563995.9224                   20564002.2154
 11  7 26  2 14 30.0000000  0  9G25G10G17G12G09G05G04G27G02
 124176458.872 7                  23630000.547
 109757425.04647  85525244.96446  20886088.4384                   20886097.0234
 123358377.826 7                  23474305.945
 110977450.906 8                  21118308.336
 126818127.67447  98819404.49244  24132697.2894                   24132709.2934
 114082432.018 7                  21709148.430
 115307814.49647  89850378.10645  21942324.4844                   21942334.2544
 127569576.22946  99404913.38942  24275687.3754                   24275699.2814
 108069574.20548  84210154.34746  20564930.0784                   20564936.4384
 11  7 26  2 15  0.0000000  0  9G25G10G17G12G09G05G04G27G02
 124082676.339 7                  23612154.203
 109766307.64647  85532166.49846  20887778.6564                   20887787.1564
 123418684.593 6                  23485781.555
 110932356.475 8                  21109726.922
 126902324.88747  98885012.66544  24148719.5864                   24148731.4224
 113997940.660 7                  21693070.133
 115386893.46447  89911998.08345  21957372.8834                   21957382.1914
 127635637.63246  99456389.77342  24288257.5864                   24288269.9454
 108074759.10248  84214194.55646  20565916.5164                   20565923.0394
 11  7 26  2 15 30.0000000  0  9G25G10G17G12G09G05G04G27G02
 123989142.397 7                  23594354.625
 109775824.93848  85539582.59546  20889589.5004                   20889598.5704
 123479158.258 6                  23497290.313
 110887758.499 8                  21101240.031
 126986596.23447  98950678.63444  24164756.5474                   24164768.1214
 113913807.005 8                  21677060.211
 115466085.31047  89973706.04045  21972442.1804                   21972451.4184
 127701694.58846  99507862.72843  24300828.2344                   24300840.9734
 108080219.33048  84218449.30046  20566955.8524                   20566962.2774
 11  7 26  2 16  0.0000000  0  9G25G10G17G12G09G05G04G27G02
 123895859.812 6                  23576603.102
 109785976.48848  85547492.90646  20891521.9454                   20891530.3134
 123539798.946 6                  23508829.758
 110843658.935 8                  21092848.266
 127070938.33147  99016399.71044  24180805.7194                   24180817.3954
 113830034.090 8                  21661118.367
 115545388.22147  90035500.52445  21987533.4454                   21987542.7584
 127767744.54046  99559330.21543  24313397.5314                   24313409.7584
 108085953.66848  84222917.62246  20568047.0704                   20568053.1884
 11  7 26  2 16 30.0000000  0  9G25G10G17G12G09G05G04G27G02
 123802831.199 6                  23558900.984
 109796761.90648  85555897.13246  20893574.0554                   20893582.8954
 123600607.037 6                  23520400.922
 110800059.233 8                  21084551.344
 127155348.17947  99082173.57144  24196868.9454                   24196880.0824
 113746624.476 7                  21645246.523
 115624800.55647  90097380.29945  22002644.8444                   22002654.4614
 127833784.71846  99610790.07743  24325964.7664                   24325976.6054
 108091961.23848  84227598.85646  20569190.2584                   20569196.7344
 11  7 26  2 17  0.0000000  0  9G25G10G17G12G09G05G04G27G02
 123710059.211 6                  23541247.211
 109808180.79148  85564794.97446  20895746.9384                   20895755.6844
 123661582.829 6                  23532004.594
 110756961.348 8                  21076350.594
 127239822.30747  99147997.57544  24212943.8984                   24212955.5514
 113663580.734 7                  21629443.570
 115704320.30947  90159343.77245  22017776.9304                   22017786.0984
 127899812.40046  99662240.23843  24338529.1174                   24338540.8524
 108098240.73448  84232491.99146  20570385.2034                   20570391.4734
 11  7 26  2 17 30.0000000  0  9G25G10G17G12G09G05G04G27G02
 123617546.539 6                  23523642.305
 109820233.08148  85574186.37846  20898040.5234                   20898048.9224
 123722726.766 6                  23543639.242
 110714367.057 8                  21068244.789
 127324357.55847  99213869.17143  24229030.9454                   24229042.4024
 113580905.771 7                  21613710.836
 115783945.77248  90221389.64345  22032929.1334                   22032938.4144
 127965824.94346  99713678.55743  24351090.5704                   24351103.1214
 108104791.15948  84237596.23646  20571631.5084                   20571638.1994
 11  7 26  2 18  0.0000000  0  9G25G10G17G12G09G05G04G27G02
 123525296.022 7                  23506087.984
 109832918.58348  85584071.20446  20900454.2194                   20900463.1024
 123784039.198 7                  23555307.266
 110672278.699 8                  21060235.586
 127408950.84246  99279785.98543  24245128.2584                   24245139.3554
 113498602.240 8                  21598048.641
 115863675.24247  90283516.53345  22048101.4614                   22048110.2274
 128031819.58846  99765102.94343  24363648.7974                   24363661.4614
 108111611.54948  84242910.84346  20572929.4924                   20572935.5664
 11  7 26  2 18 30.0000000  0  9G25G10G17G12G09G05G04G27G02
 123433310.043 7                  23488583.813
 109846236.30048  85594448.65446  20902988.7344                   20902996.9574
 123845520.308 6                  23567006.250
 110630697.656 8                  21052323.172
 127493598.65146  99345745.31743  24261235.9774                   24261247.7274
 113416672.520 8                  21582458.367
 115943506.88647  90345723.02245  22063292.4614                   22063301.4414
 128097793.72546  99816511.30343  24376203.8134                   24376215.8444
 108118700.59748  84248434.80246  20574278.3984                   20574284.5594
 11  7 26  2 19  0.0000000  0  9G25G10G17G12G09G05G04G27G02
 123341591.300 7                  23471129.984
 109860186.09347  85605318.63846  20905643.1174                   20905652.0474
 123907170.448 6                  23578738.203
 110589625.896 8                  21044507.344
 127578297.56746  99411744.47443  24277353.6174                   24277365.4264
 113335119.596 8                  21566939.211
 116023438.70247  90408007.58945  22078502.9694                   22078511.8554
 128163744.74746  99867901.64143  24388753.6644                   24388765.9844
 108126056.76248  84254166.90746  20575678.0234                   20575684.7114
 11  7 26  2 19 30.0000000  0  9G25G10G17G12G09G05G04G27G02
 123250142.433 7                  23453728.008
 109874767.32947  85616680.65746  20908417.9694                   20908426.6454
 123968989.783 7                  23590502.078
 110549065.105 8                  21036788.953
 127663044.39346  99477780.96043  24293480.4224                   24293491.9144
 113253945.823 7                  21551492.359
 116103469.28547  90470369.10145  22093732.1884                   22093741.4534
 128229669.90046  99919271.86043  24401298.4694                   24401311.2234
 108133678.91948  84260106.26246  20577128.6954                   20577134.4884
 11  7 26  2 20  0.0000000  0  9G25G10G17G12G09G05G04G27G02
 123158966.425 7                  23436378.109
 109889979.83347  85628534.58046  20911312.4534                   20911321.3134
 124030978.830 6                  23602298.141
 110509017.348 8                  21029168.078
 127747836.07946  99543852.39643  24309615.4064                   24309626.6334
 113173154.212 8                  21536118.070
 116183596.82147  90532806.16345  22108980.1954                   22108989.5634
 128295566.81646  99970620.05743  24413838.8984                   24413851.3914
 108141566.38148  84266252.35346  20578629.6334                   20578636.2234
 11  7 26  2 20 30.0000000  0  9G25G10G17G12G09G05G04G27G02
 123068065.923 7                  23419080.047
 109905823.37048  85640880.22246  20914327.7034                   20914336.6214
 124093137.820 6                  23614126.727
 110469484.247 8                  21021644.984
 127832669.42846  99609956.25742  24325758.6884                   24325770.2584
 113092747.308 8                  21520817.203
 116263819.76947  90595317.57345  22124245.8364                   22124255.4494
 128361432.74046 100021944.12543  24426372.5164                   24426385.2114
 108149718.35948  84272604.56646  20580180.8364                   20580187.0944
 11  7 26  2 21  0.0000000  0  9G25G10G17G12G09G05G04G27G02
 122977443.308 7                  23401835.195
 109922296.96348  85653716.81446  20917462.4304                   20917470.8014
 124155467.150 7                  23625987.016
 110430467.335 8                  21014220.375
 127917540.89746  99676089.88143  24341909.1564                   24341920.8444
 113012727.616 8                  21505589.969
 116344136.22747  90657901.84145  22139529.5634                   22139538.7584
 128427264.81946 100073241.79443  24438899.9304                   24438912.2854
 108158132.99748  84279161.45646  20581782.0944                   20581788.1134
 11  7 26  2 21 30.0000000  0  9G25G10G17G12G09G05G04G27G02
 122887101.406 7                  23384643.641
 109939400.03747  85667043.91246  20920717.0864                   20920725.3484
 124217967.363 6                  23637880.930
 110391968.556 8                  21006894.219
 128002447.35346  99742250.72542  24358066.8594                   24358077.8444
 112933097.811 7                  21490436.914
 116424544.33847  90720557.51645  22154830.9924                   22154840.0234
 128493060.45145 100124511.01842  24451420.3524                   24451432.4774
 108166809.40048  84285922.31746  20583432.8594                   20583438.9694
 11  7 26  2 22  0.0000000  0  9G25G10G17G12G09G05G04G27G02
 122797043.078 7                  23367506.250
 109957132.30448  85680861.29245  20924091.5004                   20924099.4144
 124280638.410 7                  23649807.219
 110353989.732 8                  20999667.063
 128087385.72146  99808436.47842  24374229.7424                   24374240.6884
 112853860.535 7                  21475358.305
 116505042.74547  90783283.57745  22170149.1644                   22170158.2344
 128558817.18145 100175749.95742  24463933.6724                   24463946.6484
 108175746.50748  84292886.31746  20585133.3754                   20585139.7424
 11  7 26  2 22 30.0000000  0  9G25G10G17G12G09G05G04G27G02
 122707270.988 7                  23350422.969
 109975492.84747  85695168.24646  20927585.6884                   20927593.7034
 124343480.834 6                  23661765.570
 110316532.429 8                  20992539.180
 128172352.49646  99874644.31742  24390398.2664                   24390409.7384
 112775018.523 7                  21460355.227
 116585629.59547  90846078.51645  22185484.5554                   22185493.5124
 128624532.29545 100226956.42542  24476439.1804                   24476451.8054
 108184943.26548  84300052.63446  20586883.7504                   20586890.1914
 11  7 26  2 23  0.0000000  0  9G25G10G17G12G09G05G04G27G02
 122617787.580 7                  23333394.633
 109994481.19047  85709964.38046  20931198.8444                   20931207.1684
 124406494.696 7                  23673756.969
 110279598.168 8                  20985510.656
 128257344.59646  99940871.98242  24406572.2664                   24406582.8284
 112696573.993 7                  21445427.633
 116666303.23747  90908941.10945  22200835.5474                   22200845.7274
 128690203.20945 100278128.47242  24488934.8134                   24488948.5514
 108194398.23848  84307420.16546  20588683.0004                   20588689.4144
 11  7 26  2 23 30.0000000  0  8G25G10G17G12G09G05G04G02
 122528595.619 7                  23316422.164
 110014096.39148  85725248.97545  20934931.1564                   20934939.8714
 124469680.357 6                  23685780.391
 110243188.735 8                  20978582.391
 128342358.90646 100007116.94043  24422748.8134                   24422760.2034
 112618529.548 7                  21430576.211
 116747062.05047  90971870.06045  22216203.8054                   22216213.0354
 108204110.38648  84314988.08946  20590531.4224                   20590537.2854
 11  7 26  2 24  0.0000000  0  8G25G10G17G12G09G05G04G02
 122439697.785 7                  23299505.383
 110034337.66948  85741021.42346  20938783.0474                   20938791.4384
 124533037.800 6                  23697836.047
 110207305.468 8                  20971753.906
 128427392.36746 100073376.80543  24438931.1884                   24438942.3094
 112540887.962 7                  21415801.781
 116827904.27747  91034864.01945  22231587.5554                   22231596.8834
 108214078.51148  84322755.46846  20592427.9924                   20592434.4454
 11  7 26  2 24 30.0000000  0  8G25G10G17G12G09G05G04G02
 122351096.544 7                  23282644.641
 110055204.30648  85757281.17145  20942753.6724                   20942761.9344
 124596567.462 6                  23709926.336
 110171949.899 8                  20965025.891
 128512441.45946 100139648.79243  24455115.4144                   24455126.2854
 112463651.557 7                  21401103.750
 116908828.14447  91097921.56045  22246987.3524                   22246996.4574
 108224301.48048  84330721.42646  20594373.4384                   20594379.5474
 11  7 26  2 25  0.0000000  0  8G25G10G17G12G09G05G04G02
 122262794.899 7                  23265841.430
 110076695.88448  85774027.87045  20946843.2504                   20946851.6524
 124660269.734 6                  23722046.789
 110137124.374 8                  20958398.867
 128597503.18746 100205930.66043  24471302.0704                   24471313.3834
 112386823.095 7                  21386483.844
 116989832.27047  91161041.65845  22262401.9694                   22262410.3204
 108234778.38848  84338885.25746  20596367.3914                   20596373.4614
 11  7 26  2 25 30.0000000  0  8G25G10G17G12G09G05G04G02
 122174795.293 7                  23249095.906
 110098811.45548  85791260.80045  20951051.8524                   20951060.2384
 124724144.813 6                  23734203.008
 110102829.768 8                  20951872.984
 128682574.09846 100272219.66243  24487490.5474                   24487501.9344
 112310404.975 7                  21371942.156
 117070914.83247  91224222.88945  22277830.9924                   22277839.8794
 108245507.74348  84347245.80546  20598409.2274                   20598415.1174
 11  7 26  2 26  0.0000000  0  8G25G10G17G12G09G05G04G02
 122087100.371 7                  23232408.227
 110121549.95548  85808979.14246  20955378.8524                   20955387.2234
 124788192.944 6                  23746390.188
 110069067.763 8                  20945448.297
 128767651.10546 100338513.40143  24503680.2194                   24503691.2584
 112234399.528 7                  21357478.844
 117152074.39347  91287464.12645  22293275.2424                   22293284.5044
 108256488.57148  84355802.31146  20600498.0784                   20600504.3134
 11  7 26  2 26 30.0000000  0  8G25G10G17G12G09G05G04G02
 121999712.911 7                  23215777.891
 110144910.81248  85827182.42246  20959824.0944                   20959833.0664
 124852414.196 6                  23758612.047
 110035840.033 8                  20939124.922
 128852731.12546 100404809.49343  24519870.5164                   24519881.5514
 112158809.373 7                  21343094.086
 117233309.24947  91350764.02045  22308733.7344                   22308743.0394
 108267719.57948  84364553.75046  20602635.7504                   20602641.8324
 11  7 26  2 27  0.0000000  0  8G25G10G17G12G09G05G04G02
 121912635.532 7                  23199208.141
 110168893.08147  85845869.92346  20964387.6484                   20964396.6134
 124916808.937 7                  23770866.172
 110003148.186 8                  20932904.203
 128937810.95746 100471105.42843  24536061.2974                   24536071.9384
 112083637.113 7                  21328789.281
 117314617.92147  91414121.43745  22324206.3444                   22324215.1054
 108279199.63448  84373499.25346  20604820.0084                   20604826.5354
 11  7 26  2 27 30.0000000  0  8G25G10G17G12G09G05G04G02
 121825870.786 7                  23182697.859
 110193495.80048  85865040.90346  20969069.8914                   20969078.0744
 124981377.484 7                  23783153.297
 109970993.563 8                  20926785.180
 129022887.60346 100537398.90043  24552250.0784                   24552261.5744
 112008885.000 7                  21314564.406
 117395998.68947  91477535.02045  22339692.2194                   22339702.0314
 108290927.78248  84382638.06546  20607051.8204                   20607058.2114
 11  7 26  2 28  0.0000000  0  8G25G10G17G12G09G05G04G02
 121739421.459 7                  23166246.766
 110218718.08848  85884694.66546  20973869.2734                   20973877.7424
 125046120.006 7                  23795473.070
 109939378.030 8                  20920769.078
 129107958.00546 100603687.48043  24568438.5314                   24568449.5664
 111934555.613 7                  21300420.047
 117477449.91747  91541003.52245  22355191.8594                   22355201.4344
 108302902.94148  84391969.37346  20609330.9694                   20609336.9844
 11  7 26  2 28 30.0000000  0  8G25G10G17G12G09G05G04G02
 121653290.002 7                  23149855.961
 110244558.83548  85904830.35046  20978786.5784                   20978794.7464
 125111036.681 7                  23807825.930
 109908301.973 8                  20914855.125
 129193018.68546 100669968.51243  24584625.1174                   24584636.3404
 111860651.306 7                  21286356.539
 117558970.06047  91604525.73345  22370705.0634                   22370714.0784
 108315123.64948  84401492.00646  20611656.1804                   20611662.3484
 11  7 26  2 29  0.0000000  0  8G25G10G17G12G09G05G04G02
 121567479.255 7                  23133526.695
 110271017.34647  85925447.40546  20983821.4064                   20983829.8484
 125176127.522 7                  23820213.297
 109877767.693 8                  20909044.578
 129278066.77046 100736239.69943  24600809.1644                   24600820.4574
 111787174.611 8                  21272374.195
 117640557.64647  91668100.50945  22386230.7504                   22386239.8594
 108327588.57948  84411204.95446  20614027.8984                   20614034.5594
 11  7 26  2 29 30.0000000  0  8G25G10G17G12G09G05G04G02
 121481991.658 7                  23117259.141
 110298092.22247  85946544.74346  20988973.3444                   20988981.6914
 125241393.227 7                  23832631.758
 109847776.487 8                  20903337.633
 129363098.99146 100802498.51043  24616989.8364                   24617001.4844
 111714127.704 8                  21258473.930
 117722211.07947  91731726.56545  22401768.4144                   22401777.6764
 108340297.04248  84421107.67246  20616446.3134                   20616453.1134
 11  7 26  2 30  0.0000000  0  8G25G10G17G12G09G05G04G02
 121396829.866 7                  23101052.766
 110325782.22148  85968121.39446  20994242.6884                   20994251.0044
 125306833.674 7                  23845085.289
 109818329.669 8                  20897734.047
 129448112.16046 100868742.48543  24633167.6414                   24633179.3284
 111641513.106 8                  21244655.828
 117803928.93047  91795402.83044  22417319.3364                   22417327.9184
 108353247.50248  84431198.96046  20618910.7974                   20618916.9774
 11  7 26  2 30 30.0000000  0  8G25G10G17G12G09G05G04G02
 121311996.752 7                  23084909.758
 110354086.87047  85990176.99546  20999628.7424                   20999637.2704
 125372449.143 7                  23857570.633
 109789428.650 7                  20892234.648
 129533103.56546 100934969.50543  24649340.7664                   24649352.8874
 111569333.288 8                  21230920.320
 117885709.45647  91859127.94045  22432881.0234                   22432890.5864
 108366439.24348  84441478.26846  20621420.9144                   20621427.2624
 11  7 26  2 31  0.0000000  0  8G25G10G17G12G09G05G04G02
 121227494.921 7                  23068829.141
 110383004.97747  86012710.61846  21005131.7894                   21005140.2774
 125438239.875 7                  23870091.430
 109761074.878 8                  20886839.305
 129618069.91246 101001176.97343  24665509.2974                   24665521.6764
 111497590.692 8                  21217268.273
 117967551.54347  91922901.01345  22448455.0944                   22448465.2074
 108379871.14648  84451944.73546  20623977.3834                   20623983.6764
 11  7 26  2 31 30.0000000  0  8G25G10G17G12G09G05G04G02
 121143327.304 7                  23052812.844
 110412535.55748  86035721.49045  21010750.9454                   21010759.7074
 125504206.302 6                  23882644.219
 109733269.929 8                  20881547.711
 129703008.33646 101067362.68243  24681673.2034                   24681685.1764
 111426288.143 8                  21203700.000
 118049453.66747  91986720.87245  22464040.5554                   22464050.6724
 108393542.88148  84462598.05646  20626578.8834                   20626585.0164
 11  7 26  2 32  0.0000000  0  8G25G10G17G12G09G05G04G02
 121059495.936 7                  23036860.242
 110442676.96247  86059208.31246  21016486.6254                   21016495.2384
 125570348.085 6                  23895230.781
 109706014.650 8                  20876361.344
 129787915.26446 101133523.80642  24697830.3594                   24697842.0434
 111355427.021 8                  21190215.438
 118131413.96847  92050586.06844  22479637.0314                   22479646.7734
 108407451.47448  84473435.94646  20629225.8364                   20629231.9224
 11  7 26  2 32 30.0000000  0  8G25G10G17G12G09G05G04G02
 120976003.713 7                  23020972.422
 110473428.36147  86083170.46046  21022338.5084                   21022347.2464
 125636665.492 6                  23907850.227
 109679310.597 8                  20871279.789
 129872788.10345 101199658.45342  24713980.6254                   24713992.8484
 111285010.158 8                  21176815.508
 118213431.19847  92114495.61344  22495244.0084                   22495253.0944
 108421596.52148  84484458.08246  20631916.8754                   20631923.6374
 11  7 26  2 33  0.0000000  0  8G25G10G17G12G09G05G04G02
 120892853.133 7                  23005149.563
 110504787.97648  86107606.53346  21028306.5864                   21028314.7114
 125703158.786 6                  23920502.766
 109653158.946 8                  20866302.859
 129957623.51945 101265763.85442  24730124.1254                   24730136.8054
 111215039.638 8                  21163500.469
 118295503.69147  92178448.20444  22510862.2194                   22510871.7774
 108435976.91848  84495663.60046  20634653.6564                   20634660.0594
 11  7 26  2 33 30.0000000  0  8G25G10G17G12G09G05G04G02
 120810046.763 7                  22989391.891
 110536754.71148  86132515.70146  21034389.2424                   21034397.5084
 125769828.043 6                  23933189.031
 109627560.730 8                  20861431.773
 130042418.26046 101331837.63643  24746260.8284                   24746273.1174
 111145517.649 8                  21150271.359
 118377630.03747  92242442.76744  22526490.4534                   22526499.8404
 108450591.25248  84507051.41646  20637434.4774                   20637440.9734
 11  7 26  2 34  0.0000000  0  8G25G10G17G12G09G05G04G02
 120727587.293 7                  22973700.625
 110569327.76048  86157897.31146  21040588.1334                   21040596.2704
 125836673.606 6                  23945909.805
 109602517.231 8                  20856666.273
 130127169.59446 101397877.51943  24762388.3914                   24762400.4064
 111076446.866 8                  21137126.945
 118459808.80747  92306478.20444  22542128.8134                   22542138.1414
 108465438.87348  84518621.01446  20640260.2114                   20640266.3914
 11  7 26  2 34 30.0000000  0  8G25G10G17G12G09G05G04G02
 120645477.465 8                  22958075.453
 110602506.01247  86183750.50245  21046901.2114                   21046909.8444
 125903695.651 6                  23958663.516
 109578030.000 8                  20852006.648
 130211874.42146 101463881.28842  24778507.1414                   24778519.1024
 111007829.365 8                  21124069.328
 118542038.73747  92370553.49644  22557776.5084                   22557785.3324
 108480518.46748  84530371.36846  20643129.7664                   20643136.2194
 11  7 26  2 35  0.0000000  0  8G25G10G17G12G09G05G04G02
 120563719.692 7                  22942517.664
 110636287.88347  86210074.04745  21053330.0394                   21053338.5984
 125970894.113 6                  23971451.922
 109554099.855 8                  20847452.813
 130296529.79546 101529846.46643  24794616.7814                   24794628.4964
 110939667.522 8                  21111099.141
 118624318.08147  92434667.27044  22573433.2664                   22573442.5554
 108495828.73748  84542301.47446  20646042.9924                   20646049.3364
 11  7 26  2 35 30.0000000  0  8G25G10G17G12G09G05G04G02
 120482316.735 7                  22927026.578
 110670672.13747  86236866.99246  21059872.7814                   21059881.3134
 126038269.101 6                  23984272.992
 109530728.051 8                  20843005.305
 130381132.68546 101595770.74042  24810715.8984                   24810727.5904
 110871963.461 8                  21098214.719
 118706645.51647  92498818.51444  22589099.8674                   22589109.2074
 108511368.65048  84554410.52546  20649000.1644                   20649006.4064
 11  7 26  2 36  0.0000000  0  8G25G10G17G12G09G05G04G02
 120401271.105 7                  22911604.281
 110705657.43948  86264128.27646  21066530.2584                   21066538.5514
 126105820.885 6                  23997127.586
 109507915.804 8                  20838664.086
 130465680.16046 101661651.85443  24826805.0474                   24826816.3554
 110804719.381 8                  21085419.055
 118789019.75047  92563006.24344  22604775.3984                   22604784.2854
 108527137.22548  84566697.75446  20652000.7974                   20652006.8674
 11  7 26  2 36 30.0000000  0  8G25G10G17G12G09G05G04G02
 120320585.188 7                  22896250.523
 110741241.95847  86291856.49245  21073301.9224                   21073310.3754
 126173549.508 7                  24010015.945
 109485663.935 8                  20834429.852
 130550169.04246 101727487.27443  24842882.9384                   24842894.4144
 110737937.368 7                  21072710.570
 118871439.21647  92627229.22044  22620459.1484                   22620468.2624
 108543133.10048  84579162.08946  20655044.7734                   20655050.9734
 11  7 26  2 37  0.0000000  0  7G25G10G17G12G05G04G02
 120240262.947 7                  22880965.164
 110777425.81147  86320051.71646  21080187.3364                   21080196.3554
 126241456.325 6                  24022937.984
 109463975.049 8                  20830302.328
 110671620.945 8                  21060090.992
 118953903.79947  92691487.32644  22636152.1254                   22636161.0554
 108559356.48048  84591803.70646  20658131.9304                   20658137.5594
 11  7 26  2 37 30.0000000  0  7G25G10G17G12G05G04G02
 120160306.114 7                  22865750.055
 110814206.78447  86348712.23546  21087186.5944                   21087194.9224
 126309540.623 7                  24035894.461
 109442849.323 8                  20826282.273
 110605771.585 8                  21047560.258
 119036411.27547  92755778.88544  22651851.6724                   22651861.7774
 108575805.33848  84604621.02646  20661262.1644                   20661267.9064
 11  7 26  2 38  0.0000000  0  7G25G10G17G12G05G04G02
 120080716.661 7                  22850604.609
 110851582.73247  86377836.36446  21094299.6724                   21094307.6334
 126377801.762 6                  24048883.156
 109422287.283 8                  20822369.594
 110540390.782 7                  21035118.852
 119118959.63347  92820102.30244  22667560.5704                   22667570.5434
 108592477.83048  84617612.59646  20664434.7664                   20664441.1914
 11  7 26  2 38 30.0000000  0  7G25G10G17G12G05G04G02
 120001497.012 7                  22835529.219
 110889551.99348  86407422.81545  21101524.2504                   21101532.2154
 126446239.867 7                  24061907.078
 109402290.160 8                  20818564.250
 110475480.281 7                  21022766.719
 119201547.63347  92884456.59344  22683276.7584                   22683286.3594
 108609372.95948  84630777.65846  20667649.8914                   20667655.8524
 11  7 26  2 39  0.0000000  0  7G25G10G17G12G05G04G02
 119922649.844 7                  22820525.836
 110928113.10748  86437470.46046  21108862.2034                   21108870.5514
 126514854.950 6                  24074963.633
 109382858.337 8                  20814866.445
 110411042.583 8                  21010504.758
 119284173.79547  92948840.59744  22699000.2894                   22699009.7814
 108626489.45448  84644115.21346  20670906.8444                   20670912.7114
 11  7 26  2 39 30.0000000  0  7G25G10G17G12G05G04G02
 119844177.691 7                  22805592.836
 110967264.90047  86467978.37946  21116312.9694                   21116321.3404
 126583647.547 6                  24088054.086
 109363992.965 8                  20811276.203
 110347079.514 7                  20998333.031
 119366836.84347  93013253.35944  22714729.9064                   22714739.2234
 108643826.32148  84657624.48346  20674205.9454                   20674211.9384
 11  7 26  2 40  0.0000000  0  7G25G10G17G12G05G04G02
 119766083.752 7                  22790732.109
 111007006.36447  86498945.78145  21123875.0394                   21123883.6484
 126652617.698 6                  24101178.672
 109345695.928 8                  20807794.898
 110283593.995 8                  20986251.539
 119449535.97847  93077694.21844  22730467.4534                   22730476.7934
 108661383.17848  84671305.18146  20677546.7974                   20677553.1024
 11  7 26  2 40 30.0000000  0  7G25G10G17G12G05G04G02
 119688369.995 7                  22775942.875
 111047335.10748  86530370.78946  21131549.3914                   21131558.2034
 126721765.387 6                  24114337.703
 109327967.437 8                  20804421.047
 110220587.705 8                  20974261.867
 119532269.53247  93142161.93444  22746211.1254                   22746221.1954
 108679158.41148  84685156.04246  20680929.2974                   20680935.4344
 11  7 26  2 41  0.0000000  0  7G25G10G17G12G05G04G02
 119611039.041 7                  22761227.875
 111088249.70247  86562252.32845  21139335.0944                   21139343.7854
 126791090.573 6                  24127529.391
 109310808.394 8                  20801155.781
 110158062.487 8                  20962363.813
 119615035.98447  93206655.26044  22761961.5004                   22761970.9654
 108697150.60048  84699175.96246  20684353.1804                   20684359.4414
 11  7 26  2 41 30.0000000  0  7G25G10G17G12G05G04G02
 119534093.256 7                  22746585.648
 111129748.36047  86594588.97646  21147232.2584                   21147240.6294
 126860593.402 6                  24140755.156
 109294219.913 8                  20797999.016
 110096020.360 8                  20950557.547
 119697834.07447  93271173.25744  22777716.8674                   22777726.1884
 108715358.61848  84713364.06046  20687818.0234                   20687824.2344
 11  7 26  2 42  0.0000000  0  7G25G10G17G12G05G04G02
 119457535.557 7                  22732016.977
 111171829.67948  86627379.64846  21155239.8524                   21155248.6454
 126930273.769 6                  24154015.234
 109278202.838 8                  20794951.055
 110034463.592 8                  20938843.734
 119780662.74347  93335715.04844  22793479.0474                   22793487.6604
 108733781.86048  84727719.85946  20691323.8674                   20691329.8834
 11  7 26  2 42 30.0000000  0  7G25G10G17G12G05G04G02
 119381368.201 7                  22717523.133
 111214491.93548  86660622.99046  21163358.3594                   21163366.9064
 127000132.117 6                  24167308.805
 109262757.682 8                  20792011.992
 109973394.046 8                  20927222.438
 119863520.70647  93400279.67944  22809246.3674                   22809255.4574
 108752419.04548  84742242.37446  20694870.3364                   20694876.3914
 11  7 26  2 43  0.0000000  0  7G25G10G17G12G05G04G02
 119305593.727 7                  22703103.484
 111257733.73747  86694317.91245  21171586.5084                   21171595.4574
 127070168.048 6                  24180635.719
 109247885.540 8                  20789181.875
 109912813.844 8                  20915694.227
 119946406.59347  93464866.07744  22825018.8054                   22825028.5084
 108771268.79948  84756930.51746  20698457.2274                   20698463.3284
 11  7 26  2 43 30.0000000  0  7G25G10G17G12G05G04G02
 119230214.581 7                  22688758.945
 111301552.97148  86728462.79046  21179925.4774                   21179934.1604
 127140381.873 6                  24193997.063
 109233587.136 8                  20786460.906
 109852724.762 8                  20904260.031
 120029319.03147  93529473.17144  22840796.7034                   22840806.4184
 108790330.17848  84771783.56546  20702084.7504                   20702090.8324
 11  7 26  2 44  0.0000000  0  7G25G10G17G12G05G04G02
 119155233.422 7                  22674490.586
 111345948.04147  86763056.36845  21188373.5004                   21188382.2504
 127210773.509 6                  24207392.008
 109219863.272 8                  20783849.219
 109793129.030 8                  20892919.289
 120112257.14747  93594100.27344  22856578.8524                   22856588.6454
 108809602.46448  84786800.95346  20705751.7734                   20705757.6374
 11  7 26  2 44 30.0000000  0  7G25G10G17G12G05G04G02
 119080652.360 7                  22660298.242
 111390916.69448  86798096.90246  21196930.7584                   21196938.8834
 127281342.768 6                  24220820.953
 109206714.763 8                  20781347.055
 109734028.121 8                  20881672.805
 120195219.37646  93658746.16244  22872366.0554                   22872375.4454
 108829083.75948  84801981.20846  20709459.5234                   20709464.9144
 11  7 26  2 45  0.0000000  0  7G25G10G17G12G05G04G02
 119006474.235 7                  22646182.359
 111436457.81647  86833583.51445  21205597.0164                   21205605.4224
 127352089.928 7                  24234283.305
 109194142.294 8                  20778954.805
 109675424.373 8                  20870520.617
 120278204.74446  93723410.08744  22888157.4774                   22888166.8714
 108848773.61148  84817323.98046  20713206.0474                   20713212.2114
 11  7 26  2 45 30.0000000  0  7G25G10G17G12G05G04G02
 118932701.156 7                  22632143.617
 111482569.48047  86869514.69445  21214371.3524                   21214380.0274
 127423014.890 7                  24247780.813
 109182146.388 8                  20776671.883
 109617319.264 8                  20859463.492
 120361211.72746  93788090.87344  22903953.5864                   22903962.8794
 108868670.37248  84832827.96746  20716992.3364                   20716997.8324
 11  7 26  2 46  0.0000000  0  8G25G10G17G12G29G05G04G02
 118859336.116 7                  22618182.969
 111529250.52147  86905889.54645  21223254.3594                   21223263.0514
 127494118.006 7                  24261310.328
 109170728.130 8                  20774499.484
 129530226.18416                  24648790.031
 109559715.299 8                  20848501.914
 120444239.71246  93852788.01444  22919753.0864                   22919762.6764
 108888773.80048  84848492.99846  20720817.6804                   20720823.5234
 11  7 26  2 46 30.0000000  0  8G25G10G17G12G29G05G04G02
 118786381.421 7                  22604300.063
 111576498.70647  86942706.32345  21232246.1414                   21232253.9304
 127565399.187 7                  24274875.602
 109159888.437 8                  20772436.813
 129449991.668 6                  24633521.734
 109502614.159 8                  20837635.664
 120527287.39647  93917500.50444  22935556.2344                   22935565.3754
 108909082.62648  84864318.06746  20724682.3674                   20724688.2074
 11  7 26  2 47  0.0000000  0  8G25G10G17G12G29G05G04G02
 118713839.383 7                  22590495.719
 111624311.84147  86979963.31945  21241344.0554                   21241352.8014
 127636858.012 6                  24288473.203
 109149627.135 8                  20770483.742
 129369689.852 6                  24618240.563
 109446017.775 8                  20826866.195
 120610353.31847  93982227.24944  22951363.7664                   22951372.8954
 108929595.61548  84880302.23846  20728585.6954                   20728591.4654
 11  7 26  2 47 30.0000000  0  8G25G10G17G12G29G05G04G02
 118641712.205 7                  22576770.508
 111672688.16747  87017659.15945  21250550.1644                   21250558.1644
 127708494.672 6                  24302105.703
 109139945.016 8                  20768641.430
 129289321.113 6                  24602946.789
 109389927.462 8                  20816192.344
 120693436.10446  94046967.12744  22967173.5004                   22967182.6604
 108950311.36748  84896444.41146  20732527.6564                   20732533.8164
 11  7 26  2 48  0.0000000  0  8G25G10G17G12G29G05G04G02
 118570002.308 7                  22563124.180
 111721625.40447  87055792.08945  21259862.5634                   21259871.1564
 127780308.848 6                  24315771.703
 109130842.693 8                  20766909.211
 129208886.093 6                  24587640.234
 109334345.025 8                  20805614.984
 120776534.62147  94111719.24444  22982987.2034                   22982996.0944
 108971228.73248  84912743.66846  20736508.2584                   20736514.2344
 11  7 26  2 48 30.0000000  0  8G25G10G17G12G29G05G04G02
 118498711.984 7                  22549558.211
 111771121.89647  87094360.79145  21269280.9924                   21269289.7854
 127852300.575 6                  24329470.734
 109122320.370 8                  20765287.633
 129128385.201 6                  24572321.883
 109279272.300 8                  20795135.109
 120859647.79947  94176482.78044  22998803.0474                   22998811.5434
 108992346.52048  84929199.11446  20740527.0394                   20740532.6994
 11  7 26  2 49  0.0000000  0  8G25G10G17G12G29G05G04G02
 118427844.198 7                  22536072.539
 111821175.98347  87133363.97845  21278805.8284                   21278814.4804
 127924469.944 6                  24343204.656
 109114379.744 8                  20763776.313
 129047819.428 6                  24556990.656
 109224711.199 8                  20784752.203
 120942774.75747  94241257.08144  23014621.1564                   23014630.2814
 109013664.47648  84945810.52846  20744583.5004                   20744589.6764
 11  7 26  2 49 30.0000000  0  8G25G10G17G12G29G05G04G02
 118357400.816 7                  22522667.563
 111871785.25848  87172799.79445  21288437.2194                   21288444.7854
 127996817.132 5                  24356970.547
 109107020.242 8                  20762375.938
 128967188.716 6                  24541646.453
 109170663.252 8                  20774467.297
 121025913.97847  94306040.92144  23030442.2734                   23030450.9964
 109035181.08048  84962576.72446  20748677.9614                   20748684.5354
 11  7 26  2 50  0.0000000  0  8G25G10G17G12G29G05G04G02
 118287384.508 7                  22509343.867
 111922947.99647  87212666.88145  21298172.8984                   21298180.8324
 128069341.831 6                  24370772.086
 109100242.620 7                  20761085.930
 128886493.905 6                  24526290.898
 109117130.258 8                  20764280.602
 121109064.68947  94370833.68944  23046264.8674                   23046274.5434
 109056895.27248  84979496.89746  20752810.0234                   20752816.1724
 11  7 26  2 50 30.0000000  0  8G25G10G17G12G29G05G04G02
 118217797.525 7                  22496101.734
 111974662.21247  87252963.69445  21308014.0234                   21308022.3094
 128142043.968 6                  24384607.313
 109094047.517 8                  20759906.969
 128805735.737 7                  24510923.570
 109064114.217 8                  20754191.586
 121192225.39646  94435634.26044  23062090.1024                   23062099.0744
 109078806.09448  84996570.26746  20756979.0864                   20756985.5434
 11  7 26  2 51  0.0000000  0  8G25G10G17G12G29G05G04G02
 118148642.175 7                  22482941.641
 112026925.81347  87293688.58345  21317958.9774                   21317967.7034
 128214923.228 6                  24398475.328
 109088435.220 7                  20758839.023
 128724914.422 7                  24495544.047
 109011616.662 8                  20744201.883
 121275395.13646  94500441.81444  23077917.2344                   23077925.5594
 109100912.19548  85013795.81746  20761186.1804                   20761192.4184
 11  7 26  2 51 30.0000000  0  8G25G10G17G12G29G05G04G02
 118079920.824 7                  22469864.477
 112079736.54447  87334839.80545  21328008.5864                   21328017.7664
 128287979.731 6                  24412377.844
 109083405.693 7                  20757882.141
 128644030.618 6                  24480151.609
 108959638.949 8                  20734310.656
 121358572.89546  94565255.65544  23093744.8284                   23093753.9344
 109123212.69847  85031172.84446  20765429.8444                   20765436.0164
 11  7 26  2 52  0.0000000  0  8G25G10G17G12G29G05G04G02
 118011635.657 7                  22456870.461
 112133092.27047  87376415.69845  21338161.7974                   21338170.3244
 128361213.090 6                  24426313.828
 109078959.477 8                  20757036.203
 128563084.909 6                  24464747.172
 108908182.686 8                  20724518.781
 121441757.55746  94630074.88544  23109574.2664                   23109583.7774
 109145706.29548  85048700.35446  20769709.9694                   20769715.9104
 11  7 26  2 52 30.0000000  0  8G25G10G17G12G29G05G04G02
 117943789.258 7                  22443959.578
 112186991.31047  87418414.97445  21348418.7664                   21348427.0164
 128434623.664 6                  24440283.445
 109075097.383 8                  20756301.078
 128482077.962 6                  24449332.570
 108857249.944 8                  20714826.664
 121524948.06646  94694898.64844  23125404.2274                   23125414.5784
 109168392.43548  85066377.88346  20774027.0234                   20774032.9264
 11  7 26  2 53  0.0000000  0  8G25G10G17G12G29G05G04G02
 117876383.673 7                  22431132.781
 112241431.29447  87460835.77245  21358778.1484                   21358786.2774
 128508211.065 7                  24454286.594
 109071819.382 8                  20755677.523
 128401010.229 6                  24433905.297
 108806841.950 8                  20705234.070
 121608143.37846  94759726.16544  23141236.9224                   23141245.6604
 109191269.66348  85084204.30646  20778380.2974                   20778386.5234
 11  7 26  2 53 30.0000000  0  8G25G10G17G12G29G05G04G02
 117809421.216 7                  22418389.773
 112296410.09047  87503676.43445  21369240.4304                   21369248.3204
 128581975.372 6                  24468323.781
 109069125.543 8                  20755164.750
 128319882.400 6                  24418467.156
 108756960.034 8                  20695742.195
 121691342.21347  94824556.41744  23157069.0234                   23157078.1884
 109214337.03048  85102178.89746  20782769.7034                   20782776.2504
 11  7 26  2 54  0.0000000  0  8G25G10G17G12G29G05G04G02
 117742904.047 7                  22405732.063
 112351925.56347  87546935.27245  21379804.2894                   21379812.2624
 128655916.225 6                  24482394.359
 109067015.954 8                  20754763.242
 128238694.988 6                  24403018.195
 108707605.917 8                  20686350.148
 121774543.34247  94889388.47844  23172901.2664                   23172911.0744
 109237593.14248  85120300.55546  20787195.4844                   20787201.4774
 11  7 26  2 54 30.0000000  0  8G25G10G17G12G29G05G04G02
 117676834.904 7                  22393159.641
 112407975.91247  87590610.89145  21390470.1024                   21390479.3404
 128730033.645 6                  24496497.352
 109065491.750 8                  20754472.961
 128157448.994 6                  24387557.813
 108658781.319 8                  20677059.320
 121857746.44347  94954222.04244  23188734.4454                   23188744.3364
 109261037.87148  85138569.19546  20791656.8284                   20791662.6724
 11  7 26  2 55  0.0000000  0  8G25G10G17G12G29G05G04G02
 117611215.890 7                  22380672.531
 112464558.90047  87634701.54345  21401237.5164                   21401246.5004
 128804327.314 6                  24510635.891
 109064552.843 8                  20754294.469
 128076145.031 6                  24372085.242
 108610487.914 8                  20667869.383
 121940950.28547  95019056.20644  23204568.0234                   23204577.3094
 109284669.74048  85156983.64746  20796153.9774                   20796159.4844
 11  7 26  2 55 30.0000000  0  7G25G10G12G29G05G04G02
 117546050.144 7                  22368272.359
 112521673.08647  87679206.12145  21412106.3054                   21412114.2704
 109064200.271 8                  20754227.281
 127994784.417 6                  24356603.906
 108562728.160 8                  20658780.969
 122024154.61247  95083890.73944  23220400.8674                   23220410.2344
 109308488.69748  85175543.90346  20800686.4694                   20800692.7344
 11  7 26  2 56  0.0000000  0  7G25G10G12G29G05G04G02
 117481338.822 7                  22355957.656
 112579315.42647  87724122.24945  21423075.3284                   21423083.1764
 109064433.045 8                  20754271.445
 127913366.927 6                  24341110.648
 108515502.152 8                  20649794.109
 122107357.36447  95148724.03244  23236234.2664                   23236243.1294
 109332492.64348  85194248.29446  20805254.1024                   20805260.5514
 11  7 26  2 56 30.0000000  0  7G25G10G12G29G05G04G02
 117417084.204 7                  22343730.750
 112637483.63647  87769448.15445  21434144.2344                   21434152.2384
 109065251.421 8                  20754427.359
 127831893.274 6                  24325606.367
 108468811.274 8                  20640909.289
 122190557.66147  95213555.41944  23252066.4614                   23252075.1134
 109356680.64248  85213096.11146  20809857.1094                   20809863.1294
 11  7 26  2 57  0.0000000  0  7G25G10G12G29G05G04G02
 117353288.290 7                  22331590.789
 112696175.22047  87815181.87945  21445312.7894                   21445320.7734
 109066655.627 8                  20754694.516
 127750363.905 6                  24310092.227
 108422657.017 8                  20632126.477
 122273754.35047  95278384.01344  23267898.3984                   23267907.0274
 109381051.32948  85232086.27646  20814494.5004                   20814500.7154
 11  7 26  2 57 30.0000000  0  7G25G10G12G29G05G04G02
 117289953.397 7                  22319538.680
 112755387.95947  87861321.70845  21456580.4224                   21456588.7074
 109068645.295 8                  20755073.117
 127668779.599 6                  24294566.781
 108377040.718 8                  20623446.039
 122356946.44647  95343209.01244  23283729.2894                   23283738.2734
 109405603.97048  85251218.22946  20819166.8204                   20819172.8094
 11  7 26  2 58  0.0000000  0  7G25G10G12G29G05G04G02
 117227081.664 7                  22307574.430
 112815119.44747  87907865.74445  21467947.0474                   21467955.6914
 109071221.231 8                  20755563.227
 127587141.060 6                  24279031.523
 108331963.651 8                  20614867.469
 122440133.18247  95408029.85344  23299558.8754                   23299568.5394
 109430337.38048  85270491.04946  20823873.2344                   20823879.4304
 11  7 26  2 58 30.0000000  0  7G25G10G12G29G05G04G02
 117164675.170 7                  22295698.961
 112875367.55147  87954812.33945  21479411.6334                   21479420.3324
 109074382.475 8                  20756165.086
 127505448.796 6                  24263485.969
 108287427.212 8                  20606392.945
 122523313.42046  95472845.62543  23315387.8284                   23315397.1134
 109455250.53348  85289903.90746  20828614.1804                   20828620.1644
 11  7 26  2 59  0.0000000  0  7G25G10G12G29G05G04G02
 117102736.444 7                  22283911.922
 112936130.21247  88002159.87245  21490974.7114                   21490983.2544
 109078129.552 8                  20756878.023
 127423703.921 6                  24247930.414
 108243432.818 8                  20598020.797
 122606486.49146  95537655.79543  23331214.7344                   23331223.6214
 109480342.78448  85309456.33046  20833389.5864                   20833394.9614
 11  7 26  2 59 30.0000000  0  7G25G10G12G29G05G04G02
 117041267.419 7                  22272214.953
 112997404.86947  88049906.36445  21502634.9144                   21502642.8554
 109082462.496 8                  20757702.258
 127341907.218 6                  24232364.445
 108199981.945 8                  20589752.094
 122689651.41546  95602459.65643  23347040.1644                   23347049.9184
 109505613.20848  85329147.58946  20838197.7424                   20838203.6954
 11  7 26  3  0  0.0000000  0  7G25G10G12G29G05G04G02
 116980269.895 7                  22260607.625
 113059188.87547  88098049.76345  21514392.0314                   21514400.1764
 109087381.031 8                  20758638.531
 127260058.973 6                  24216789.289
 108157075.676 8                  20581587.570
 122772806.77046  95667256.08043  23362864.5234                   23362874.3914
 109531060.21648  85348976.43946  20843040.0864                   20843046.3484
 11  7 26  3  0 30.0000000  0  7G25G10G12G29G05G04G02
 116919746.398 7                  22249089.914
 113121480.18147  88146588.47945  21526245.3364                   21526253.2074
 109092885.373 8                  20759685.820
 127178160.230 6                  24201204.500
 108114715.468 8                  20573526.688
 122855952.16846  95732044.72843  23378687.3674                   23378695.9144
 109556683.37848  85368942.54946  20847916.2584                   20847922.0664
 11  7 26  3  1  0.0000000  0  7G25G10G12G29G05G04G02
 116859699.165 7                  22237663.602
 113184276.86347  88195520.98645  21538195.7584                   21538204.1254
 109098975.619 8                  20760845.102
 127096211.882 7                  24185611.109
 108072902.673 8                  20565569.844
 122939086.76347  95796824.92044  23394507.1564                   23394515.2974
 109582481.96048  85389045.36746  20852825.8674                   20852831.5314
 11  7 26  3  1 30.0000000  0  7G25G10G12G29G05G04G02
 116800129.649 7                  22226327.695
 113247576.01547  88244845.02045  21550240.9224                   21550249.1604
 109105651.365 8                  20762115.398
 127014214.329 7                  24170007.328
 108031637.657 8                  20557717.305
 123022209.14946  95861595.65144  23410323.9844                   23410332.7504
 109608453.90648  85409283.27346  20857767.7504                   20857773.6764
 11  7 26  3  2  0.0000000  0  7G25G10G12G29G05G04G02
 116741040.920 7                  22215083.672
 113311375.99047  88294559.29845  21562381.1174                   21562390.5084
 109112913.129 8                  20763496.898
 126932168.892 7                  24154394.813
 107990922.776 8                  20549969.422
 123105319.26247  95926356.81944  23426139.8444                   23426149.5784
 109634599.80848  85429656.72446  20862743.2974                   20862748.7854
 11  7 26  3  2 30.0000000  0  7G25G10G12G29G05G04G02
 116682434.473 7                  22203931.102
 113375673.84547  88344661.53245  21574616.8364                   21574625.7274
 109120760.288 8                  20764990.281
 126850076.088 7                  24138772.406
 107950758.691 8                  20542326.414
 123188415.70547  95991107.32044  23441952.6484                   23441962.0354
 109660917.91248  85450164.37346  20867751.2034                   20867757.0124
 11  7 26  3  3  0.0000000  0  7G25G10G12G29G05G04G02
 116624312.220 7                  22192870.750
 113440467.16147  88395149.82545  21586946.8524                   21586955.0044
 109129191.844 8                  20766594.695
 126767936.683 6                  24123141.797
 107911146.432 8                  20534788.281
 123271497.70446  96055846.55744  23457762.3054                   23457771.6724
 109687407.24248  85470805.43746  20872792.0634                   20872798.0234
 11  7 26  3  3 30.0000000  0  7G25G10G12G29G05G04G02
 116566676.260 7                  22181903.266
 113505753.30847  88446022.16045  21599370.1334                   21599378.0824
 109138208.488 8                  20768310.422
 126685751.501 6                  24107502.375
 107872087.110 8                  20527355.508
 123354564.44447  96120573.92144  23473569.0084                   23473578.0394
 109714066.90148  85491579.22146  20877865.0394                   20877871.2774
 11  7 26  3  4  0.0000000  0  7G25G10G12G29G05G04G02
 116509528.351 7                  22171028.250
 113571529.78647  88497276.57545  21611887.0634                   21611895.2154
 109147809.661 8                  20770137.539
 126603521.163 6                  24091854.125
 107833581.613 8                  20520028.133
 123437614.69047  96185288.43644  23489373.7814                   23489382.5434
 109740895.48748  85512484.63846  20882970.2114                   20882976.4224
 11  7 26  3  4 30.0000000  0  7G25G10G12G29G05G04G02
 116452870.619 7                  22160246.328
 113637794.01347  88548911.05145  21624496.5314                   21624504.4734
 109157994.985 8                  20772075.828
 126521246.555 6                  24076197.242
 107795631.213 8                  20512806.477
 123520647.64547  96249989.53044  23505174.1884                   23505183.1414
 109767892.15648  85533521.03346  20888107.7814                   20888113.6764
 11  7 26  3  5  0.0000000  0  7G25G10G12G29G05G04G02
 116396704.949 7                  22149558.266
 113704543.43947  88600923.60845  21637198.4454                   21637206.9344
 109168763.826 8                  20774124.641
 126438928.459 6                  24060532.984
 107758236.978 8                  20505690.523
 123603662.63147  96314676.57944  23520971.7274                   23520980.1684
 109795056.19648  85554687.83746  20893276.7344                   20893282.4694
 11  7 26  3  5 30.0000000  0  7G25G10G12G29G05G04G02
 116341033.514 7                  22138964.461
 113771776.03347  88653312.65545  21649992.6414                   21650000.8444
 109180116.269 8                  20776285.125
 126356567.839 6                  24044860.172
 107721400.054 8                  20498680.805
 123686658.96747  96379349.07143  23536765.1254                   23536773.4884
 109822386.71248  85575984.36446  20898477.6254                   20898483.5204
 11  7 26  3  6  0.0000000  0  7G25G10G12G29G05G04G02
 116285858.252 8                  22128465.203
 113839489.29747  88706076.24045  21662877.9224                   21662886.7154
 109192052.156 8                  20778556.273
 126274165.686 6                  24029179.109
 107685121.188 8                  20491777.086
 123769635.80646  96444006.41843  23552554.3364                   23552563.3794
 109849882.79848  85597409.91546  20903710.2114                   20903715.4804
 11  7 26  3  6 30.0000000  0  7G25G10G12G29G05G04G02
 116231180.996 8                  22118060.211
 113907680.63648  88759212.35245  21675854.4614                   21675862.8524
 109204570.991 8                  20780938.648
 126191722.705 6                  24013490.992
 107649401.564 8                  20484979.805
 123852592.33346  96508647.90443  23568340.7974                   23568349.8754
 109877543.58748  85618963.79346  20908973.7664                   20908979.3324
 11  7 26  3  7  0.0000000  0  7G25G10G12G29G05G04G02
 116177003.738 8                  22107750.797
 113976347.50247  88812719.02945  21688920.9844                   21688929.1764
 109217672.248 8                  20783431.703
 126109239.851 6                  23997794.820
 107614242.003 8                  20478289.148
 123935527.70846  96573272.90943  23584122.7584                   23584132.0004
 109905368.03148  85640645.20046  20914268.3914                   20914274.0394
 11  7 26  3  7 30.0000000  0  7G25G10G12G29G05G04G02
 116123328.527 7                  22097536.461
 114045487.50247  88866594.38145  21702078.0084                   21702086.0704
 109231355.537 8                  20786035.813
 126026718.175 6                  23982091.422
 107579643.554 8                  20471705.227
 124018441.36246  96637881.01543  23599900.4144                   23599908.6334
 109933355.53148  85662453.65146  20919594.3524                   20919600.2894
 11  7 26  3  8  0.0000000  0  7G25G10G12G29G05G04G02
 116070157.192 8                  22087418.055
 114115098.03447  88920836.38045  21715324.5784                   21715332.6094
 109245620.754 8                  20788750.141
 125944158.380 6                  23966380.797
 107545607.155 8                  20465228.695
 124101332.47647  96702471.49943  23615674.2664                   23615681.8364
 109961505.17247  85684388.46446  20924950.8914                   20924956.7194
 11  7 26  3  8 30.0000000  0  7G25G10G12G29G05G04G02
 116017491.223 7                  22077396.344
 114185176.27547  88975442.82445  21728659.8834                   21728668.0634
 109260467.029 8                  20791575.359
 125861560.922 6                  23950662.547
 107512133.487 8                  20458858.695
 124184199.99146  96767043.65043  23631443.0314                   23631452.4064
 109989815.45848  85706448.44446  20930338.0164                   20930344.3134
 11  7 26  3  9  0.0000000  0  7G25G10G12G29G05G04G02
 115965333.661 8                  22067471.070
 114255720.71147  89030412.53645  21742084.1334                   21742092.2504
 109275894.479 8                  20794511.055
 125778927.679 6                  23934937.641
 107479224.454 8                  20452596.117
 124267044.11446  96831597.56343  23647207.5474                   23647216.9574
 110018287.10748  85728634.17646  20935756.0234                   20935761.8914
 11  7 26  3  9 30.0000000  0  7G25G10G12G29G05G04G02
 115913684.915 8                  22057642.539
 114326727.14747  89085742.25545  21755596.1484                   21755604.4494
 109291901.558 8                  20797557.367
 125696258.778 6                  23919206.547
 107446879.560 8                  20446441.273
 124349862.92147  96896131.72043  23662968.1564                   23662976.3244
 110046917.43048  85750943.53246  20941204.0084                   20941210.2304
 11  7 26  3 10  0.0000000  0  7G25G10G12G29G05G04G02
 115862546.905 8                  22047911.148
 114398193.38747  89141430.26845  21769196.1484                   21769204.2734
 109308488.045 8                  20800713.117
 125613555.049 6                  23903468.508
 107415099.458 8                  20440393.508
 124432655.82847  96960645.64844  23678723.3054                   23678732.1764
 110075705.63748  85773375.91546  20946682.8204                   20946688.4924
 11  7 26  3 10 30.0000000  0  7G25G10G12G29G05G04G02
 115811922.004 8                  22038277.305
 114470117.31247  89197474.91545  21782882.1644                   21782890.7344
 109325653.542 8                  20803979.906
 125530817.866 6                  23887723.992
 107383885.850 8                  20434454.094
 124515422.61947  97025139.32944  23694472.9844                   23694482.4144
 110104651.72548  85795931.30546  20952190.6254                   20952196.7814
 11  7 26  3 11  0.0000000  0  7G25G10G12G29G05G04G02
 115761811.577 8                  22028741.750
 114542495.77147  89253873.73145  21796655.5554                   21796663.8554
 109343397.111 8                  20807356.523
 125448048.016 6                  23871973.250
 107353239.070 8                  20428622.063
 124598162.29647  97089611.85244  23710218.5784                   23710227.6294
 110133754.37648  85818608.70146  20957728.8284                   20957734.6604
 11  7 26  3 11 30.0000000  0  7G25G10G12G29G05G04G02
 115712217.394 8                  22019304.461
 114615326.15047  89310624.69445  21810514.5004                   21810522.9534
 109361718.466 8                  20810842.273
 125365246.404 7                  23856216.773
 107323159.630 8                  20422898.117
 124680874.01147  97154062.52244  23725957.2114                   23725966.1134
 110163012.58948  85841407.30346  20963296.2814                   20963301.9264
 11  7 26  3 12  0.0000000  0  7G25G10G12G29G05G04G02
 115663141.351 8                  22009965.031
 114688606.17747  89367726.01745  21824459.4144                   21824467.4224
 109380616.915 8                  20814438.922
 125282414.343 6                  23840453.852
 107293648.720 8                  20417282.383
 124763557.23347  97218491.02343  23741691.5474                   23741700.2974
 110192425.93348  85864326.79346  20968893.4064                   20968899.1724
 11  7 26  3 12 30.0000000  0  7G25G10G12G29G05G04G02
 115614584.744 8                  22000725.297
 114762332.65847  89425175.24345  21838488.8364                   21838497.2154
 109400091.231 8                  20818144.922
 125199552.028 6                  23824685.648
 107264706.477 8                  20411774.781
 124846211.07746  97282896.66143  23757419.8524                   23757428.7664
 110221992.77748  85887365.89446  20974519.9064                   20974526.1954
 11  7 26  3 13  0.0000000  0  7G25G10G12G29G05G04G02
 115566550.177 8                  21991584.586
 114836503.94547  89482971.05145  21852603.0234                   21852611.8134
 109420141.671 8                  20821960.773
 125116661.393 6                  23808912.203
 107236334.124 8                  20406375.547
 124928835.49546  97347279.33543  23773142.1334                   23773151.8714
 110251713.51648  85910524.90746  20980175.7034                   20980181.8484
 11  7 26  3 13 30.0000000  0  7G25G10G12G29G05G04G02
 115519038.657 8                  21982543.328
 114911116.50847  89541110.71645  21866801.8834                   21866809.8984
 109440766.840 8                  20825885.500
 125033743.108 6                  23793133.375
 107208532.119 7                  20401084.797
 125011429.40546  97411638.22243  23788859.4534                   23788868.7424
 110281586.61048  85933802.65846  20985860.5084                   20985866.6454
 11  7 26  3 14  0.0000000  0  7G25G10G12G29G05G04G02
 115472051.552 8                  21973601.977
 114986167.53247  89599592.03745  21881083.2194                   21881091.7274
 109461966.059 8                  20829919.367
 124950797.701 6                  23777348.852
 107181300.558 7                  20395902.570
 125093991.86046  97475972.65243  23804570.5944                   23804579.8164
 110311610.86148  85957198.19246  20991573.8204                   20991579.9844
 11  7 26  3 14 30.0000000  0  7G25G10G12G29G05G04G02
 115425591.126 8                  21964760.914
 115061655.06747  89658413.50445  21895447.9924                   21895456.3404
 109483738.516 8                  20834062.477
 124867826.759 6                  23761560.727
 107154640.607 7                  20390829.586
 125176522.58746  97540282.30943  23820276.1024                   23820285.3874
 110341785.97648  85980711.29546  20997315.9614                   20997321.9384
 11  7 26  3 15  0.0000000  0  7G25G10G12G29G05G04G02
 115379658.712 8                  21956020.172
 115137575.85047  89717572.55945  21909895.9614                   21909903.5554
 109506083.145 8                  20838314.453
 124784831.076 6                  23745766.539
 107128552.653 8                  20385864.914
 125259020.80746  97604566.59843  23835974.8594                   23835983.4534
 110372110.84548  86004341.08746  21003086.5084                   21003092.3874
 11  7 26  3 15 30.0000000  0  7G25G10G12G29G05G04G02
 115334256.064 8                  21947380.313
 115213927.63447  89777067.46745  21924425.0394                   21924432.9064
 109528999.568 8                  20842675.477
 124701811.685 6                  23729968.219
 107103037.330 8                  20381009.719
 125341486.04046  97668825.22643  23851666.8054                   23851675.4414
 110402584.98648  86028087.20346  21008885.4304                   21008891.6374
 11  7 26  3 16  0.0000000  0  7G25G10G12G29G05G04G02
 115289384.710 8                  21938841.711
 115290707.32547  89836895.81645  21939035.2734                   21939043.4534
 109552486.795 8                  20847144.680
 124618769.827 6                  23714165.836
 107078095.183 8                  20376263.664
 125423917.61047  97733057.60043  23867353.5864                   23867362.1134
 110433207.53748  86051948.96046  21014712.9774                   21014718.3794
 11  7 26  3 16 30.0000000  0  7G25G10G12G29G05G04G02
 115245046.160 8                  21930404.352
 115367912.36947  89897055.59945  21953726.8284                   21953735.1564
 109576543.956 8                  20851722.523
 124535706.529 7                  23698360.133
 107053726.298 8                  20371625.953
 125506314.64446  97797263.12243  23883033.1174                   23883041.1024
 110463977.48548  86075925.58146  21020567.9614                   21020573.4924
 11  7 26  3 17  0.0000000  0  7G25G10G12G29G05G04G02
 115201241.597 8                  21922068.570
 115445539.47047  89957544.25945  21968498.7194                   21968507.2624
 109601169.708 8                  20856408.938
 124452622.347 7                  23682548.750
 107029931.444 8                  20367097.984
 125588676.58647  97861441.26843  23898706.8204                   23898714.4734
 110494893.70248  86100016.16246  21026451.2974                   21026456.6684
 11  7 26  3 17 30.0000000  0  7G25G10G12G29G05G04G02
 115157973.155 8                  21913834.703
 115523586.70447  90018360.29945  21983351.0784                   21983359.1254
 109626363.511 8                  20861202.695
 124369519.045 7                  23666734.906
 107006711.258 8                  20362679.648
 125671003.17447  97925591.89343  23914372.7894                   23914381.0864
 110525956.17948  86124220.73546  21032361.9924                   21032367.9064
 11  7 26  3 18  0.0000000  0  7G25G10G12G29G05G04G02
 115115241.800 8                  21905703.297
 115602050.96547  90079501.30845  21998282.3914                   21998290.6024
 109652124.064 8                  20866104.852
 124286397.268 7                  23650917.570
 106984065.593 8                  20358369.891
 125753293.42447  97989714.15743  23930031.8674                   23930040.8524
 110557163.47948  86148538.14546  21038300.1954                   21038306.4844
 11  7 26  3 18 30.0000000  0  7G25G10G12G29G05G04G02
 115073049.335 8                  21897674.273
 115680929.67447  90140965.24745  22013292.2114                   22013300.5904
 109678450.863 8                  20871115.008
 124203258.262 7                  23635096.727
 106961995.072 8                  20354170.125
 125835547.08446  98053807.94543  23945684.6174                   23945693.3914
 110588515.22748  86172968.13146  21044266.7424                   21044272.6604
 11  7 26  3 19  0.0000000  0  7G25G10G12G29G05G04G02
 115031396.874 8                  21889748.250
 115760219.69147  90202749.69745  22028380.5004                   22028388.8554
 109705342.467 8                  20876232.156
 124120103.020 7                  23619272.969
 106940499.810 8                  20350079.922
 125917763.15747  98117872.43743  23961329.4774                   23961339.2424
 110620010.20648  86197509.70346  21050260.2664                   21050265.6884
 11  7 26  3 19 30.0000000  0  7G25G10G12G29G05G04G02
 114990286.253 8                  21881925.156
 115839918.84947  90264852.95245  22043546.8984                   22043555.1644
 109732797.846 8                  20881456.617
 124036932.993 7                  23603445.883
 106919580.697 8                  20346098.688
 125999941.54447  98181907.55643  23976968.1884                   23976975.8914
 110651648.12648  86222162.66646  21056280.4304                   21056286.3134
 11  7 26  3 20  0.0000000  0  7G25G10G12G29G05G04G02
 114949718.562 8                  21874205.109
 115920023.89547  90327272.48545  22058790.4144                   22058798.5514
 109760815.974 8                  20886788.625
 123953748.904 7                  23587616.844
 106899237.507 8                  20342227.648
 126082081.46846  98245912.70043  23992597.3674                   23992606.6524
 110683427.87747  86246926.12346  21062327.8364                   21062333.8914
 11  7 26  3 20 30.0000000  0  7G25G10G12G29G05G04G02
 114909695.378 8                  21866589.172
 116000531.84947  90390005.96945  22074110.1254                   22074118.9024
 109789395.855 7                  20892227.211
 123870552.132 7                  23571784.219
 106879470.621 8                  20338466.273
 126164182.35046  98309887.45643  24008221.9614                   24008230.7464
 110715348.89347  86271799.66646  21068401.9694                   21068407.8794
 11  7 26  3 21  0.0000000  0  7G25G10G12G29G05G04G02
 114870217.791 8                  21859076.688
 116081439.94147  90453051.24345  22089506.7424                   22089515.1254
 109818536.169 8                  20897772.375
 123787343.526 7                  23555950.242
 106860280.582 8                  20334814.438
 126246243.61746  98373831.28143  24023836.7664                   24023845.9734
 110747410.04948  86296782.40146  21074503.2584                   21074508.7854
 11  7 26  3 21 30.0000000  0  7G25G10G12G29G05G04G02
 114831287.024 8                  21851668.414
 116162745.00847  90516405.84745  22104978.4694                   22104987.0664
 109848235.958 8                  20903423.977
 123704124.285 7                  23540114.008
 106841667.202 8                  20331272.523
 126328264.52546  98437743.64143  24039444.5004                   24039454.2814
 110779610.52648  86321873.71246  21080630.7974                   21080636.6454
 11  7 26  3 22  0.0000000  0  7G25G10G12G29G05G04G02
 114792904.943 8                  21844364.641
 116244445.15147  90580068.30345  22120525.4534                   22120534.0434
 109878494.096 8                  20909181.969
 123620895.869 6                  23524275.711
 106823630.968 8                  20327840.242
 126410245.07846  98501624.59343  24055045.9144                   24055055.1644
 110811950.31748  86347073.55846  21086784.8284                   21086790.9614
 11  7 26  3 22 30.0000000  0  7G25G10G12G29G05G04G02
 114755072.907 8                  21837165.414
 116326537.43847  90644036.33345  22136146.9304                   22136155.0744
 109909309.523 8                  20915045.680
 123537659.424 6                  23508436.875
 106806172.213 8                  20324518.008
 126492184.68646  98565473.60143  24070638.1254                   24070647.2274
 110844428.54748  86372381.28646  21092965.3674                   21092970.9774
 11  7 26  3 23  0.0000000  0  7G25G10G12G29G05G04G02
 114717792.167 8                  21830071.109
 116409019.01147  90708307.70345  22151842.6644                   22151850.7584
 109940680.944 8                  20921015.586
 123454416.372 6                  23492595.664
 106789291.091 8                  20321305.484
 126574082.97846  98629290.44643  24086223.4774                   24086231.5314
 110877044.73148  86397796.50646  21099172.3054                   21099177.8444
 11  7 26  3 23 30.0000000  0  7G25G10G12G29G05G04G02
 114681063.467 8                  21823081.977
 116491886.62747  90772879.88545  22167611.9144                   22167620.3714
 109972606.962 8                  20927090.867
 123371167.034 6                  23476753.906
 106772987.097 8                  20318202.820
 126655938.86546  98693074.22843  24101799.6094                   24101808.4844
 110909797.24248  86423317.94946  21105404.4384                   21105410.0234
 11  7 26  3 24  0.0000000  0  7G25G10G12G29G05G04G02
 114644888.410 8                  21816197.695
 116575137.85947  90837750.99545  22183454.2664                   22183462.1454
 110005086.108 8                  20933271.148
 123287913.497 6                  23460911.227
 106757260.959 8                  20315210.078
 126737752.24046  98756824.93043  24117367.5164                   24117377.6254
 110942685.84248  86448945.45246  21111663.1094                   21111668.3404
 11  7 26  3 24 30.0000000  0  7G25G10G12G29G05G04G02
 114609268.057 8                  21809419.469
 116658769.79347  90902918.73145  22199369.2664                   22199376.8634
 110038117.378 8                  20939557.281
 123204656.817 6                  23445068.148
 106742112.420 8                  20312327.859
 126819522.54846  98820542.05843  24132927.9694                   24132936.4224
 110975709.84948  86474678.47346  21117947.2274                   21117952.7664
 11  7 26  3 25  0.0000000  0  7G25G10G12G29G05G04G02
 114574203.617 8                  21802746.852
 116742779.23747  90968380.64545  22215355.8754                   22215363.6524
 110071699.300 8                  20945947.633
 123121397.830 6                  23429223.875
 106727542.011 8                  20309555.125
 126901249.27846  98884225.16643  24148481.2974                   24148489.3204
 111008868.32048  86500516.24746  21124257.3134                   21124262.5984
 11  7 26  3 25 30.0000000  0  7G25G10G12G29G05G04G02
 114539696.240 8                  21796180.148
 116827163.72047  91034134.80544  22231413.6414                   22231420.9774
 110105830.606 8                  20952442.242
 123038137.949 6                  23413380.508
 106713549.045 8                  20306892.500
 126982931.97546  98947874.12843  24164023.7734                   24164034.0664
 111042160.76048  86526458.42546  21130592.5634                   21130598.1954
 11  7 26  3 26  0.0000000  0  7G25G10G12G29G05G04G02
 114505747.262 8                  21789719.867
 116911920.34547  91100178.95644  22247542.3054                   22247549.2814
 110140510.113 8                  20959041.844
 122954878.548 7                  23397536.703
 106700133.963 8                  20304339.477
 127064570.42547  99011488.49443  24179559.7194                   24179568.8914
 111075586.73248  86552504.63646  21136953.3524                   21136958.9574
 11  7 26  3 26 30.0000000  0  7G25G10G12G29G05G04G02
 114472357.655 8                  21783366.047
 116997046.22247  91166510.83044  22263740.9534                   22263749.1054
 110175736.202 8                  20965745.281
 122871620.938 7                  23381693.531
 106687296.795 8                  20301896.570
 127146163.84747  99075067.74143  24195086.6254                   24195094.3714
 111109145.10948  86578654.05046  21143338.7664                   21143344.6174
 11  7 26  3 27  0.0000000  0  7G25G10G12G29G05G04G02
 114439528.657 8                  21777118.930
 117082538.56047  91233128.25444  22280009.2034                   22280017.1994
 110211507.655 8                  20972552.484
 122788366.218 7                  23365850.648
 106675037.548 8                  20299563.781
 127227712.11646  99138611.88943  24210604.1954                   24210613.7664
 111142835.64248  86604906.42946  21149750.0474                   21149756.1684
 11  7 26  3 27 30.0000000  0  7G25G10G12G29G05G04G02
 114407261.435 8                  21770978.672
 117168394.69447  91300029.15044  22296346.5474                   22296354.9654
 110247823.267 8                  20979462.641
 122705116.007 7                  23350008.711
 106663356.356 8                  20297341.063
 127309214.82246  99202120.50243  24226113.5634                   24226123.2584
 111176657.87248  86631261.43446  21156186.2194                   21156192.2234
 11  7 26  3 28  0.0000000  0  7G25G10G12G29G05G04G02
 114375556.047 8                  21764945.117
 117254610.73947  91367210.48544  22312753.2504                   22312761.7974
 110284680.758 7                  20986476.461
 122621870.482 7                  23334167.391
 106652251.828 8                  20295227.883
 127390670.92246  99265592.80942  24241613.8914                   24241623.7274
 111210609.89548  86657717.57546  21162647.3204                   21162652.7814
 11  7 26  3 28 30.0000000  0  7G25G10G12G29G05G04G02
 114344414.716 8                  21759019.242
 117341185.14147  91434671.07344  22329228.2504                   22329235.9804
 110322079.419 7                  20993593.375
 122538632.187 7                  23318327.531
 106641725.188 8                  20293224.805
 127472080.69246  99329029.03543  24257106.1174                   24257114.3554
 111244692.31748  86684275.31546  21169132.8204                   21169138.4064
 11  7 26  3 29  0.0000000  0  7G25G10G12G29G05G04G02
 114313838.635 8                  21753200.844
 117428115.28047  91502408.84344  22345770.3054                   22345778.5164
 110360017.881 8                  21000812.695
 122455402.498 6                  23302489.516
 106631776.504 8                  20291331.531
 127553444.01546  99392429.01843  24272588.8834                   24272597.8634
 111278904.93048  86710934.50446  21175643.1334                   21175648.7704
 11  7 26  3 29 30.0000000  0  7G25G10G12G29G05G04G02
 114283827.485 8                  21747489.805
 117515396.85647  91570420.47744  22362379.4454                   22362387.1914
 110398494.017 8                  21008134.414
 122372181.540 6                  23286653.016
 106622404.215 8                  20289547.875
 127634759.32446  99455791.61343  24288063.6334                   24288071.1374
 111313245.30148  86737693.26146  21182178.0234                   21182183.7854
 11  7 26  3 30  0.0000000  0  7G25G10G12G29G05G04G02
 114254383.285 8                  21741886.766
 117603027.88247  91638704.40044  22379054.9614                   22379062.7424
 110437506.438 8                  21015558.297
 122288971.821 6                  23270818.344
 106613609.174 8                  20287874.227
 127716027.28246  99519117.24243  24303527.5004                   24303536.0864
 111347714.13548  86764552.10146  21188736.9694                   21188743.0474
 11  7 26  3 30 30.0000000  0  7G25G10G12G29G05G04G02
 114225506.472 8                  21736391.555
 117691005.28247  91707258.23344  22395796.3754                   22395804.3014
 110477053.426 8                  21023083.852
 122205773.981 6                  23254986.258
 106605390.536 8                  20286310.430
 127797247.01846  99582405.34743  24318983.3914                   24318992.0904
 111382310.26648  86791510.14546  21195320.5634                   21195326.3874
 11  7 26  3 31  0.0000000  0  7G25G10G12G29G05G04G02
 114197197.718 8                  21731004.938
 117779325.74347  91776079.36744  22412603.5004                   22412611.9734
 110517133.647 8                  21030710.953
 122122589.309 6                  23239156.570
 106597748.106 8                  20284855.930
 127878417.94546  99645655.34843  24334429.2504                   24334438.6054
 111417032.92648  86818566.77946  21201927.5704                   21201933.9264
 11  7 26  3 31 30.0000000  0  7G25G10G12G29G05G04G02
 114169458.651 8                  21725726.070
 117867987.18847  91845166.23044  22429474.7734                   22429483.0984
 110557745.795 8                  21038439.234
 122039419.818 7                  23223329.484
 106590682.376 8                  20283511.359
 127959540.27246  99708867.54343  24349865.6724                   24349875.2464
 111451882.26248  86845722.12046  21208559.5784                   21208565.2074
 11  7 26  3 32  0.0000000  0  8G25G10G26G12G29G05G04G02
 114142289.486 8                  21720556.352
 117956985.95947  91914515.91744  22446411.0864                   22446418.9694
 130267299.33556 101507051.90753  24789048.8914                   24789059.2274
 110598887.506 8                  21046268.344
 121956266.016 7                  23207506.313
 106584192.408 8                  20282276.406
 128040613.35446  99772041.33643  24365294.8594                   24365303.2034
 111486856.85448  86872975.07446  21215214.5314                   21215220.6094
 11  7 26  3 32 30.0000000  0  8G25G10G26G12G29G05G04G02
 114115691.068 8                  21715494.750
 118046319.25047  91984126.26844  22463410.8834                   22463418.3054
 130171893.98646 101432710.19843  24770893.8444                   24770904.3164
 110640557.318 8                  21054197.953
 121873129.653 7                  23191686.031
 106578277.368 8                  20281150.820
 128121636.37146  99835176.15543  24380712.7034                   24380721.6884
 111521956.19948  86900325.22746  21221893.5394                   21221900.2154
 11  7 26  3 33  0.0000000  0  8G25G10G26G12G29G05G04G02
 114089664.401 8                  21710542.008
 118135984.46647  92053995.27944  22480473.4454                   22480481.6454
 130076373.65246 101358278.92043  24752716.4614                   24752726.6524
 110682753.594 8                  21062227.031
 121790012.244 7                  23175869.445
 106572937.528 8                  20280134.555
 128202609.45347  99898272.03943  24396122.0314                   24396130.4654
 111557179.86848  86927772.26646  21228596.9534                   21228603.1334
 11  7 26  3 33 30.0000000  0  8G25G10G26G12G29G05G04G02
 114064210.495 8                  21705698.328
 118225978.91247  92124120.81644  22497598.8834                   22497606.9224
 129980741.35946 101283760.40943  24734517.9614                   24734528.3634
 110725474.866 7                  21070356.859
 121706915.146 7                  23160056.273
 106568172.604 8                  20279227.906
 128283532.46146  99961328.90943  24411520.3674                   24411529.0864
 111592527.47748  86955315.86946  21235323.3754                   21235329.4384
 11  7 26  3 34  0.0000000  0  8G25G10G26G12G29G05G04G02
 114039330.231 8                  21700963.531
 118316299.90247  92194500.82244  22514786.2814                   22514794.5474
 129885000.05846 101209156.97643  24716299.2974                   24716309.3874
 110768719.624 8                  21078586.203
 121623839.681 7                  23144247.844
 106563982.253 8                  20278430.461
 128364404.89047 100024346.35343  24426910.2274                   24426918.6604
 111627998.38748  86982955.55046  21242073.8134                   21242079.6844
 11  7 26  3 34 30.0000000  0  8G25G10G26G12G29G05G04G02
 114015024.188 8                  21696338.156
 118406944.22347  92265132.77444  22532035.2504                   22532043.5164
 129789152.76545 101134470.90242  24698059.6024                   24698069.6214
 110812485.939 8                  21086914.305
 121540787.566 7                  23128443.656
 106560366.227 8                  20277742.461
 128445226.67847 100087324.32443  24442290.1644                   24442298.9264
 111663592.31748  87010691.10246  21248846.6644                   21248852.5204
 11  7 26  3 35  0.0000000  0  8G25G10G26G12G29G05G04G02
 113991293.073 8                  21691822.500
 118497909.18147  92336014.58144  22549345.7734                   22549353.1334
 129693202.18945 101059704.37042  24679799.8914                   24679811.4694
 110856771.966 8                  21095341.867
 121457760.266 7                  23112643.539
 106557323.862 8                  20277163.250
 128525997.29647 100150262.47443  24457660.6564                   24457669.0164
 111699308.56748  87038521.96246  21255643.0234                   21255648.8794
 11  7 26  3 35 30.0000000  0  8G25G10G26G12G29G05G04G02
 113968137.639 8                  21687416.016
 118589191.91447  92407144.00744  22566715.9614                   22566723.8484
 129597151.57745 100984859.81942  24661522.3204                   24661534.2344
 110901576.022 8                  21103867.938
 121374759.028 7                  23096848.578
 106554854.725 8                  20276693.563
 128606716.66846 100213160.65242  24473020.9774                   24473029.4884
 111735146.60248  87066447.71346  21262462.6724                   21262468.4064
 11  7 26  3 36  0.0000000  0  8G25G10G26G12G29G05G04G02
 113945558.283 8                  21683119.383
 118680789.20747  92478518.52744  22584146.5634                   22584153.7974
 129501003.71546 100909939.48942  24643227.3444                   24643237.8204
 110946896.279 8                  21112491.773
 121291785.044 7                  23081059.313
 106552958.067 8                  20276332.336
 128687384.13746 100276018.44643  24488370.9534                   24488379.7704
 111771105.37948  87094467.54146  21269305.6094                   21269311.2274
 11  7 26  3 36 30.0000000  0  8G25G10G26G12G29G05G04G02
 113923555.804 8                  21678932.141
 118772697.93347  92550135.72644  22601636.3204                   22601643.6134
 129404761.52746 100834945.69843  24624912.2344                   24624923.1994
 110992730.721 8                  21121213.883
 121208840.243 6                  23065274.813
 106551633.514 8                  20276080.703
 128767999.51146 100338835.71742  24503711.6254                   24503720.3324
 111807184.76148  87122581.34546  21276171.8204                   21276177.0394
 11  7 26  3 37  0.0000000  0  8G25G10G26G12G29G05G04G02
 113902130.748 8                  21674855.234
 118864915.52847  92621993.62444  22619184.3204                   22619191.8244
 129308428.10247 100759880.83343  24606580.4224                   24606591.0514
 111039077.896 8                  21130033.703
 121125925.746 6                  23049496.500
 106550880.458 8                  20275936.961
 128848562.57346 100401612.16142  24519042.3834                   24519051.4224
 111843384.19648  87150788.71246  21283059.8054                   21283065.4064
 11  7 26  3 37 30.0000000  0  8G25G10G26G12G29G05G04G02
 113881283.826 8                  21670888.328
 118957439.07347  92694089.91844  22636791.0164                   22636799.0704
 129212006.38446 100684747.09843  24588232.1804                   24588241.6804
 111085935.471 8                  21138950.000
 121043043.177 7                  23033725.258
 106550698.576 8                  20275902.867
 128929073.04545 100464347.44642  24534360.7344                   24534371.4304
 111879702.78048  87179088.91046  21289971.1094                   21289977.1644
 11  7 26  3 38  0.0000000  0  8G25G10G26G12G29G05G04G02
 113861015.530 8                  21667031.297
 119050265.64647  92766422.33944  22654455.3984                   22654462.9534
 129115499.46147 100609547.06443  24569867.8674                   24569877.1334
 111133301.859 8                  21147963.727
 120960194.114 7                  23017959.438
 106551087.226 8                  20275976.469
 129009530.85354 100527041.90252  24549670.8754                   24549682.4224
 111916140.46647  87207481.92846  21296904.5784                   21296910.4384
 11  7 26  3 38 30.0000000  0  8G25G10G26G12G29G05G04G02
 113841326.452 8                  21663284.516
 119143392.33247  92838988.60644  22672176.4534                   22672184.0474
 129018910.50347 100534283.04044  24551487.6484                   24551497.2154
 111181175.183 8                  21157073.727
 120877380.081 7                  23002200.758
 106552045.719 8                  20276158.914
 129089935.54245 100589694.89542  24564973.2814                   24564982.6094
 111952696.71348  87235967.32046  21303861.1254                   21303867.3674
 11  7 26  3 39  0.0000000  0  8G25G10G26G12G29G05G04G02
 113822217.119 8                  21659648.031
 119236816.35247  92911786.56244  22689954.7584                   22689962.7664
 128922242.49846 100458957.44343  24533091.8284                   24533101.5474
 111229553.175 8                  21166279.648
 120794602.386 7                  22986448.383
 106553573.502 8                  20276449.414
 129170286.90046 100652306.37042  24580264.6564                   24580273.0084
 111989370.98248  87264544.67946  21310839.8984                   21310845.4614
 11  7 26  3 39 30.0000000  0  8G25G10G26G12G29G05G04G02
 113803687.921 8                  21656122.055
 119330534.77247  92984813.92044  22707788.7344                   22707796.4104
 128825498.24846 100383572.44543  24514681.9304                   24514691.6094
 111278434.333 8                  21175581.477
 120711862.505 7                  22970704.242
 106555669.746 8                  20276848.547
 129250584.56246 100714875.95743  24595544.0004                   24595553.0704
 112026162.72748  87293213.57446  21317841.7274                   21317846.9884
 11  7 26  3 40  0.0000000  0  8G25G10G26G12G29G05G04G02
 113785739.296 8                  21652706.688
 119424544.78547  93058068.50344  22725677.9454                   22725685.9064
 128728681.06246 100308130.62843  24496257.6644                   24496267.7114
 111327816.459 8                  21184978.430
 120629161.802 7                  22954966.086
 106558333.760 8                  20277355.203
 129330828.27846 100777403.49543  24610814.3594                   24610822.9454
 112063071.12348  87321973.36346  21324864.8284                   21324870.4104
 11  7 26  3 40 30.0000000  0  8G25G10G26G12G29G05G04G02
 113768371.697 8                  21649401.820
 119518843.12947  93131547.73844  22743622.5394                   22743630.3164
 128631793.89346 100232634.20844  24477821.0864                   24477830.9454
 111377697.575 8                  21194470.508
 120546502.211 7                  22939236.414
 106561564.915 8                  20277970.148
 129411018.02347 100839889.01443  24626074.0784                   24626082.9534
 112100096.09748  87350824.00246  21331909.9774                   21331915.9454
 11  7 26  3 41  0.0000000  0  8G25G10G26G12G29G05G04G02
 113751585.445 8                  21646207.250
 119613427.20047  93205249.61444  22761620.5704                   22761628.8484
 128534839.80646 100157085.70743  24459370.6644                   24459381.0984
 111428075.477 8                  21204057.430
 120463884.960 7                  22923514.820
 106565362.118 8                  20278692.781
 129491153.25746 100902332.09843  24641322.9614                   24641332.1724
 112137237.01748  87379764.99346  21338977.6804                   21338983.5204
 11  7 26  3 41 30.0000000  0  8G25G10G26G12G29G05G04G02
 113735381.175 8                  21643123.891
 119708294.34447  93279172.08344  22779673.8754                   22779681.7624
 128437822.05246 100081487.54743  24440909.2504                   24440919.3364
 111478948.555 8                  21213738.492
 120381311.708 7                  22907801.953
 106569725.267 8                  20279522.977
 129571234.17446 100964732.74743  24656562.2974                   24656571.0394
 112174493.58547  87408796.09346  21346067.8364                   21346073.6254
 11  7 26  3 42  0.0000000  0  8G25G10G26G12G29G05G04G02
 113719759.257 8                  21640150.859
 119803441.60747  93353312.82244  22797779.6024                   22797787.7544
 128340743.88846 100005842.38143  24422435.5164                   24422445.8324
 111530314.578 8                  21223512.688
 120298784.314 7                  22892097.156
 106574653.573 8                  20280461.031
 129651260.39446 101027090.83343  24671790.5234                   24671798.9804
 112211865.08848  87437916.75146  21353178.9774                   21353185.2234
 11  7 26  3 42 30.0000000  0  8G25G10G26G12G29G05G04G02
 113704719.706 8                  21637289.227
 119898865.73847  93427669.28344  22815938.3674                   22815946.2384
 128243608.04146  99930152.25043  24403950.5234                   24403960.7704
 111582171.430 8                  21233380.922
 120216303.988 7                  22876401.125
 106580145.579 8                  20281506.156
 129731231.53146 101089406.04143  24687008.3594                   24687017.3244
 112249350.97947  87467126.54346  21360312.3054                   21360318.1174
 11  7 26  3 43  0.0000000  0  7G25G10G26G12G29G05G02
 113690263.443 8                  21634538.289
 119994564.59447  93502239.82344  22834149.4144                   22834157.4104
 128146418.19046  99854419.98743  24385457.0554                   24385466.4454
 111634517.751 8                  21243342.070
 120133872.623 7                  22860715.508
 106586201.273 8                  20282658.523
 112286951.37748  87496425.56446  21367467.5164                   21367473.4304
 11  7 26  3 43 30.0000000  0  7G25G10G26G12G29G05G02
 113676390.209 8                  21631898.352
 120090534.68247  93577021.71644  22852412.1174                   22852419.5984
 128049177.12046  99778647.80543  24366951.7974                   24366961.5744
 111687350.527 8                  21253395.836
 120051491.591 7                  22845037.945
 106592819.257 8                  20283917.820
 112324665.48248  87525813.18746  21374644.4144                   21374650.3204
 11  7 26  3 44  0.0000000  0  7G25G10G26G12G29G05G02
 113663100.313 8                  21629369.273
 120186772.93147  93652012.57544  22870724.9064                   22870732.6484
 127951887.80747  99702838.05343  24348438.9144                   24348447.5824
 111740667.742 8                  21263541.828
 119969162.674 7                  22829372.344
 106599998.672 8                  20285283.938
 112362492.55648  87555288.84646  21381843.0314                   21381848.7194
 11  7 26  3 44 30.0000000  0  7G25G10G26G12G29G05G02
 113650393.987 8                  21626951.266
 120283276.48647  93727210.15944  22889088.9614                   22889096.8404
 127854553.62846  99626993.21143  24329916.3284                   24329925.1294
 111794467.287 8                  21273779.344
 119886887.229 7                  22813715.336
 106607738.657 8                  20286756.977
 112400432.58548  87584852.50246  21389062.2114                   21389068.7664
 11  7 26  3 45  0.0000000  0  7G25G10G26G12G29G05G02
 113638271.354 8                  21624644.453
 120380042.67347  93802612.39244  22907503.5634                   22907511.0234
 127757177.53846  99551115.80843  24311386.8134                   24311394.5044
 111848746.813 8                  21284108.516
 119804666.939 7                  22798069.844
 106616038.129 8                  20288335.883
 112438484.98347  87614503.74546  21396303.5394                   21396309.5944
 11  7 26  3 45 30.0000000  0  7G25G10G26G12G29G05G02
 113626732.619 8                  21622448.414
 120477068.71747  93878217.10744  22925967.2424                   22925974.2074
 127659762.81746  99475208.25143  24292849.1724                   24292857.0904
 111903504.692 8                  21294528.359
 119722503.412 7                  22782434.414
 106624896.307 8                  20290021.906
 112476649.35247  87644242.21546  21403565.8134                   21403571.5084
 11  7 26  3 46  0.0000000  0  7G25G10G26G12G29G05G02
 113615778.233 8                  21620364.047
 120574351.72347  93954022.08444  22944479.6174                   22944486.7734
 127562312.93046  99399273.37843  24274305.3524                   24274314.3014
 111958738.675 8                  21305039.219
 119640398.541 7                  22766810.320
 106634312.741 8                  20291813.484
 112514925.27948  87674067.61446  21410849.7664                   21410855.7464
 11  7 26  3 46 30.0000000  0  7G25G10G26G12G29G05G02
 113605408.025 8                  21618390.430
 120671888.83146  94030025.03044  22963039.7344                   22963046.7304
 127464830.95846  99323313.48043  24255754.6564                   24255763.7424
 112014446.264 8                  21315639.789
 119558353.643 7                  22751197.688
 106644285.943 8                  20293711.438
 112553312.29548  87703979.57846  21418154.6884                   21418160.4064
 11  7 26  3 47  0.0000000  0  7G25G10G26G12G29G05G02
 113595622.318 8                  21616528.328
 120769677.20847  94106223.77944  22981647.3594                   22981655.6684
 127367320.02646  99247331.02343  24237198.2974                   24237208.9734
 112070625.826 8                  21326330.664
 119476370.640 7                  22735596.984
 106654815.132 8                  20295714.781
 112591810.02748  87733977.82046  21425480.6954                   21425486.3094
 11  7 26  3 47 30.0000000  0  7G25G10G26G12G29G05G02
 113586420.921 8                  21614777.453
 120867713.56947  94182615.76944  23000303.9614                   23000311.7344
 127269783.34346  99171328.50443  24218638.0234                   24218647.9144
 112127274.282 8                  21337110.453
 119394451.176 7                  22720007.977
 106665898.978 8                  20297823.914
 112630418.08148  87764062.03246  21432827.2584                   21432833.2034
 11  7 26  3 48  0.0000000  0  7G25G10G26G12G29G05G02
 113577803.978 8                  21613137.578
 120965995.59346  94259199.17544  23019005.6954                   23019014.7854
 127172224.12846  99095308.40743  24200073.3984                   24200082.4924
 112184389.681 8                  21347979.398
 119312596.731 7                  22704431.250
 106677536.514 8                  20300038.648
 112669136.30748  87794232.06846  21440195.1414                   21440200.5824
 11  7 26  3 48 30.0000000  0  7G25G10G26G12G29G05G02
 113569771.548 8                  21611608.805
 121064520.53446  94335971.82644  23037754.9144                   23037763.1724
 127074645.64646  99019273.34143  24181504.3134                   24181514.0704
 112241969.838 8                  21358936.273
 119230809.280 7                  22688867.836
 106689726.913 8                  20302358.492
 112707964.09548  87824487.49046  21447583.6644                   21447589.6214
 11  7 26  3 49  0.0000000  0  7G25G10G26G12G29G05G02
 113562323.251 8                  21610191.773
 121163284.79147  94412930.98444  23056549.1724                   23056557.2194
 126977050.98146  98943225.64243  24162932.0554                   24162941.9884
 112300012.201 8                  21369981.328
 119149089.947 7                  22673316.695
 106702468.073 8                  20304783.250
 112746900.49548  87854827.54446  21454993.2814                   21454999.0824
 11  7 26  3 49 30.0000000  0  7G25G10G26G12G29G05G02
 113555459.260 8                  21608885.742
 121262285.88147  94490074.68644  23075388.5864                   23075396.6454
 126879443.50046  98867167.93543  24144358.1644                   24144368.0784
 112358514.346 8                  21381113.992
 119067440.754 7                  22657779.281
 106715759.573 8                  20307312.305
 112785945.87248  87885252.52046  21462423.4224                   21462429.1094
 11  7 26  3 50  0.0000000  0  7G25G10G26G12G29G05G02
 113549179.936 8                  21607690.688
 121361521.39247  94567401.04444  23094272.1564                   23094280.4024
 126781826.74846  98791103.01343  24125782.8204                   24125792.0704
 112417474.738 8                  21392333.664
 118985863.911 7                  22642255.961
 106729601.013 8                  20309946.148
 112825100.15948  87915762.36746  21469873.9924                   21469879.7154
 11  7 26  3 50 30.0000000  0  7G25G10G26G12G29G05G02
 113543485.196 8                  21606607.180
 121460988.26847  94644907.69844  23113200.3134                   23113208.6254
 126684204.19446  98715033.57543  24107205.8134                   24107214.4884
 112476891.076 8                  21403640.391
 118904360.807 7                  22626746.547
 106743991.129 8                  20312684.578
 112864362.86948  87946356.68446  21477345.7344                   21477351.5784
 11  7 26  3 51  0.0000000  0  7G25G10G26G12G29G05G02
 113538374.597 8                  21605634.594
 121560683.46747  94722592.26444  23132171.8284                   23132179.6134
 126586578.57246  98638961.71243  24088628.2664                   24088636.4774
 112536760.405 8                  21415033.023
 118822933.203 7                  22611251.398
 106758928.119 8                  20315526.977
 112903733.20548  87977034.87046  21484837.4924                   21484842.9454
 11  7 26  3 51 30.0000000  0  7G25G10G26G12G29G05G02
 113533847.896 8                  21604773.102
 121660604.01247  94800452.43044  23151185.7584                   23151193.4414
 126488953.41946  98562890.22343  24070050.7034                   24070059.3324
 112597080.483 8                  21426511.383
 118741582.719 7                  22595770.742
 106774410.751 8                  20318473.148
 112943211.22848  88007796.96546  21492349.6564                   21492356.0274
 11  7 26  3 52  0.0000000  0  7G25G10G26G12G29G05G02
 113529905.297 8                  21604022.813
 121760747.37847  94878486.22544  23170242.4304                   23170250.3014
 126391332.09546  98486821.73743  24051473.6094                   24051482.9224
 112657848.845 8                  21438075.461
 118660311.357 7                  22580305.406
 106790438.270 8                  20321523.047
 112982796.79348  88038642.87846  21499882.5084                   21499888.6804
 11  7 26  3 52 30.0000000  0  7G25G10G26G12G29G05G02
 113526545.983 8                  21603383.563
 121861110.27747  94956691.09144  23189341.0864                   23189347.7544
 126293717.62747  98410758.56843  24032898.1254                   24032907.5864
 112719062.812 8                  21449724.461
 118579120.346 7                  22564855.063
 106807008.474 8                  20324676.227
 113022488.70548  88069571.64846  21507435.7814                   21507441.2384
 11  7 26  3 53  0.0000000  0  7G25G10G26G12G29G05G02
 113523770.229 8                  21602855.656
 121961690.37446  95035065.19543  23208480.3444                   23208488.2464
 126196113.58247  98334703.48643  24014324.9064                   24014334.0204
 112780720.611 8                  21461457.203
 118498011.760 7                  22549420.656
 106824120.883 8                  20327932.750
 113062287.09348  88100583.37246  21515009.1414                   21515014.4804
 11  7 26  3 53 30.0000000  0  7G25G10G26G12G29G05G02
 113521577.756 8                  21602438.500
 122062484.64846  95113606.17743  23227660.8524                   23227668.7304
 126098523.43147  98258659.25443  23995754.3754                   23995762.4884
 112842819.458 8                  21473274.102
 118416987.503 7                  22534002.258
 106841774.302 8                  20331291.930
 113102191.71148  88131677.88646  21522602.6484                   21522608.5824
 11  7 26  3 54  0.0000000  0  7G25G10G26G12G29G05G02
 113519968.296 8                  21602131.992
 122163490.56246  95192312.06743  23246881.7814                   23246890.0164
 126000950.41546  98182628.36643  23977186.3054                   23977194.8364
 112905357.194 8                  21485174.727
 118336049.425 7                  22518599.898
 106859967.402 8                  20334754.039
 113142202.61048  88162855.22446  21530216.7034                   21530222.0744
 11  7 26  3 54 30.0000000  0  7G25G10G26G12G29G05G02
 113518941.491 8                  21601936.305
 122264705.30646  95271180.69643  23266142.3284                   23266150.7074
 125903397.84246  98106613.41543  23958623.0864                   23958631.2194
 112968331.232 8                  21497158.117
 118255199.164 7                  22503214.648
 106878698.782 8                  20338318.359
 113182319.18848  88194114.90646  21537850.3754                   21537855.9064
 11  7 26  3 55  0.0000000  0  7G25G10G26G12G29G05G02
 113518496.910 8                  21601852.266
 122366125.76446  95350209.61743  23285442.8444                   23285450.0824
 125805868.98346  98030616.96243  23940063.3914                   23940072.1844
 113031738.814 8                  21509224.438
 118174438.508 7                  22487846.375
 106897966.812 8                  20341984.945
 113222541.05648  88225456.62646  21545504.8054                   21545509.5554
 11  7 26  3 55 30.0000000  0  7G25G10G26G12G29G05G02
 113518634.234 8                  21601878.141
 122467749.40946  95429396.84443  23304780.9064                   23304788.5164
 125708367.31746  97954641.66943  23921509.3134                   23921518.8794
 113095577.594 8                  21521372.203
 118093769.121 7                  22472495.820
 106917770.230 8                  20345753.469
 113262867.90848  88256880.14445  21553178.5944                   21553183.9454
 11  7 26  3 56  0.0000000  0  7G25G10G26G12G29G05G02
 113519353.280 8                  21602014.930
 122569573.55746  95508740.32744  23324157.1564                   23324165.2154
 125610896.39046  97878690.37343  23902961.4534                   23902970.8094
 113159845.091 8                  21533602.070
 118013193.236 7                  22457162.633
 106938108.232 8                  20349623.750
 113303299.82648  88288385.54946  21560872.3204                   21560878.0164
 11  7 26  3 56 30.0000000  0  7G25G10G26G12G29G05G02
 113520653.280 8                  21602262.406
 122671595.02646  95588237.57044  23343571.2114                   23343579.3284
 125513459.43246  97802765.53743  23884420.1954                   23884428.8914
 113224538.951 8                  21545913.211
 117932712.284 7                  22441847.078
 106958978.608 8                  20353595.094
 113343836.17448  88319972.31746  21568586.5864                   21568591.8134
 11  7 26  3 57  0.0000000  0  7G25G10G26G12G29G05G02
 113522533.829 8                  21602620.117
 122773810.92247  95667886.31444  23363022.2194                   23363030.4844
 125416059.52146  97726869.59344  23865884.9924                   23865893.9384
 113289656.236 8                  21558304.406
 117852328.123 7                  22426550.484
 106980379.877 8                  20357667.289
 113384476.60747  88351640.18346  21576320.0394                   21576325.2854
 11  7 26  3 57 30.0000000  0  7G25G10G26G12G29G05G02
 113524994.906 8                  21603088.586
 122876219.03547  95747684.83244  23382509.9384                   23382518.1884
 125318700.72347  97651005.63544  23847358.3674                   23847367.9694
 113355194.884 8                  21570776.047
 117772043.041 7                  22411273.156
 107002311.626 8                  20361840.938
 113425221.56348  88383389.49345  21584073.1414                   21584078.5704
 11  7 26  3 58  0.0000000  0  7G25G10G26G12G29G05G02
 113528035.768 8                  21603667.305
 122978816.27947  95827630.73144  23402034.2894                   23402041.3674
 125221386.10847  97575176.11743  23828839.9454                   23828848.5744
 113421152.038 7                  21583327.281
 117691858.528 7                  22396014.555
 107024771.641 8                  20366115.047
 113466070.20848  88415219.61446  21591846.5314                   21591852.4454
 11  7 26  3 58 30.0000000  0  7G25G10G26G12G29G05G02
 113531655.989 8                  21604355.961
 123081600.16346  95907722.07344  23421592.5704                   23421600.1994
 125124119.21947  97499383.82543  23810331.1644                   23810339.6214
 113487525.272 8                  21595957.648
 117611776.627 7                  22380775.367
 107047758.880 8                  20370489.422
 113507022.54947  88447130.53046  21599639.5784                   21599645.1844
 11  7 26  3 59  0.0000000  0  7G25G10G26G12G29G05G02
 113535854.582 8                  21605154.953
 123184567.26046  95987956.17243  23441186.5474                   23441194.3364
 125026903.00747  97423631.02343  23791831.2274                   23791839.6604
 113554311.638 7                  21608666.844
 117531798.743 7                  22365555.680
 107071270.790 8                  20374963.453
 113548077.80648  88479121.63845  21607452.0784                   21607457.9884
 11  7 26  3 59 30.0000000  0  7G25G10G26G12G29G05G02
 113540631.719 8                  21606064.227
 123287715.48546  96068331.40843  23460814.3134                   23460823.0984
 124929741.73847  97347920.98243  23773342.1564                   23773350.6524
 113621509.109 7                  21621453.922
 117451927.583 7                  22350357.141
 107095307.345 8                  20379537.508
 113589236.52748  88511193.36746  21615283.9924                   21615289.7424
 11  7 26  4  0  0.0000000  0  7G25G10G26G12G29G05G02
 113545986.422 8                  21607082.992
 123391041.98546  96148845.55243  23480477.3524                   23480485.2504
 124832638.43746  97272256.11643  23754863.4614                   23754872.1994
 113689114.709 7                  21634318.805
 117372164.763 7                  22335178.484
 107119866.444 8                  20384211.094
 113630498.11748  88543345.24946  21623136.0474                   21623141.4734
 11  7 26  4  0 30.0000000  0  7G25G10G26G12G29G05G02
 113551917.900 8                  21608212.031
 123494543.79346  96229496.34643  23500173.1884                   23500180.8204
 124735596.39846  97196638.99643  23736396.8054                   23736406.1884
 113757125.743 8                  21647260.977
 117292511.695 7                  22320020.859
 107144945.996 8                  20388983.391
 113671862.36948  88575577.13046  21631007.6174                   21631013.2624
 11  7 26  4  1  0.0000000  0  7G25G10G26G12G29G05G02
 113558425.766 8                  21609450.148
 123598218.36246  96310281.71743  23519900.6334                   23519909.5314
 124638619.25546  97121072.46843  23717943.2194                   23717951.7544
 113825539.829 7                  21660279.320
 117212970.730 7                  22304884.844
 107170544.951 8                  20393854.945
 113713329.25448  88607888.99346  21638898.0784                   21638904.2194
 11  7 26  4  1 30.0000000  0  7G25G10G26G12G29G05G02
 113565509.106 8                  21610798.211
 123702062.70746  96391199.37943  23539662.7114                   23539670.4064
 124541710.38946  97045559.05043  23699501.4694                   23699510.3204
 113894354.234 7                  21673375.063
 117133543.558 7                  22289770.031
 107196661.275 8                  20398824.742
 113754898.22348  88640280.40046  21646808.9304                   21646814.0004
 11  7 26  4  2  0.0000000  0  7G25G10G26G12G29G05G02
 113573167.868 8                  21612255.719
 123806074.68446  96472247.71143  23559455.1024                   23559463.5554
 124444873.81846  96970102.01643  23681074.4454                   23681082.3404
 113963566.664 7                  21686545.313
 117054232.749 7                  22274678.188
 107223294.612 8                  20403892.688
 113796569.96548  88672751.88246  21654738.7894                   21654744.3634
 11  7 26  4  2 30.0000000  0  7G25G10G26G12G29G05G02
 113581400.660 8                  21613822.023
 123910251.12046  96553424.17543  23579279.7584                   23579287.7624
 124348112.32046  96894703.51443  23662660.4694                   23662670.6214
 114033173.796 7                  21699791.602
 116975039.780 7                  22259607.891
 107250442.081 8                  20409058.797
 113838343.27148  88705302.50346  21662688.0944                   21662693.4494
 11  7 26  4  3  0.0000000  0  7G25G10G26G12G29G05G02
 113590206.723 8                  21615498.008
 124014589.27646  96634726.60143  23599134.9224                   23599143.4344
 124251429.46246  96819366.28743  23644262.8984                   23644271.3054
 114103172.992 7                  21713111.336
 116895966.175 7                  22244560.781
 107278102.039 8                  20414322.219
 113880218.22947  88737932.35546  21670656.1724                   21670662.3594
 11  7 26  4  3 30.0000000  0  8G25G10G26G12G29G05G15G02
 113599585.554 8                  21617282.930
 124119086.73846  96716153.23144  23619019.8834                   23619027.8674
 124154829.07347  96744093.31744  23625880.9224                   23625890.2194
 114173562.069 8                  21726506.344
 116817014.281 7                  22229536.797
 107306273.388 8                  20419682.938
 129331572.94516                  24610989.219
 113922194.70747  88770641.31646  21678644.0864                   21678650.1804
 11  7 26  4  4  0.0000000  0  8G25G10G26G12G29G05G15G02
 113609536.593 8                  21619176.273
 124223740.85546  96797701.89744  23638934.4304                   23638943.3754
 124058314.72947  96668887.32344  23607514.0394                   23607523.6294
 114244338.428 7                  21739974.336
 116738186.336 7                  22214536.133
 107334954.760 8                  20425141.211
 129236110.064 6                  24592823.375
 113964272.70147  88803429.36145  21686651.4304                   21686657.2154
 11  7 26  4  4 30.0000000  0  8G25G10G26G12G29G05G15G02
 113620058.578 8                  21621178.617
 124328548.58546  96879370.24744  23658878.5554                   23658887.2074
 123961889.73547  96593751.01644  23589165.4454                   23589174.8714
 114315498.451 8                  21753516.367
 116659484.055 7                  22199559.617
 107364143.810 8                  20430695.289
 129140532.499 6                  24574634.078
 114006451.97147  88836296.32146  21694677.7344                   21694683.6684
 11  7 26  4  5  0.0000000  0  8G25G10G26G12G29G05G15G02
 113631150.702 8                  21623289.195
 124433507.28846  96961156.23844  23678852.0004                   23678860.9064
 123865557.54247  96518686.98744  23570834.4144                   23570842.9224
 114387039.874 8                  21767129.820
 116580909.146 7                  22184607.477
 107393838.759 8                  20436346.047
 129044842.961 6                  24556424.898
 114048732.60348  88869242.26146  21702723.5864                   21702729.3634
 11  7 26  4  5 30.0000000  0  8G25G10G26G12G29G05G15G02
 113642812.103 8                  21625508.320
 124538614.20346  97043057.69543  23698853.0234                   23698861.5784
 123769321.75947  96443698.10844  23552521.1254                   23552529.8134
 114458959.894 8                  21780815.813
 116502463.848 7                  22169679.758
 107424038.030 8                  20442092.875
 128949044.046 7                  24538195.625
 114091114.03548  88902266.77946  21710788.3754                   21710794.4224
 11  7 26  4  6  0.0000000  0  8G25G10G26G12G29G05G15G02
 113655042.066 8                  21627835.781
 124643867.09446  97125072.90343  23718881.8914                   23718889.4454
 123673186.02547  96368787.16743  23534225.8834                   23534235.6454
 114531256.049 8                  21794572.742
 116424150.262 7                  22154777.445
 107454740.359 8                  20447935.188
 128853138.441 7                  24519945.906
 114133596.42048  88935369.95345  21718872.3364                   21718877.9304
 11  7 26  4  6 30.0000000  0  8G25G10G26G12G29G05G15G02
 113667839.480 8                  21630270.813
 124749263.15046  97207199.67543  23738937.5944                   23738946.0704
 123577153.71147  96293956.82644  23515952.9534                   23515961.3754
 114603925.429 8                  21808401.672
 116345970.310 7                  22139900.125
 107485943.662 8                  20453872.852
 128757128.346 7                  24501675.664
 114176179.48248  88968551.55646  21726975.6334                   21726981.1644
 11  7 26  4  7  0.0000000  0  8G25G10G26G12G29G05G15G02
 113681203.469 8                  21632813.758
 124854799.56946  97289435.78943  23759020.8984                   23759029.1604
 123481228.48947  96219209.98344  23497698.8284                   23497707.2034
 114676965.285 7                  21822300.727
 116267925.987 7                  22125048.727
 107517645.972 8                  20459906.164
 128661016.321 7                  24483385.969
 114218863.17048  89001811.58046  21735098.0864                   21735103.6994
 11  7 26  4  7 30.0000000  0  8G25G10G26G12G29G05G15G02
 113695133.210 8                  21635464.625
 124960473.95046  97371779.46043  23779130.1484                   23779138.2814
 123385414.09947  96144549.46843  23479465.2034                   23479474.8134
 114750372.903 7                  21836269.719
 116190019.184 7                  22110223.266
 107549845.883 8                  20466033.156
 128564805.196 7                  24465077.547
 114261647.52347  89035150.06446  21743239.8204                   21743245.5744
 11  7 26  4  8  0.0000000  0  8G25G10G26G12G29G05G15G02
 113709627.606 8                  21638222.969
 125066283.29246  97454228.25243  23799265.7274                   23799273.0204
 123289714.15847  96069978.11144  23461254.4384                   23461263.5944
 114824145.507 7                  21850308.289
 116112252.098 7                  22095424.531
 107582541.412 8                  20472254.969
 128468497.483 6                  24446749.969
 114304532.29847  89068566.78946  21751400.2664                   21751406.1954
 11  7 26  4  8 30.0000000  0  8G25G10G26G12G29G05G15G02
 113724685.363 8                  21641088.336
 125172225.19346  97536780.38443  23819425.6724                   23819432.8054
 123194131.79446  95995498.37044  23443065.1564                   23443074.8834
 114898280.056 7                  21864415.586
 116034626.446 7                  22080653.289
 107615730.477 8                  20478570.789
 128372095.753 7                  24428405.320
 114347517.07447  89102061.42045  21759580.3524                   21759585.4574
 11  7 26  4  9  0.0000000  0  8G25G10G26G12G29G05G15G02
 113740305.679 8                  21644060.781
 125278296.99446  97619433.75843  23839610.0004                   23839617.5124
 123098670.82147  95921113.24843  23424900.4144                   23424908.3524
 114972773.757 7                  21878591.344
 115957144.768 7                  22065908.664
 107649411.755 8                  20484980.047
 128275602.857 6                  24410043.594
 114390602.18147  89135634.25045  21767779.1484                   21767784.4654
 11  7 26  4  9 30.0000000  0  8G25G10G26G12G29G05G15G02
 113756487.461 8                  21647140.008
 125384496.07946  97702186.25543  23859819.4614                   23859826.5274
 123003334.63647  95846825.36143  23406758.0554                   23406766.3524
 115047623.703 7                  21892834.969
 115879808.812 7                  22051191.922
 107683583.178 8                  20491482.359
 128179021.366 6                  24391664.055
 114433787.49547  89169285.16245  21775996.7114                   21776002.5744
 11  7 26  4 10  0.0000000  0  8G25G10G26G12G29G05G15G02
 113773229.479 8                  21650325.883
 125490819.78446  97785035.94843  23880051.8364                   23880058.7154
 122908127.12047  95772637.70443  23388640.2344                   23388649.0984
 115122827.510 7                  21907145.664
 115802620.551 7                  22036504.000
 107718242.639 8                  20498077.820
 128082353.667 6                  24373269.227
 114477072.74847  89203013.95145  21784233.7734                   21784239.6294
 11  7 26  4 10 30.0000000  0  8G25G10G26G12G29G05G15G02
 113790530.726 8                  21653618.250
 125597265.65846  97867980.76343  23900307.5394                   23900315.2424
 122813051.66347  95698552.96543  23370547.7504                   23370557.1174
 115198382.214 7                  21921523.109
 115725582.166 7                  22021844.203
 107753388.574 8                  20504765.852
 127985602.520 6                  24354857.820
 114520457.84248  89236820.53645  21792489.8054                   21792494.9104
 11  7 26  4 11  0.0000000  0  8G25G10G26G12G29G05G15G02
 113808389.927 8                  21657016.805
 125703831.06246  97951018.68843  23920586.9454                   23920595.3284
 122718111.94047  95624573.95544  23352482.1644                   23352490.4654
 115274284.649 7                  21935966.563
 115648695.859 7                  22007213.289
 107789018.977 8                  20511545.898
 127888770.454 6                  24336431.406
 114563942.65548  89270704.81745  21800764.2274                   21800769.9384
 11  7 26  4 11 30.0000000  0  8G25G10G26G12G29G05G15G02
 113826805.934 8                  21660521.203
 125810513.59046  98034147.95043  23940887.2344                   23940895.8554
 122623311.55447  95550703.59644  23334442.1024                   23334450.2304
 115350532.044 7                  21950476.305
 115571963.213 7                  21992611.648
 107825131.912 8                  20518418.180
 127791860.236 6                  24317988.797
 114607527.23548  89304666.83145  21809058.6644                   21809063.9654
 11  7 26  4 12  0.0000000  0  8G25G10G26G12G29G05G15G02
 113845777.726 8                  21664131.344
 125917310.60946  98117366.34543  23961210.0164                   23961218.4844
 122528654.19247  95476944.62944  23316429.5004                   23316438.6214
 115427121.719 7                  21965050.828
 115495386.734 7                  21978039.359
 107861725.799 8                  20525381.977
 127694874.707 6                  24299534.102
 114651211.59748  89338706.61245  21817371.4454                   21817376.7504
